<?xml version="1.0" encoding="UTF-8" standalone="no" ?>
<gpx xmlns="http://www.topografix.com/GPX/1/1" xmlns:xsi="http://www.w3.org/2001/XMLSchema-instance" xsi:schemaLocation="http://www.topografix.com/GPX/1/1 http://www.topografix.com/GPX/1/1/gpx.xsd" version="1.1" creator="VisuGPX - https://www.visugpx.com">
  <metadata>
    <name>Randonnée de 25 km en boucle depuis Triel (78))</name>
    <desc><![CDATA[Belle randonnée de 25 km surplombant la vallée de la Seine . En boucle depuis la gare de Triel (ligne sncf vers Mantes) . Possibilité de raccourcir en prenant d'autres gares sur le parcours. 
A lire sur [url]http://trekkingzone.fr[/url]

]]></desc>
  </metadata>
  <trk>
    <name><![CDATA[21 juin 2020 à 09:27:54]]></name>
    <cmt><![CDATA[21 juin 2020 à 09:27:54]]></cmt>
    <trkseg>
      <trkpt lat="48.98106" lon="2.00571">
        <ele>53</ele>
        <time>2020-06-21T07:27:55Z</time>
      </trkpt>
      <trkpt lat="48.98106" lon="2.00571">
        <ele>53</ele>
        <time>2020-06-21T07:27:56Z</time>
      </trkpt>
      <trkpt lat="48.98111" lon="2.00571">
        <ele>53</ele>
        <time>2020-06-21T07:28:01Z</time>
      </trkpt>
      <trkpt lat="48.98111" lon="2.00569">
        <ele>54</ele>
        <time>2020-06-21T07:30:24Z</time>
      </trkpt>
      <trkpt lat="48.98119" lon="2.00556">
        <ele>54</ele>
        <time>2020-06-21T07:30:41Z</time>
      </trkpt>
      <trkpt lat="48.98125" lon="2.00555">
        <ele>54</ele>
        <time>2020-06-21T07:30:54Z</time>
      </trkpt>
      <trkpt lat="48.98127" lon="2.00566">
        <ele>56</ele>
        <time>2020-06-21T07:31:08Z</time>
      </trkpt>
      <trkpt lat="48.98133" lon="2.0058">
        <ele>60</ele>
        <time>2020-06-21T07:31:24Z</time>
      </trkpt>
      <trkpt lat="48.9814" lon="2.00599">
        <ele>60</ele>
        <time>2020-06-21T07:31:37Z</time>
      </trkpt>
      <trkpt lat="48.98145" lon="2.00605">
        <ele>60</ele>
        <time>2020-06-21T07:31:48Z</time>
      </trkpt>
      <trkpt lat="48.9815" lon="2.00601">
        <ele>60</ele>
        <time>2020-06-21T07:32:01Z</time>
      </trkpt>
      <trkpt lat="48.98154" lon="2.00596">
        <ele>59</ele>
        <time>2020-06-21T07:32:05Z</time>
      </trkpt>
      <trkpt lat="48.98162" lon="2.00588">
        <ele>59</ele>
        <time>2020-06-21T07:32:14Z</time>
      </trkpt>
      <trkpt lat="48.98168" lon="2.00584">
        <ele>59</ele>
        <time>2020-06-21T07:32:22Z</time>
      </trkpt>
      <trkpt lat="48.98176" lon="2.00573">
        <ele>58</ele>
        <time>2020-06-21T07:32:33Z</time>
      </trkpt>
      <trkpt lat="48.98179" lon="2.00566">
        <ele>58</ele>
        <time>2020-06-21T07:32:38Z</time>
      </trkpt>
      <trkpt lat="48.98188" lon="2.00558">
        <ele>58</ele>
        <time>2020-06-21T07:32:46Z</time>
      </trkpt>
      <trkpt lat="48.9819" lon="2.0055">
        <ele>57</ele>
        <time>2020-06-21T07:32:50Z</time>
      </trkpt>
      <trkpt lat="48.98193" lon="2.00544">
        <ele>57</ele>
        <time>2020-06-21T07:32:54Z</time>
      </trkpt>
      <trkpt lat="48.98198" lon="2.0054">
        <ele>57</ele>
        <time>2020-06-21T07:32:58Z</time>
      </trkpt>
      <trkpt lat="48.9821" lon="2.00522">
        <ele>56</ele>
        <time>2020-06-21T07:33:11Z</time>
      </trkpt>
      <trkpt lat="48.98243" lon="2.00484">
        <ele>54</ele>
        <time>2020-06-21T07:33:43Z</time>
      </trkpt>
      <trkpt lat="48.98246" lon="2.00478">
        <ele>53</ele>
        <time>2020-06-21T07:33:46Z</time>
      </trkpt>
      <trkpt lat="48.9826" lon="2.00471">
        <ele>53</ele>
        <time>2020-06-21T07:33:59Z</time>
      </trkpt>
      <trkpt lat="48.98269" lon="2.00473">
        <ele>53</ele>
        <time>2020-06-21T07:34:07Z</time>
      </trkpt>
      <trkpt lat="48.98297" lon="2.00479">
        <ele>51</ele>
        <time>2020-06-21T07:34:31Z</time>
      </trkpt>
      <trkpt lat="48.98303" lon="2.00483">
        <ele>51</ele>
        <time>2020-06-21T07:34:36Z</time>
      </trkpt>
      <trkpt lat="48.98309" lon="2.00479">
        <ele>51</ele>
        <time>2020-06-21T07:34:41Z</time>
      </trkpt>
      <trkpt lat="48.98309" lon="2.00472">
        <ele>50</ele>
        <time>2020-06-21T07:34:43Z</time>
      </trkpt>
      <trkpt lat="48.98305" lon="2.00457">
        <ele>50</ele>
        <time>2020-06-21T07:34:49Z</time>
      </trkpt>
      <trkpt lat="48.98299" lon="2.00435">
        <ele>49</ele>
        <time>2020-06-21T07:35:00Z</time>
      </trkpt>
      <trkpt lat="48.98298" lon="2.00427">
        <ele>48</ele>
        <time>2020-06-21T07:35:04Z</time>
      </trkpt>
      <trkpt lat="48.98295" lon="2.0042">
        <ele>48</ele>
        <time>2020-06-21T07:35:08Z</time>
      </trkpt>
      <trkpt lat="48.98294" lon="2.00411">
        <ele>48</ele>
        <time>2020-06-21T07:35:13Z</time>
      </trkpt>
      <trkpt lat="48.98291" lon="2.00397">
        <ele>47</ele>
        <time>2020-06-21T07:35:22Z</time>
      </trkpt>
      <trkpt lat="48.98284" lon="2.00397">
        <ele>47</ele>
        <time>2020-06-21T07:35:32Z</time>
      </trkpt>
      <trkpt lat="48.98277" lon="2.00398">
        <ele>47</ele>
        <time>2020-06-21T07:35:36Z</time>
      </trkpt>
      <trkpt lat="48.98282" lon="2.00405">
        <ele>47</ele>
        <time>2020-06-21T07:35:50Z</time>
      </trkpt>
      <trkpt lat="48.98292" lon="2.00394">
        <ele>47</ele>
        <time>2020-06-21T07:36:01Z</time>
      </trkpt>
      <trkpt lat="48.98288" lon="2.0041">
        <ele>48</ele>
        <time>2020-06-21T07:36:50Z</time>
      </trkpt>
      <trkpt lat="48.98303" lon="2.0044">
        <ele>50</ele>
        <time>2020-06-21T07:37:12Z</time>
      </trkpt>
      <trkpt lat="48.98312" lon="2.00466">
        <ele>51</ele>
        <time>2020-06-21T07:37:28Z</time>
      </trkpt>
      <trkpt lat="48.98315" lon="2.00472">
        <ele>52</ele>
        <time>2020-06-21T07:37:32Z</time>
      </trkpt>
      <trkpt lat="48.98331" lon="2.00488">
        <ele>53</ele>
        <time>2020-06-21T07:37:48Z</time>
      </trkpt>
      <trkpt lat="48.98341" lon="2.00492">
        <ele>54</ele>
        <time>2020-06-21T07:37:57Z</time>
      </trkpt>
      <trkpt lat="48.98353" lon="2.00493">
        <ele>55</ele>
        <time>2020-06-21T07:38:06Z</time>
      </trkpt>
      <trkpt lat="48.98363" lon="2.00492">
        <ele>56</ele>
        <time>2020-06-21T07:38:14Z</time>
      </trkpt>
      <trkpt lat="48.98368" lon="2.00489">
        <ele>56</ele>
        <time>2020-06-21T07:38:17Z</time>
      </trkpt>
      <trkpt lat="48.98371" lon="2.00482">
        <ele>56</ele>
        <time>2020-06-21T07:38:21Z</time>
      </trkpt>
      <trkpt lat="48.98373" lon="2.00475">
        <ele>57</ele>
        <time>2020-06-21T07:38:25Z</time>
      </trkpt>
      <trkpt lat="48.98375" lon="2.00468">
        <ele>57</ele>
        <time>2020-06-21T07:38:30Z</time>
      </trkpt>
      <trkpt lat="48.98378" lon="2.00461">
        <ele>58</ele>
        <time>2020-06-21T07:38:35Z</time>
      </trkpt>
      <trkpt lat="48.98382" lon="2.00457">
        <ele>58</ele>
        <time>2020-06-21T07:38:44Z</time>
      </trkpt>
      <trkpt lat="48.98384" lon="2.00449">
        <ele>58</ele>
        <time>2020-06-21T07:38:49Z</time>
      </trkpt>
      <trkpt lat="48.98392" lon="2.00439">
        <ele>59</ele>
        <time>2020-06-21T07:38:55Z</time>
      </trkpt>
      <trkpt lat="48.98395" lon="2.00432">
        <ele>59</ele>
        <time>2020-06-21T07:39:00Z</time>
      </trkpt>
      <trkpt lat="48.98402" lon="2.00422">
        <ele>60</ele>
        <time>2020-06-21T07:39:07Z</time>
      </trkpt>
      <trkpt lat="48.98406" lon="2.00408">
        <ele>61</ele>
        <time>2020-06-21T07:39:15Z</time>
      </trkpt>
      <trkpt lat="48.98413" lon="2.00395">
        <ele>62</ele>
        <time>2020-06-21T07:39:23Z</time>
      </trkpt>
      <trkpt lat="48.98417" lon="2.0039">
        <ele>62</ele>
        <time>2020-06-21T07:39:28Z</time>
      </trkpt>
      <trkpt lat="48.98426" lon="2.00384">
        <ele>63</ele>
        <time>2020-06-21T07:39:36Z</time>
      </trkpt>
      <trkpt lat="48.98445" lon="2.00376">
        <ele>65</ele>
        <time>2020-06-21T07:39:52Z</time>
      </trkpt>
      <trkpt lat="48.98459" lon="2.00362">
        <ele>67</ele>
        <time>2020-06-21T07:40:05Z</time>
      </trkpt>
      <trkpt lat="48.98478" lon="2.00353">
        <ele>69</ele>
        <time>2020-06-21T07:40:22Z</time>
      </trkpt>
      <trkpt lat="48.9849" lon="2.0034">
        <ele>71</ele>
        <time>2020-06-21T07:40:36Z</time>
      </trkpt>
      <trkpt lat="48.98531" lon="2.00321">
        <ele>73</ele>
        <time>2020-06-21T07:41:08Z</time>
      </trkpt>
      <trkpt lat="48.98567" lon="2.00301">
        <ele>76</ele>
        <time>2020-06-21T07:41:41Z</time>
      </trkpt>
      <trkpt lat="48.9858" lon="2.00296">
        <ele>77</ele>
        <time>2020-06-21T07:41:53Z</time>
      </trkpt>
      <trkpt lat="48.9859" lon="2.0029">
        <ele>78</ele>
        <time>2020-06-21T07:42:02Z</time>
      </trkpt>
      <trkpt lat="48.98594" lon="2.00291">
        <ele>78</ele>
        <time>2020-06-21T07:42:05Z</time>
      </trkpt>
      <trkpt lat="48.98599" lon="2.00295">
        <ele>78</ele>
        <time>2020-06-21T07:42:09Z</time>
      </trkpt>
      <trkpt lat="48.98614" lon="2.00297">
        <ele>79</ele>
        <time>2020-06-21T07:42:21Z</time>
      </trkpt>
      <trkpt lat="48.98633" lon="2.00305">
        <ele>80</ele>
        <time>2020-06-21T07:42:38Z</time>
      </trkpt>
      <trkpt lat="48.98669" lon="2.00304">
        <ele>82</ele>
        <time>2020-06-21T07:43:06Z</time>
      </trkpt>
      <trkpt lat="48.98678" lon="2.00298">
        <ele>83</ele>
        <time>2020-06-21T07:43:14Z</time>
      </trkpt>
      <trkpt lat="48.98713" lon="2.00287">
        <ele>86</ele>
        <time>2020-06-21T07:43:47Z</time>
      </trkpt>
      <trkpt lat="48.98749" lon="2.00281">
        <ele>89</ele>
        <time>2020-06-21T07:44:17Z</time>
      </trkpt>
      <trkpt lat="48.98786" lon="2.00299">
        <ele>92</ele>
        <time>2020-06-21T07:44:49Z</time>
      </trkpt>
      <trkpt lat="48.98807" lon="2.00305">
        <ele>94</ele>
        <time>2020-06-21T07:45:07Z</time>
      </trkpt>
      <trkpt lat="48.98848" lon="2.00307">
        <ele>97</ele>
        <time>2020-06-21T07:45:40Z</time>
      </trkpt>
      <trkpt lat="48.98853" lon="2.00306">
        <ele>97</ele>
        <time>2020-06-21T07:45:43Z</time>
      </trkpt>
      <trkpt lat="48.98858" lon="2.0031">
        <ele>97</ele>
        <time>2020-06-21T07:46:32Z</time>
      </trkpt>
      <trkpt lat="48.98863" lon="2.0031">
        <ele>98</ele>
        <time>2020-06-21T07:46:36Z</time>
      </trkpt>
      <trkpt lat="48.98869" lon="2.0031">
        <ele>98</ele>
        <time>2020-06-21T07:46:40Z</time>
      </trkpt>
      <trkpt lat="48.98909" lon="2.00318">
        <ele>101</ele>
        <time>2020-06-21T07:47:13Z</time>
      </trkpt>
      <trkpt lat="48.98951" lon="2.00317">
        <ele>103</ele>
        <time>2020-06-21T07:47:44Z</time>
      </trkpt>
      <trkpt lat="48.98956" lon="2.00317">
        <ele>104</ele>
        <time>2020-06-21T07:47:48Z</time>
      </trkpt>
      <trkpt lat="48.98965" lon="2.00318">
        <ele>105</ele>
        <time>2020-06-21T07:48:00Z</time>
      </trkpt>
      <trkpt lat="48.98985" lon="2.00315">
        <ele>106</ele>
        <time>2020-06-21T07:48:17Z</time>
      </trkpt>
      <trkpt lat="48.98989" lon="2.0031">
        <ele>106</ele>
        <time>2020-06-21T07:48:21Z</time>
      </trkpt>
      <trkpt lat="48.98989" lon="2.00302">
        <ele>107</ele>
        <time>2020-06-21T07:48:24Z</time>
      </trkpt>
      <trkpt lat="48.98988" lon="2.00293">
        <ele>107</ele>
        <time>2020-06-21T07:48:28Z</time>
      </trkpt>
      <trkpt lat="48.98986" lon="2.00287">
        <ele>108</ele>
        <time>2020-06-21T07:48:32Z</time>
      </trkpt>
      <trkpt lat="48.98986" lon="2.0028">
        <ele>109</ele>
        <time>2020-06-21T07:48:36Z</time>
      </trkpt>
      <trkpt lat="48.98981" lon="2.00257">
        <ele>111</ele>
        <time>2020-06-21T07:48:50Z</time>
      </trkpt>
      <trkpt lat="48.98978" lon="2.00196">
        <ele>114</ele>
        <time>2020-06-21T07:49:23Z</time>
      </trkpt>
      <trkpt lat="48.9898" lon="2.00132">
        <ele>113</ele>
        <time>2020-06-21T07:49:55Z</time>
      </trkpt>
      <trkpt lat="48.9898" lon="2.00116">
        <ele>112</ele>
        <time>2020-06-21T07:50:03Z</time>
      </trkpt>
      <trkpt lat="48.9898" lon="2.00108">
        <ele>112</ele>
        <time>2020-06-21T07:50:07Z</time>
      </trkpt>
      <trkpt lat="48.98982" lon="2.00101">
        <ele>112</ele>
        <time>2020-06-21T07:50:11Z</time>
      </trkpt>
      <trkpt lat="48.98985" lon="2.00085">
        <ele>112</ele>
        <time>2020-06-21T07:50:19Z</time>
      </trkpt>
      <trkpt lat="48.98985" lon="2.00078">
        <ele>112</ele>
        <time>2020-06-21T07:50:22Z</time>
      </trkpt>
      <trkpt lat="48.98986" lon="2.00071">
        <ele>111</ele>
        <time>2020-06-21T07:50:26Z</time>
      </trkpt>
      <trkpt lat="48.98987" lon="2.00062">
        <ele>111</ele>
        <time>2020-06-21T07:50:30Z</time>
      </trkpt>
      <trkpt lat="48.98989" lon="2.00054">
        <ele>112</ele>
        <time>2020-06-21T07:50:34Z</time>
      </trkpt>
      <trkpt lat="48.98992" lon="2.00032">
        <ele>112</ele>
        <time>2020-06-21T07:50:45Z</time>
      </trkpt>
      <trkpt lat="48.98991" lon="2.00025">
        <ele>112</ele>
        <time>2020-06-21T07:50:49Z</time>
      </trkpt>
      <trkpt lat="48.98989" lon="2.00011">
        <ele>113</ele>
        <time>2020-06-21T07:50:56Z</time>
      </trkpt>
      <trkpt lat="48.9899" lon="2.00004">
        <ele>113</ele>
        <time>2020-06-21T07:51:00Z</time>
      </trkpt>
      <trkpt lat="48.98997" lon="1.99993">
        <ele>113</ele>
        <time>2020-06-21T07:51:07Z</time>
      </trkpt>
      <trkpt lat="48.99005" lon="1.99972">
        <ele>114</ele>
        <time>2020-06-21T07:51:20Z</time>
      </trkpt>
      <trkpt lat="48.99031" lon="1.99934">
        <ele>114</ele>
        <time>2020-06-21T07:51:51Z</time>
      </trkpt>
      <trkpt lat="48.99039" lon="1.99922">
        <ele>115</ele>
        <time>2020-06-21T07:51:58Z</time>
      </trkpt>
      <trkpt lat="48.99044" lon="1.99908">
        <ele>115</ele>
        <time>2020-06-21T07:52:06Z</time>
      </trkpt>
      <trkpt lat="48.99044" lon="1.99898">
        <ele>115</ele>
        <time>2020-06-21T07:52:12Z</time>
      </trkpt>
      <trkpt lat="48.99047" lon="1.99892">
        <ele>115</ele>
        <time>2020-06-21T07:52:15Z</time>
      </trkpt>
      <trkpt lat="48.99057" lon="1.99888">
        <ele>115</ele>
        <time>2020-06-21T07:52:22Z</time>
      </trkpt>
      <trkpt lat="48.99065" lon="1.99879">
        <ele>115</ele>
        <time>2020-06-21T07:52:29Z</time>
      </trkpt>
      <trkpt lat="48.99071" lon="1.9987">
        <ele>114</ele>
        <time>2020-06-21T07:52:41Z</time>
      </trkpt>
      <trkpt lat="48.99089" lon="1.99856">
        <ele>112</ele>
        <time>2020-06-21T07:52:56Z</time>
      </trkpt>
      <trkpt lat="48.99093" lon="1.99852">
        <ele>111</ele>
        <time>2020-06-21T07:53:00Z</time>
      </trkpt>
      <trkpt lat="48.99093" lon="1.99845">
        <ele>110</ele>
        <time>2020-06-21T07:53:05Z</time>
      </trkpt>
      <trkpt lat="48.9911" lon="1.99828">
        <ele>107</ele>
        <time>2020-06-21T07:53:20Z</time>
      </trkpt>
      <trkpt lat="48.99112" lon="1.99821">
        <ele>106</ele>
        <time>2020-06-21T07:53:25Z</time>
      </trkpt>
      <trkpt lat="48.99133" lon="1.99796">
        <ele>102</ele>
        <time>2020-06-21T07:53:41Z</time>
      </trkpt>
      <trkpt lat="48.99136" lon="1.99788">
        <ele>102</ele>
        <time>2020-06-21T07:53:46Z</time>
      </trkpt>
      <trkpt lat="48.99139" lon="1.99772">
        <ele>100</ele>
        <time>2020-06-21T07:53:54Z</time>
      </trkpt>
      <trkpt lat="48.99145" lon="1.99763">
        <ele>99</ele>
        <time>2020-06-21T07:54:01Z</time>
      </trkpt>
      <trkpt lat="48.99146" lon="1.99755">
        <ele>98</ele>
        <time>2020-06-21T07:54:05Z</time>
      </trkpt>
      <trkpt lat="48.99146" lon="1.9974">
        <ele>96</ele>
        <time>2020-06-21T07:54:13Z</time>
      </trkpt>
      <trkpt lat="48.99143" lon="1.99734">
        <ele>95</ele>
        <time>2020-06-21T07:54:17Z</time>
      </trkpt>
      <trkpt lat="48.99135" lon="1.99724">
        <ele>94</ele>
        <time>2020-06-21T07:54:24Z</time>
      </trkpt>
      <trkpt lat="48.99133" lon="1.99718">
        <ele>94</ele>
        <time>2020-06-21T07:54:27Z</time>
      </trkpt>
      <trkpt lat="48.99123" lon="1.99701">
        <ele>93</ele>
        <time>2020-06-21T07:54:38Z</time>
      </trkpt>
      <trkpt lat="48.99116" lon="1.99701">
        <ele>94</ele>
        <time>2020-06-21T07:55:07Z</time>
      </trkpt>
      <trkpt lat="48.99114" lon="1.99711">
        <ele>94</ele>
        <time>2020-06-21T07:55:12Z</time>
      </trkpt>
      <trkpt lat="48.9913" lon="1.99731">
        <ele>95</ele>
        <time>2020-06-21T07:55:26Z</time>
      </trkpt>
      <trkpt lat="48.99136" lon="1.99733">
        <ele>95</ele>
        <time>2020-06-21T07:55:33Z</time>
      </trkpt>
      <trkpt lat="48.99152" lon="1.99724">
        <ele>95</ele>
        <time>2020-06-21T07:55:42Z</time>
      </trkpt>
      <trkpt lat="48.99156" lon="1.9972">
        <ele>94</ele>
        <time>2020-06-21T07:55:46Z</time>
      </trkpt>
      <trkpt lat="48.99176" lon="1.99703">
        <ele>93</ele>
        <time>2020-06-21T07:56:06Z</time>
      </trkpt>
      <trkpt lat="48.99181" lon="1.99694">
        <ele>93</ele>
        <time>2020-06-21T07:56:10Z</time>
      </trkpt>
      <trkpt lat="48.99192" lon="1.99684">
        <ele>93</ele>
        <time>2020-06-21T07:56:23Z</time>
      </trkpt>
      <trkpt lat="48.99195" lon="1.99677">
        <ele>93</ele>
        <time>2020-06-21T07:56:30Z</time>
      </trkpt>
      <trkpt lat="48.99201" lon="1.99668">
        <ele>93</ele>
        <time>2020-06-21T07:56:39Z</time>
      </trkpt>
      <trkpt lat="48.99216" lon="1.99658">
        <ele>93</ele>
        <time>2020-06-21T07:56:48Z</time>
      </trkpt>
      <trkpt lat="48.9922" lon="1.99656">
        <ele>93</ele>
        <time>2020-06-21T07:56:51Z</time>
      </trkpt>
      <trkpt lat="48.99226" lon="1.99659">
        <ele>93</ele>
        <time>2020-06-21T07:56:57Z</time>
      </trkpt>
      <trkpt lat="48.99233" lon="1.99667">
        <ele>93</ele>
        <time>2020-06-21T07:57:04Z</time>
      </trkpt>
      <trkpt lat="48.99237" lon="1.99673">
        <ele>93</ele>
        <time>2020-06-21T07:57:08Z</time>
      </trkpt>
      <trkpt lat="48.99249" lon="1.99677">
        <ele>94</ele>
        <time>2020-06-21T07:57:18Z</time>
      </trkpt>
      <trkpt lat="48.99257" lon="1.99673">
        <ele>95</ele>
        <time>2020-06-21T07:57:33Z</time>
      </trkpt>
      <trkpt lat="48.99266" lon="1.99666">
        <ele>95</ele>
        <time>2020-06-21T07:57:42Z</time>
      </trkpt>
      <trkpt lat="48.99275" lon="1.99659">
        <ele>95</ele>
        <time>2020-06-21T07:57:51Z</time>
      </trkpt>
      <trkpt lat="48.99285" lon="1.99655">
        <ele>94</ele>
        <time>2020-06-21T07:57:59Z</time>
      </trkpt>
      <trkpt lat="48.9929" lon="1.99656">
        <ele>94</ele>
        <time>2020-06-21T07:58:03Z</time>
      </trkpt>
      <trkpt lat="48.99295" lon="1.99654">
        <ele>94</ele>
        <time>2020-06-21T07:58:07Z</time>
      </trkpt>
      <trkpt lat="48.99298" lon="1.99648">
        <ele>94</ele>
        <time>2020-06-21T07:58:11Z</time>
      </trkpt>
      <trkpt lat="48.9932" lon="1.99627">
        <ele>94</ele>
        <time>2020-06-21T07:58:31Z</time>
      </trkpt>
      <trkpt lat="48.99324" lon="1.99624">
        <ele>94</ele>
        <time>2020-06-21T07:58:34Z</time>
      </trkpt>
      <trkpt lat="48.99331" lon="1.99612">
        <ele>94</ele>
        <time>2020-06-21T07:58:42Z</time>
      </trkpt>
      <trkpt lat="48.99342" lon="1.99595">
        <ele>95</ele>
        <time>2020-06-21T07:58:55Z</time>
      </trkpt>
      <trkpt lat="48.99355" lon="1.99595">
        <ele>97</ele>
        <time>2020-06-21T07:59:11Z</time>
      </trkpt>
      <trkpt lat="48.99364" lon="1.99593">
        <ele>97</ele>
        <time>2020-06-21T07:59:18Z</time>
      </trkpt>
      <trkpt lat="48.99373" lon="1.99589">
        <ele>98</ele>
        <time>2020-06-21T07:59:25Z</time>
      </trkpt>
      <trkpt lat="48.99391" lon="1.99574">
        <ele>99</ele>
        <time>2020-06-21T07:59:40Z</time>
      </trkpt>
      <trkpt lat="48.99405" lon="1.99557">
        <ele>98</ele>
        <time>2020-06-21T07:59:57Z</time>
      </trkpt>
      <trkpt lat="48.9943" lon="1.99538">
        <ele>98</ele>
        <time>2020-06-21T08:00:19Z</time>
      </trkpt>
      <trkpt lat="48.99434" lon="1.99532">
        <ele>99</ele>
        <time>2020-06-21T08:01:33Z</time>
      </trkpt>
      <trkpt lat="48.99438" lon="1.99535">
        <ele>97</ele>
        <time>2020-06-21T08:05:24Z</time>
      </trkpt>
      <trkpt lat="48.99437" lon="1.99533">
        <ele>98</ele>
        <time>2020-06-21T08:06:21Z</time>
      </trkpt>
      <trkpt lat="48.99435" lon="1.99527">
        <ele>98</ele>
        <time>2020-06-21T08:07:01Z</time>
      </trkpt>
      <trkpt lat="48.99441" lon="1.99514">
        <ele>98</ele>
        <time>2020-06-21T08:07:37Z</time>
      </trkpt>
      <trkpt lat="48.99446" lon="1.99505">
        <ele>98</ele>
        <time>2020-06-21T08:07:54Z</time>
      </trkpt>
      <trkpt lat="48.99453" lon="1.99491">
        <ele>98</ele>
        <time>2020-06-21T08:08:09Z</time>
      </trkpt>
      <trkpt lat="48.99462" lon="1.9948">
        <ele>98</ele>
        <time>2020-06-21T08:08:19Z</time>
      </trkpt>
      <trkpt lat="48.99467" lon="1.99477">
        <ele>98</ele>
        <time>2020-06-21T08:08:23Z</time>
      </trkpt>
      <trkpt lat="48.99477" lon="1.99479">
        <ele>98</ele>
        <time>2020-06-21T08:08:31Z</time>
      </trkpt>
      <trkpt lat="48.99492" lon="1.9949">
        <ele>99</ele>
        <time>2020-06-21T08:08:46Z</time>
      </trkpt>
      <trkpt lat="48.99501" lon="1.99492">
        <ele>100</ele>
        <time>2020-06-21T08:09:02Z</time>
      </trkpt>
      <trkpt lat="48.99525" lon="1.99464">
        <ele>99</ele>
        <time>2020-06-21T08:09:31Z</time>
      </trkpt>
      <trkpt lat="48.99538" lon="1.99452">
        <ele>99</ele>
        <time>2020-06-21T08:09:41Z</time>
      </trkpt>
      <trkpt lat="48.99554" lon="1.99425">
        <ele>100</ele>
        <time>2020-06-21T08:10:01Z</time>
      </trkpt>
      <trkpt lat="48.99569" lon="1.99408">
        <ele>101</ele>
        <time>2020-06-21T08:10:18Z</time>
      </trkpt>
      <trkpt lat="48.99598" lon="1.99368">
        <ele>102</ele>
        <time>2020-06-21T08:10:47Z</time>
      </trkpt>
      <trkpt lat="48.99606" lon="1.99341">
        <ele>102</ele>
        <time>2020-06-21T08:11:03Z</time>
      </trkpt>
      <trkpt lat="48.99633" lon="1.99284">
        <ele>100</ele>
        <time>2020-06-21T08:11:39Z</time>
      </trkpt>
      <trkpt lat="48.99657" lon="1.99224">
        <ele>99</ele>
        <time>2020-06-21T08:12:15Z</time>
      </trkpt>
      <trkpt lat="48.99663" lon="1.99212">
        <ele>99</ele>
        <time>2020-06-21T08:12:22Z</time>
      </trkpt>
      <trkpt lat="48.99665" lon="1.99198">
        <ele>99</ele>
        <time>2020-06-21T08:12:30Z</time>
      </trkpt>
      <trkpt lat="48.99667" lon="1.99183">
        <ele>100</ele>
        <time>2020-06-21T08:12:38Z</time>
      </trkpt>
      <trkpt lat="48.9967" lon="1.9917">
        <ele>100</ele>
        <time>2020-06-21T08:12:45Z</time>
      </trkpt>
      <trkpt lat="48.99673" lon="1.99164">
        <ele>100</ele>
        <time>2020-06-21T08:12:49Z</time>
      </trkpt>
      <trkpt lat="48.99678" lon="1.99158">
        <ele>100</ele>
        <time>2020-06-21T08:13:00Z</time>
      </trkpt>
      <trkpt lat="48.99681" lon="1.99153">
        <ele>101</ele>
        <time>2020-06-21T08:13:03Z</time>
      </trkpt>
      <trkpt lat="48.99681" lon="1.99145">
        <ele>101</ele>
        <time>2020-06-21T08:13:07Z</time>
      </trkpt>
      <trkpt lat="48.99684" lon="1.99138">
        <ele>101</ele>
        <time>2020-06-21T08:13:12Z</time>
      </trkpt>
      <trkpt lat="48.99687" lon="1.99132">
        <ele>101</ele>
        <time>2020-06-21T08:13:15Z</time>
      </trkpt>
      <trkpt lat="48.99696" lon="1.99105">
        <ele>102</ele>
        <time>2020-06-21T08:13:31Z</time>
      </trkpt>
      <trkpt lat="48.99699" lon="1.991">
        <ele>102</ele>
        <time>2020-06-21T08:13:36Z</time>
      </trkpt>
      <trkpt lat="48.99702" lon="1.99092">
        <ele>102</ele>
        <time>2020-06-21T08:13:40Z</time>
      </trkpt>
      <trkpt lat="48.99711" lon="1.99062">
        <ele>104</ele>
        <time>2020-06-21T08:13:56Z</time>
      </trkpt>
      <trkpt lat="48.99718" lon="1.99051">
        <ele>105</ele>
        <time>2020-06-21T08:14:04Z</time>
      </trkpt>
      <trkpt lat="48.99715" lon="1.99038">
        <ele>106</ele>
        <time>2020-06-21T08:14:14Z</time>
      </trkpt>
      <trkpt lat="48.99707" lon="1.99032">
        <ele>106</ele>
        <time>2020-06-21T08:14:29Z</time>
      </trkpt>
      <trkpt lat="48.99694" lon="1.99024">
        <ele>105</ele>
        <time>2020-06-21T08:14:45Z</time>
      </trkpt>
      <trkpt lat="48.99661" lon="1.99018">
        <ele>103</ele>
        <time>2020-06-21T08:15:10Z</time>
      </trkpt>
      <trkpt lat="48.99655" lon="1.99016">
        <ele>102</ele>
        <time>2020-06-21T08:15:15Z</time>
      </trkpt>
      <trkpt lat="48.99641" lon="1.99014">
        <ele>101</ele>
        <time>2020-06-21T08:15:26Z</time>
      </trkpt>
      <trkpt lat="48.99622" lon="1.99006">
        <ele>101</ele>
        <time>2020-06-21T08:15:43Z</time>
      </trkpt>
      <trkpt lat="48.99599" lon="1.98997">
        <ele>99</ele>
        <time>2020-06-21T08:16:02Z</time>
      </trkpt>
      <trkpt lat="48.9959" lon="1.98986">
        <ele>98</ele>
        <time>2020-06-21T08:16:13Z</time>
      </trkpt>
      <trkpt lat="48.99572" lon="1.98983">
        <ele>98</ele>
        <time>2020-06-21T08:16:25Z</time>
      </trkpt>
      <trkpt lat="48.99537" lon="1.98964">
        <ele>94</ele>
        <time>2020-06-21T08:16:50Z</time>
      </trkpt>
      <trkpt lat="48.99508" lon="1.98957">
        <ele>91</ele>
        <time>2020-06-21T08:17:13Z</time>
      </trkpt>
      <trkpt lat="48.99523" lon="1.98937">
        <ele>91</ele>
        <time>2020-06-21T08:17:35Z</time>
      </trkpt>
      <trkpt lat="48.99544" lon="1.9891">
        <ele>93</ele>
        <time>2020-06-21T08:17:57Z</time>
      </trkpt>
      <trkpt lat="48.99552" lon="1.98902">
        <ele>93</ele>
        <time>2020-06-21T08:18:06Z</time>
      </trkpt>
      <trkpt lat="48.99565" lon="1.9888">
        <ele>94</ele>
        <time>2020-06-21T08:18:24Z</time>
      </trkpt>
      <trkpt lat="48.99592" lon="1.9884">
        <ele>94</ele>
        <time>2020-06-21T08:18:55Z</time>
      </trkpt>
      <trkpt lat="48.99628" lon="1.98811">
        <ele>93</ele>
        <time>2020-06-21T08:19:29Z</time>
      </trkpt>
      <trkpt lat="48.9965" lon="1.98784">
        <ele>92</ele>
        <time>2020-06-21T08:19:48Z</time>
      </trkpt>
      <trkpt lat="48.99656" lon="1.9877">
        <ele>92</ele>
        <time>2020-06-21T08:19:58Z</time>
      </trkpt>
      <trkpt lat="48.99665" lon="1.98765">
        <ele>92</ele>
        <time>2020-06-21T08:20:08Z</time>
      </trkpt>
      <trkpt lat="48.99671" lon="1.98752">
        <ele>93</ele>
        <time>2020-06-21T08:20:16Z</time>
      </trkpt>
      <trkpt lat="48.99679" lon="1.98743">
        <ele>93</ele>
        <time>2020-06-21T08:20:23Z</time>
      </trkpt>
      <trkpt lat="48.99684" lon="1.98732">
        <ele>93</ele>
        <time>2020-06-21T08:20:32Z</time>
      </trkpt>
      <trkpt lat="48.99691" lon="1.98722">
        <ele>94</ele>
        <time>2020-06-21T08:20:39Z</time>
      </trkpt>
      <trkpt lat="48.99692" lon="1.98709">
        <ele>94</ele>
        <time>2020-06-21T08:20:46Z</time>
      </trkpt>
      <trkpt lat="48.99703" lon="1.98705">
        <ele>95</ele>
        <time>2020-06-21T08:20:58Z</time>
      </trkpt>
      <trkpt lat="48.99712" lon="1.987">
        <ele>96</ele>
        <time>2020-06-21T08:21:05Z</time>
      </trkpt>
      <trkpt lat="48.9972" lon="1.9869">
        <ele>97</ele>
        <time>2020-06-21T08:21:17Z</time>
      </trkpt>
      <trkpt lat="48.9974" lon="1.98688">
        <ele>99</ele>
        <time>2020-06-21T08:21:30Z</time>
      </trkpt>
      <trkpt lat="48.99746" lon="1.98677">
        <ele>99</ele>
        <time>2020-06-21T08:21:39Z</time>
      </trkpt>
      <trkpt lat="48.99764" lon="1.98658">
        <ele>99</ele>
        <time>2020-06-21T08:22:00Z</time>
      </trkpt>
      <trkpt lat="48.9979" lon="1.98632">
        <ele>100</ele>
        <time>2020-06-21T08:22:22Z</time>
      </trkpt>
      <trkpt lat="48.99795" lon="1.9862">
        <ele>100</ele>
        <time>2020-06-21T08:22:29Z</time>
      </trkpt>
      <trkpt lat="48.99802" lon="1.98609">
        <ele>100</ele>
        <time>2020-06-21T08:22:37Z</time>
      </trkpt>
      <trkpt lat="48.99832" lon="1.98577">
        <ele>101</ele>
        <time>2020-06-21T08:23:10Z</time>
      </trkpt>
      <trkpt lat="48.99841" lon="1.9857">
        <ele>101</ele>
        <time>2020-06-21T08:23:16Z</time>
      </trkpt>
      <trkpt lat="48.99857" lon="1.9855">
        <ele>101</ele>
        <time>2020-06-21T08:23:33Z</time>
      </trkpt>
      <trkpt lat="48.99873" lon="1.98539">
        <ele>100</ele>
        <time>2020-06-21T08:23:47Z</time>
      </trkpt>
      <trkpt lat="48.99882" lon="1.98525">
        <ele>100</ele>
        <time>2020-06-21T08:23:58Z</time>
      </trkpt>
      <trkpt lat="48.99891" lon="1.98518">
        <ele>100</ele>
        <time>2020-06-21T08:24:04Z</time>
      </trkpt>
      <trkpt lat="48.99893" lon="1.98502">
        <ele>100</ele>
        <time>2020-06-21T08:24:17Z</time>
      </trkpt>
      <trkpt lat="48.99925" lon="1.98446">
        <ele>103</ele>
        <time>2020-06-21T08:24:53Z</time>
      </trkpt>
      <trkpt lat="48.9993" lon="1.98432">
        <ele>103</ele>
        <time>2020-06-21T08:25:00Z</time>
      </trkpt>
      <trkpt lat="48.99935" lon="1.98421">
        <ele>103</ele>
        <time>2020-06-21T08:25:08Z</time>
      </trkpt>
      <trkpt lat="48.99943" lon="1.98412">
        <ele>102</ele>
        <time>2020-06-21T08:25:17Z</time>
      </trkpt>
      <trkpt lat="48.99948" lon="1.98399">
        <ele>101</ele>
        <time>2020-06-21T08:25:26Z</time>
      </trkpt>
      <trkpt lat="48.99956" lon="1.98389">
        <ele>101</ele>
        <time>2020-06-21T08:25:33Z</time>
      </trkpt>
      <trkpt lat="48.99962" lon="1.98377">
        <ele>100</ele>
        <time>2020-06-21T08:25:42Z</time>
      </trkpt>
      <trkpt lat="49.00001" lon="1.98332">
        <ele>100</ele>
        <time>2020-06-21T08:26:19Z</time>
      </trkpt>
      <trkpt lat="49.00025" lon="1.98307">
        <ele>101</ele>
        <time>2020-06-21T08:26:39Z</time>
      </trkpt>
      <trkpt lat="49.00029" lon="1.98294">
        <ele>101</ele>
        <time>2020-06-21T08:26:48Z</time>
      </trkpt>
      <trkpt lat="49.00048" lon="1.98263">
        <ele>102</ele>
        <time>2020-06-21T08:27:12Z</time>
      </trkpt>
      <trkpt lat="49.0007" lon="1.98205">
        <ele>103</ele>
        <time>2020-06-21T08:27:48Z</time>
      </trkpt>
      <trkpt lat="49.00088" lon="1.9817">
        <ele>102</ele>
        <time>2020-06-21T08:28:10Z</time>
      </trkpt>
      <trkpt lat="49.00089" lon="1.98157">
        <ele>101</ele>
        <time>2020-06-21T08:28:20Z</time>
      </trkpt>
      <trkpt lat="49.00096" lon="1.98146">
        <ele>101</ele>
        <time>2020-06-21T08:28:29Z</time>
      </trkpt>
      <trkpt lat="49.00134" lon="1.98111">
        <ele>100</ele>
        <time>2020-06-21T08:29:05Z</time>
      </trkpt>
      <trkpt lat="49.0015" lon="1.98067">
        <ele>97</ele>
        <time>2020-06-21T08:29:35Z</time>
      </trkpt>
      <trkpt lat="49.00166" lon="1.98014">
        <ele>93</ele>
        <time>2020-06-21T08:30:08Z</time>
      </trkpt>
      <trkpt lat="49.00172" lon="1.98001">
        <ele>92</ele>
        <time>2020-06-21T08:30:17Z</time>
      </trkpt>
      <trkpt lat="49.00187" lon="1.97984">
        <ele>91</ele>
        <time>2020-06-21T08:30:34Z</time>
      </trkpt>
      <trkpt lat="49.00198" lon="1.97955">
        <ele>89</ele>
        <time>2020-06-21T08:30:52Z</time>
      </trkpt>
      <trkpt lat="49.00206" lon="1.97945">
        <ele>88</ele>
        <time>2020-06-21T08:30:57Z</time>
      </trkpt>
      <trkpt lat="49.00205" lon="1.97933">
        <ele>88</ele>
        <time>2020-06-21T08:31:06Z</time>
      </trkpt>
      <trkpt lat="49.00199" lon="1.97917">
        <ele>87</ele>
        <time>2020-06-21T08:31:20Z</time>
      </trkpt>
      <trkpt lat="49.00211" lon="1.97885">
        <ele>85</ele>
        <time>2020-06-21T08:31:39Z</time>
      </trkpt>
      <trkpt lat="49.00213" lon="1.97877">
        <ele>84</ele>
        <time>2020-06-21T08:31:43Z</time>
      </trkpt>
      <trkpt lat="49.00218" lon="1.9786">
        <ele>83</ele>
        <time>2020-06-21T08:31:51Z</time>
      </trkpt>
      <trkpt lat="49.00217" lon="1.97843">
        <ele>81</ele>
        <time>2020-06-21T08:32:01Z</time>
      </trkpt>
      <trkpt lat="49.00227" lon="1.97818">
        <ele>80</ele>
        <time>2020-06-21T08:32:17Z</time>
      </trkpt>
      <trkpt lat="49.00227" lon="1.9781">
        <ele>79</ele>
        <time>2020-06-21T08:32:21Z</time>
      </trkpt>
      <trkpt lat="49.00228" lon="1.97803">
        <ele>78</ele>
        <time>2020-06-21T08:32:25Z</time>
      </trkpt>
      <trkpt lat="49.00231" lon="1.97796">
        <ele>78</ele>
        <time>2020-06-21T08:32:30Z</time>
      </trkpt>
      <trkpt lat="49.00236" lon="1.97791">
        <ele>77</ele>
        <time>2020-06-21T08:32:34Z</time>
      </trkpt>
      <trkpt lat="49.00239" lon="1.97785">
        <ele>77</ele>
        <time>2020-06-21T08:32:38Z</time>
      </trkpt>
      <trkpt lat="49.00241" lon="1.97777">
        <ele>77</ele>
        <time>2020-06-21T08:32:42Z</time>
      </trkpt>
      <trkpt lat="49.00244" lon="1.97756">
        <ele>75</ele>
        <time>2020-06-21T08:32:54Z</time>
      </trkpt>
      <trkpt lat="49.00249" lon="1.97744">
        <ele>74</ele>
        <time>2020-06-21T08:33:02Z</time>
      </trkpt>
      <trkpt lat="49.00252" lon="1.97722">
        <ele>73</ele>
        <time>2020-06-21T08:33:14Z</time>
      </trkpt>
      <trkpt lat="49.00258" lon="1.977">
        <ele>72</ele>
        <time>2020-06-21T08:33:27Z</time>
      </trkpt>
      <trkpt lat="49.00262" lon="1.97694">
        <ele>72</ele>
        <time>2020-06-21T08:33:31Z</time>
      </trkpt>
      <trkpt lat="49.00265" lon="1.97681">
        <ele>71</ele>
        <time>2020-06-21T08:33:40Z</time>
      </trkpt>
      <trkpt lat="49.00264" lon="1.97673">
        <ele>70</ele>
        <time>2020-06-21T08:33:48Z</time>
      </trkpt>
      <trkpt lat="49.00265" lon="1.97666">
        <ele>70</ele>
        <time>2020-06-21T08:33:54Z</time>
      </trkpt>
      <trkpt lat="49.00272" lon="1.97653">
        <ele>70</ele>
        <time>2020-06-21T08:34:03Z</time>
      </trkpt>
      <trkpt lat="49.00274" lon="1.97646">
        <ele>69</ele>
        <time>2020-06-21T08:34:08Z</time>
      </trkpt>
      <trkpt lat="49.00274" lon="1.97639">
        <ele>69</ele>
        <time>2020-06-21T08:34:13Z</time>
      </trkpt>
      <trkpt lat="49.00272" lon="1.97632">
        <ele>69</ele>
        <time>2020-06-21T08:34:17Z</time>
      </trkpt>
      <trkpt lat="49.00275" lon="1.97624">
        <ele>68</ele>
        <time>2020-06-21T08:34:22Z</time>
      </trkpt>
      <trkpt lat="49.00279" lon="1.976">
        <ele>67</ele>
        <time>2020-06-21T08:34:35Z</time>
      </trkpt>
      <trkpt lat="49.00281" lon="1.97594">
        <ele>67</ele>
        <time>2020-06-21T08:34:39Z</time>
      </trkpt>
      <trkpt lat="49.00285" lon="1.97571">
        <ele>65</ele>
        <time>2020-06-21T08:34:52Z</time>
      </trkpt>
      <trkpt lat="49.00289" lon="1.97565">
        <ele>65</ele>
        <time>2020-06-21T08:34:56Z</time>
      </trkpt>
      <trkpt lat="49.00293" lon="1.97555">
        <ele>65</ele>
        <time>2020-06-21T08:35:01Z</time>
      </trkpt>
      <trkpt lat="49.00301" lon="1.97537">
        <ele>64</ele>
        <time>2020-06-21T08:35:14Z</time>
      </trkpt>
      <trkpt lat="49.00296" lon="1.97529">
        <ele>64</ele>
        <time>2020-06-21T08:35:36Z</time>
      </trkpt>
      <trkpt lat="49.00301" lon="1.97527">
        <ele>65</ele>
        <time>2020-06-21T08:36:00Z</time>
      </trkpt>
      <trkpt lat="49.00306" lon="1.97527">
        <ele>64</ele>
        <time>2020-06-21T08:36:05Z</time>
      </trkpt>
      <trkpt lat="49.00317" lon="1.97524">
        <ele>65</ele>
        <time>2020-06-21T08:36:14Z</time>
      </trkpt>
      <trkpt lat="49.00338" lon="1.97533">
        <ele>68</ele>
        <time>2020-06-21T08:36:34Z</time>
      </trkpt>
      <trkpt lat="49.00343" lon="1.97538">
        <ele>70</ele>
        <time>2020-06-21T08:36:41Z</time>
      </trkpt>
      <trkpt lat="49.00359" lon="1.97546">
        <ele>72</ele>
        <time>2020-06-21T08:36:58Z</time>
      </trkpt>
      <trkpt lat="49.00365" lon="1.97547">
        <ele>73</ele>
        <time>2020-06-21T08:37:03Z</time>
      </trkpt>
      <trkpt lat="49.00369" lon="1.9755">
        <ele>74</ele>
        <time>2020-06-21T08:37:06Z</time>
      </trkpt>
      <trkpt lat="49.00379" lon="1.97549">
        <ele>75</ele>
        <time>2020-06-21T08:37:13Z</time>
      </trkpt>
      <trkpt lat="49.00383" lon="1.97551">
        <ele>75</ele>
        <time>2020-06-21T08:37:16Z</time>
      </trkpt>
      <trkpt lat="49.00396" lon="1.9756">
        <ele>77</ele>
        <time>2020-06-21T08:37:28Z</time>
      </trkpt>
      <trkpt lat="49.00432" lon="1.97568">
        <ele>80</ele>
        <time>2020-06-21T08:38:01Z</time>
      </trkpt>
      <trkpt lat="49.00444" lon="1.97573">
        <ele>82</ele>
        <time>2020-06-21T08:38:17Z</time>
      </trkpt>
      <trkpt lat="49.0045" lon="1.97577">
        <ele>83</ele>
        <time>2020-06-21T08:38:22Z</time>
      </trkpt>
      <trkpt lat="49.00498" lon="1.97582">
        <ele>87</ele>
        <time>2020-06-21T08:38:58Z</time>
      </trkpt>
      <trkpt lat="49.00549" lon="1.97591">
        <ele>89</ele>
        <time>2020-06-21T08:39:40Z</time>
      </trkpt>
      <trkpt lat="49.00559" lon="1.97594">
        <ele>89</ele>
        <time>2020-06-21T08:39:46Z</time>
      </trkpt>
      <trkpt lat="49.00584" lon="1.97616">
        <ele>90</ele>
        <time>2020-06-21T08:40:07Z</time>
      </trkpt>
      <trkpt lat="49.00592" lon="1.97624">
        <ele>91</ele>
        <time>2020-06-21T08:40:14Z</time>
      </trkpt>
      <trkpt lat="49.00599" lon="1.97635">
        <ele>92</ele>
        <time>2020-06-21T08:40:26Z</time>
      </trkpt>
      <trkpt lat="49.00618" lon="1.97653">
        <ele>94</ele>
        <time>2020-06-21T08:40:46Z</time>
      </trkpt>
      <trkpt lat="49.00642" lon="1.97699">
        <ele>96</ele>
        <time>2020-06-21T08:41:18Z</time>
      </trkpt>
      <trkpt lat="49.00644" lon="1.97714">
        <ele>97</ele>
        <time>2020-06-21T08:41:28Z</time>
      </trkpt>
      <trkpt lat="49.00652" lon="1.9774">
        <ele>97</ele>
        <time>2020-06-21T08:41:44Z</time>
      </trkpt>
      <trkpt lat="49.00654" lon="1.97753">
        <ele>97</ele>
        <time>2020-06-21T08:41:53Z</time>
      </trkpt>
      <trkpt lat="49.00659" lon="1.97765">
        <ele>97</ele>
        <time>2020-06-21T08:42:00Z</time>
      </trkpt>
      <trkpt lat="49.00674" lon="1.97785">
        <ele>96</ele>
        <time>2020-06-21T08:42:14Z</time>
      </trkpt>
      <trkpt lat="49.00678" lon="1.97799">
        <ele>97</ele>
        <time>2020-06-21T08:42:22Z</time>
      </trkpt>
      <trkpt lat="49.00678" lon="1.97813">
        <ele>97</ele>
        <time>2020-06-21T08:42:29Z</time>
      </trkpt>
      <trkpt lat="49.0068" lon="1.97826">
        <ele>97</ele>
        <time>2020-06-21T08:42:37Z</time>
      </trkpt>
      <trkpt lat="49.00686" lon="1.97838">
        <ele>97</ele>
        <time>2020-06-21T08:42:44Z</time>
      </trkpt>
      <trkpt lat="49.00689" lon="1.97851">
        <ele>97</ele>
        <time>2020-06-21T08:42:51Z</time>
      </trkpt>
      <trkpt lat="49.00685" lon="1.97868">
        <ele>97</ele>
        <time>2020-06-21T08:43:02Z</time>
      </trkpt>
      <trkpt lat="49.00686" lon="1.97882">
        <ele>96</ele>
        <time>2020-06-21T08:43:11Z</time>
      </trkpt>
      <trkpt lat="49.00689" lon="1.97894">
        <ele>95</ele>
        <time>2020-06-21T08:43:19Z</time>
      </trkpt>
      <trkpt lat="49.00685" lon="1.97909">
        <ele>94</ele>
        <time>2020-06-21T08:43:27Z</time>
      </trkpt>
      <trkpt lat="49.00679" lon="1.97918">
        <ele>93</ele>
        <time>2020-06-21T08:43:33Z</time>
      </trkpt>
      <trkpt lat="49.00673" lon="1.97947">
        <ele>90</ele>
        <time>2020-06-21T08:43:50Z</time>
      </trkpt>
      <trkpt lat="49.00676" lon="1.97963">
        <ele>89</ele>
        <time>2020-06-21T08:43:59Z</time>
      </trkpt>
      <trkpt lat="49.00683" lon="1.97972">
        <ele>88</ele>
        <time>2020-06-21T08:44:04Z</time>
      </trkpt>
      <trkpt lat="49.00693" lon="1.97977">
        <ele>88</ele>
        <time>2020-06-21T08:44:11Z</time>
      </trkpt>
      <trkpt lat="49.00704" lon="1.97978">
        <ele>87</ele>
        <time>2020-06-21T08:44:15Z</time>
      </trkpt>
      <trkpt lat="49.00712" lon="1.97982">
        <ele>87</ele>
        <time>2020-06-21T08:44:21Z</time>
      </trkpt>
      <trkpt lat="49.00723" lon="1.97975">
        <ele>86</ele>
        <time>2020-06-21T08:44:24Z</time>
      </trkpt>
      <trkpt lat="49.00738" lon="1.97969">
        <ele>85</ele>
        <time>2020-06-21T08:44:32Z</time>
      </trkpt>
      <trkpt lat="49.00755" lon="1.97959">
        <ele>83</ele>
        <time>2020-06-21T08:44:49Z</time>
      </trkpt>
      <trkpt lat="49.00764" lon="1.9796">
        <ele>83</ele>
        <time>2020-06-21T08:44:54Z</time>
      </trkpt>
      <trkpt lat="49.00773" lon="1.97953">
        <ele>82</ele>
        <time>2020-06-21T08:45:00Z</time>
      </trkpt>
      <trkpt lat="49.00788" lon="1.97933">
        <ele>81</ele>
        <time>2020-06-21T08:45:16Z</time>
      </trkpt>
      <trkpt lat="49.00796" lon="1.97928">
        <ele>80</ele>
        <time>2020-06-21T08:45:22Z</time>
      </trkpt>
      <trkpt lat="49.00813" lon="1.97915">
        <ele>79</ele>
        <time>2020-06-21T08:45:36Z</time>
      </trkpt>
      <trkpt lat="49.00823" lon="1.97872">
        <ele>76</ele>
        <time>2020-06-21T08:45:59Z</time>
      </trkpt>
      <trkpt lat="49.00827" lon="1.97845">
        <ele>75</ele>
        <time>2020-06-21T08:46:10Z</time>
      </trkpt>
      <trkpt lat="49.00823" lon="1.97822">
        <ele>74</ele>
        <time>2020-06-21T08:46:21Z</time>
      </trkpt>
      <trkpt lat="49.00818" lon="1.97811">
        <ele>73</ele>
        <time>2020-06-21T08:46:27Z</time>
      </trkpt>
      <trkpt lat="49.00814" lon="1.97806">
        <ele>73</ele>
        <time>2020-06-21T08:46:31Z</time>
      </trkpt>
      <trkpt lat="49.00811" lon="1.97784">
        <ele>72</ele>
        <time>2020-06-21T08:46:42Z</time>
      </trkpt>
      <trkpt lat="49.00816" lon="1.97777">
        <ele>71</ele>
        <time>2020-06-21T08:46:50Z</time>
      </trkpt>
      <trkpt lat="49.00834" lon="1.97777">
        <ele>74</ele>
        <time>2020-06-21T08:47:08Z</time>
      </trkpt>
      <trkpt lat="49.0085" lon="1.97774">
        <ele>75</ele>
        <time>2020-06-21T08:47:21Z</time>
      </trkpt>
      <trkpt lat="49.00855" lon="1.97776">
        <ele>76</ele>
        <time>2020-06-21T08:47:26Z</time>
      </trkpt>
      <trkpt lat="49.0086" lon="1.97774">
        <ele>76</ele>
        <time>2020-06-21T08:47:29Z</time>
      </trkpt>
      <trkpt lat="49.00864" lon="1.9777">
        <ele>76</ele>
        <time>2020-06-21T08:47:32Z</time>
      </trkpt>
      <trkpt lat="49.00867" lon="1.97764">
        <ele>77</ele>
        <time>2020-06-21T08:47:37Z</time>
      </trkpt>
      <trkpt lat="49.00898" lon="1.97762">
        <ele>80</ele>
        <time>2020-06-21T08:48:01Z</time>
      </trkpt>
      <trkpt lat="49.00902" lon="1.97759">
        <ele>80</ele>
        <time>2020-06-21T08:48:05Z</time>
      </trkpt>
      <trkpt lat="49.00927" lon="1.9775">
        <ele>82</ele>
        <time>2020-06-21T08:48:25Z</time>
      </trkpt>
      <trkpt lat="49.00936" lon="1.97752">
        <ele>82</ele>
        <time>2020-06-21T08:48:33Z</time>
      </trkpt>
      <trkpt lat="49.00946" lon="1.97752">
        <ele>83</ele>
        <time>2020-06-21T08:48:41Z</time>
      </trkpt>
      <trkpt lat="49.00956" lon="1.97756">
        <ele>84</ele>
        <time>2020-06-21T08:48:49Z</time>
      </trkpt>
      <trkpt lat="49.00974" lon="1.97753">
        <ele>85</ele>
        <time>2020-06-21T08:49:02Z</time>
      </trkpt>
      <trkpt lat="49.01016" lon="1.97753">
        <ele>88</ele>
        <time>2020-06-21T08:49:33Z</time>
      </trkpt>
      <trkpt lat="49.01056" lon="1.97747">
        <ele>91</ele>
        <time>2020-06-21T08:50:07Z</time>
      </trkpt>
      <trkpt lat="49.01061" lon="1.97746">
        <ele>92</ele>
        <time>2020-06-21T08:50:11Z</time>
      </trkpt>
      <trkpt lat="49.01066" lon="1.97745">
        <ele>92</ele>
        <time>2020-06-21T08:50:16Z</time>
      </trkpt>
      <trkpt lat="49.01076" lon="1.97743">
        <ele>93</ele>
        <time>2020-06-21T08:50:23Z</time>
      </trkpt>
      <trkpt lat="49.01081" lon="1.97741">
        <ele>93</ele>
        <time>2020-06-21T08:50:28Z</time>
      </trkpt>
      <trkpt lat="49.01091" lon="1.97743">
        <ele>94</ele>
        <time>2020-06-21T08:50:37Z</time>
      </trkpt>
      <trkpt lat="49.01102" lon="1.9774">
        <ele>95</ele>
        <time>2020-06-21T08:50:45Z</time>
      </trkpt>
      <trkpt lat="49.01107" lon="1.97736">
        <ele>95</ele>
        <time>2020-06-21T08:50:49Z</time>
      </trkpt>
      <trkpt lat="49.01109" lon="1.9773">
        <ele>95</ele>
        <time>2020-06-21T08:50:53Z</time>
      </trkpt>
      <trkpt lat="49.01114" lon="1.97722">
        <ele>96</ele>
        <time>2020-06-21T08:51:01Z</time>
      </trkpt>
      <trkpt lat="49.01117" lon="1.97711">
        <ele>97</ele>
        <time>2020-06-21T08:51:09Z</time>
      </trkpt>
      <trkpt lat="49.01118" lon="1.97703">
        <ele>98</ele>
        <time>2020-06-21T08:51:14Z</time>
      </trkpt>
      <trkpt lat="49.0112" lon="1.97696">
        <ele>99</ele>
        <time>2020-06-21T08:51:19Z</time>
      </trkpt>
      <trkpt lat="49.01147" lon="1.97653">
        <ele>108</ele>
        <time>2020-06-21T08:51:57Z</time>
      </trkpt>
      <trkpt lat="49.0114" lon="1.97642">
        <ele>110</ele>
        <time>2020-06-21T08:52:15Z</time>
      </trkpt>
      <trkpt lat="49.0112" lon="1.97623">
        <ele>112</ele>
        <time>2020-06-21T08:52:40Z</time>
      </trkpt>
      <trkpt lat="49.0112" lon="1.97607">
        <ele>111</ele>
        <time>2020-06-21T08:53:18Z</time>
      </trkpt>
      <trkpt lat="49.01105" lon="1.97611">
        <ele>111</ele>
        <time>2020-06-21T08:53:31Z</time>
      </trkpt>
      <trkpt lat="49.01101" lon="1.97607">
        <ele>111</ele>
        <time>2020-06-21T08:53:33Z</time>
      </trkpt>
      <trkpt lat="49.01075" lon="1.97593">
        <ele>111</ele>
        <time>2020-06-21T08:53:56Z</time>
      </trkpt>
      <trkpt lat="49.01069" lon="1.97592">
        <ele>111</ele>
        <time>2020-06-21T08:54:00Z</time>
      </trkpt>
      <trkpt lat="49.01064" lon="1.97589">
        <ele>111</ele>
        <time>2020-06-21T08:54:04Z</time>
      </trkpt>
      <trkpt lat="49.01057" lon="1.97583">
        <ele>110</ele>
        <time>2020-06-21T08:54:11Z</time>
      </trkpt>
      <trkpt lat="49.0105" lon="1.97574">
        <ele>110</ele>
        <time>2020-06-21T08:54:19Z</time>
      </trkpt>
      <trkpt lat="49.01019" lon="1.97556">
        <ele>110</ele>
        <time>2020-06-21T08:54:42Z</time>
      </trkpt>
      <trkpt lat="49.01016" lon="1.97552">
        <ele>110</ele>
        <time>2020-06-21T08:54:45Z</time>
      </trkpt>
      <trkpt lat="49.01006" lon="1.97545">
        <ele>110</ele>
        <time>2020-06-21T08:54:53Z</time>
      </trkpt>
      <trkpt lat="49.01001" lon="1.9754">
        <ele>110</ele>
        <time>2020-06-21T08:54:57Z</time>
      </trkpt>
      <trkpt lat="49.00992" lon="1.97535">
        <ele>109</ele>
        <time>2020-06-21T08:55:05Z</time>
      </trkpt>
      <trkpt lat="49.00982" lon="1.9753">
        <ele>109</ele>
        <time>2020-06-21T08:55:13Z</time>
      </trkpt>
      <trkpt lat="49.00972" lon="1.97524">
        <ele>109</ele>
        <time>2020-06-21T08:55:20Z</time>
      </trkpt>
      <trkpt lat="49.00959" lon="1.97508">
        <ele>109</ele>
        <time>2020-06-21T08:55:32Z</time>
      </trkpt>
      <trkpt lat="49.0095" lon="1.97502">
        <ele>109</ele>
        <time>2020-06-21T08:55:39Z</time>
      </trkpt>
      <trkpt lat="49.00939" lon="1.97487">
        <ele>109</ele>
        <time>2020-06-21T08:55:51Z</time>
      </trkpt>
      <trkpt lat="49.00937" lon="1.9748">
        <ele>109</ele>
        <time>2020-06-21T08:55:56Z</time>
      </trkpt>
      <trkpt lat="49.00905" lon="1.97442">
        <ele>108</ele>
        <time>2020-06-21T08:56:28Z</time>
      </trkpt>
      <trkpt lat="49.00893" lon="1.97427">
        <ele>106</ele>
        <time>2020-06-21T08:56:40Z</time>
      </trkpt>
      <trkpt lat="49.00885" lon="1.97415">
        <ele>106</ele>
        <time>2020-06-21T08:56:48Z</time>
      </trkpt>
      <trkpt lat="49.00866" lon="1.9739">
        <ele>104</ele>
        <time>2020-06-21T08:57:08Z</time>
      </trkpt>
      <trkpt lat="49.00863" lon="1.97383">
        <ele>104</ele>
        <time>2020-06-21T08:57:12Z</time>
      </trkpt>
      <trkpt lat="49.00854" lon="1.97375">
        <ele>104</ele>
        <time>2020-06-21T08:57:19Z</time>
      </trkpt>
      <trkpt lat="49.00851" lon="1.97369">
        <ele>103</ele>
        <time>2020-06-21T08:57:23Z</time>
      </trkpt>
      <trkpt lat="49.00849" lon="1.97363">
        <ele>103</ele>
        <time>2020-06-21T08:57:26Z</time>
      </trkpt>
      <trkpt lat="49.00837" lon="1.97337">
        <ele>103</ele>
        <time>2020-06-21T08:57:43Z</time>
      </trkpt>
      <trkpt lat="49.00831" lon="1.97335">
        <ele>103</ele>
        <time>2020-06-21T08:57:47Z</time>
      </trkpt>
      <trkpt lat="49.00826" lon="1.97335">
        <ele>102</ele>
        <time>2020-06-21T08:57:51Z</time>
      </trkpt>
      <trkpt lat="49.00814" lon="1.97317">
        <ele>102</ele>
        <time>2020-06-21T08:58:04Z</time>
      </trkpt>
      <trkpt lat="49.00809" lon="1.97314">
        <ele>102</ele>
        <time>2020-06-21T08:58:08Z</time>
      </trkpt>
      <trkpt lat="49.00788" lon="1.97279">
        <ele>102</ele>
        <time>2020-06-21T08:58:33Z</time>
      </trkpt>
      <trkpt lat="49.00782" lon="1.97274">
        <ele>102</ele>
        <time>2020-06-21T08:58:43Z</time>
      </trkpt>
      <trkpt lat="49.00784" lon="1.97282">
        <ele>102</ele>
        <time>2020-06-21T08:59:25Z</time>
      </trkpt>
      <trkpt lat="49.00811" lon="1.97326">
        <ele>102</ele>
        <time>2020-06-21T08:59:59Z</time>
      </trkpt>
      <trkpt lat="49.00838" lon="1.97364">
        <ele>102</ele>
        <time>2020-06-21T09:00:27Z</time>
      </trkpt>
      <trkpt lat="49.00841" lon="1.9737">
        <ele>102</ele>
        <time>2020-06-21T09:00:31Z</time>
      </trkpt>
      <trkpt lat="49.00845" lon="1.97376">
        <ele>102</ele>
        <time>2020-06-21T09:00:35Z</time>
      </trkpt>
      <trkpt lat="49.00849" lon="1.9738">
        <ele>103</ele>
        <time>2020-06-21T09:00:39Z</time>
      </trkpt>
      <trkpt lat="49.00862" lon="1.97398">
        <ele>103</ele>
        <time>2020-06-21T09:00:53Z</time>
      </trkpt>
      <trkpt lat="49.00887" lon="1.97428">
        <ele>105</ele>
        <time>2020-06-21T09:01:17Z</time>
      </trkpt>
      <trkpt lat="49.0089" lon="1.97434">
        <ele>105</ele>
        <time>2020-06-21T09:01:21Z</time>
      </trkpt>
      <trkpt lat="49.00894" lon="1.97437">
        <ele>105</ele>
        <time>2020-06-21T09:01:25Z</time>
      </trkpt>
      <trkpt lat="49.00925" lon="1.97478">
        <ele>107</ele>
        <time>2020-06-21T09:01:58Z</time>
      </trkpt>
      <trkpt lat="49.00939" lon="1.9749">
        <ele>107</ele>
        <time>2020-06-21T09:02:11Z</time>
      </trkpt>
      <trkpt lat="49.00964" lon="1.9753">
        <ele>107</ele>
        <time>2020-06-21T09:02:38Z</time>
      </trkpt>
      <trkpt lat="49.00969" lon="1.97534">
        <ele>107</ele>
        <time>2020-06-21T09:02:42Z</time>
      </trkpt>
      <trkpt lat="49.00994" lon="1.97546">
        <ele>107</ele>
        <time>2020-06-21T09:03:02Z</time>
      </trkpt>
      <trkpt lat="49.01021" lon="1.9757">
        <ele>108</ele>
        <time>2020-06-21T09:03:26Z</time>
      </trkpt>
      <trkpt lat="49.01037" lon="1.97575">
        <ele>108</ele>
        <time>2020-06-21T09:03:40Z</time>
      </trkpt>
      <trkpt lat="49.01073" lon="1.97603">
        <ele>108</ele>
        <time>2020-06-21T09:04:12Z</time>
      </trkpt>
      <trkpt lat="49.01097" lon="1.97618">
        <ele>109</ele>
        <time>2020-06-21T09:04:35Z</time>
      </trkpt>
      <trkpt lat="49.01102" lon="1.97619">
        <ele>108</ele>
        <time>2020-06-21T09:04:39Z</time>
      </trkpt>
      <trkpt lat="49.01107" lon="1.97617">
        <ele>109</ele>
        <time>2020-06-21T09:04:43Z</time>
      </trkpt>
      <trkpt lat="49.01112" lon="1.97619">
        <ele>109</ele>
        <time>2020-06-21T09:04:48Z</time>
      </trkpt>
      <trkpt lat="49.01121" lon="1.97625">
        <ele>109</ele>
        <time>2020-06-21T09:04:56Z</time>
      </trkpt>
      <trkpt lat="49.01127" lon="1.97632">
        <ele>105</ele>
        <time>2020-06-21T09:09:42Z</time>
      </trkpt>
      <trkpt lat="49.01142" lon="1.97641">
        <ele>104</ele>
        <time>2020-06-21T09:10:03Z</time>
      </trkpt>
      <trkpt lat="49.01141" lon="1.97652">
        <ele>102</ele>
        <time>2020-06-21T09:10:15Z</time>
      </trkpt>
      <trkpt lat="49.01134" lon="1.9767">
        <ele>98</ele>
        <time>2020-06-21T09:10:33Z</time>
      </trkpt>
      <trkpt lat="49.01131" lon="1.97675">
        <ele>98</ele>
        <time>2020-06-21T09:10:37Z</time>
      </trkpt>
      <trkpt lat="49.01113" lon="1.97701">
        <ele>93</ele>
        <time>2020-06-21T09:10:57Z</time>
      </trkpt>
      <trkpt lat="49.01105" lon="1.97718">
        <ele>90</ele>
        <time>2020-06-21T09:11:09Z</time>
      </trkpt>
      <trkpt lat="49.01106" lon="1.97725">
        <ele>89</ele>
        <time>2020-06-21T09:11:13Z</time>
      </trkpt>
      <trkpt lat="49.01112" lon="1.97726">
        <ele>89</ele>
        <time>2020-06-21T09:11:18Z</time>
      </trkpt>
      <trkpt lat="49.01151" lon="1.97726">
        <ele>93</ele>
        <time>2020-06-21T09:11:51Z</time>
      </trkpt>
      <trkpt lat="49.01196" lon="1.97716">
        <ele>96</ele>
        <time>2020-06-21T09:12:25Z</time>
      </trkpt>
      <trkpt lat="49.01202" lon="1.97714">
        <ele>96</ele>
        <time>2020-06-21T09:12:29Z</time>
      </trkpt>
      <trkpt lat="49.01225" lon="1.97701">
        <ele>97</ele>
        <time>2020-06-21T09:12:49Z</time>
      </trkpt>
      <trkpt lat="49.01231" lon="1.97701">
        <ele>98</ele>
        <time>2020-06-21T09:12:56Z</time>
      </trkpt>
      <trkpt lat="49.01241" lon="1.97694">
        <ele>99</ele>
        <time>2020-06-21T09:13:04Z</time>
      </trkpt>
      <trkpt lat="49.01256" lon="1.97689">
        <ele>100</ele>
        <time>2020-06-21T09:13:15Z</time>
      </trkpt>
      <trkpt lat="49.01271" lon="1.97691">
        <ele>102</ele>
        <time>2020-06-21T09:13:28Z</time>
      </trkpt>
      <trkpt lat="49.01276" lon="1.97693">
        <ele>102</ele>
        <time>2020-06-21T09:13:33Z</time>
      </trkpt>
      <trkpt lat="49.01298" lon="1.97689">
        <ele>104</ele>
        <time>2020-06-21T09:13:49Z</time>
      </trkpt>
      <trkpt lat="49.01308" lon="1.97681">
        <ele>104</ele>
        <time>2020-06-21T09:13:57Z</time>
      </trkpt>
      <trkpt lat="49.01313" lon="1.9768">
        <ele>105</ele>
        <time>2020-06-21T09:14:02Z</time>
      </trkpt>
      <trkpt lat="49.01317" lon="1.97676">
        <ele>105</ele>
        <time>2020-06-21T09:14:06Z</time>
      </trkpt>
      <trkpt lat="49.01321" lon="1.9767">
        <ele>106</ele>
        <time>2020-06-21T09:14:10Z</time>
      </trkpt>
      <trkpt lat="49.01335" lon="1.97661">
        <ele>107</ele>
        <time>2020-06-21T09:14:21Z</time>
      </trkpt>
      <trkpt lat="49.0134" lon="1.97659">
        <ele>107</ele>
        <time>2020-06-21T09:14:25Z</time>
      </trkpt>
      <trkpt lat="49.01358" lon="1.97633">
        <ele>110</ele>
        <time>2020-06-21T09:14:45Z</time>
      </trkpt>
      <trkpt lat="49.01362" lon="1.9762">
        <ele>111</ele>
        <time>2020-06-21T09:14:54Z</time>
      </trkpt>
      <trkpt lat="49.01367" lon="1.97615">
        <ele>112</ele>
        <time>2020-06-21T09:14:58Z</time>
      </trkpt>
      <trkpt lat="49.01378" lon="1.9759">
        <ele>114</ele>
        <time>2020-06-21T09:15:14Z</time>
      </trkpt>
      <trkpt lat="49.01385" lon="1.97581">
        <ele>115</ele>
        <time>2020-06-21T09:15:21Z</time>
      </trkpt>
      <trkpt lat="49.0139" lon="1.97569">
        <ele>115</ele>
        <time>2020-06-21T09:15:29Z</time>
      </trkpt>
      <trkpt lat="49.01395" lon="1.97542">
        <ele>117</ele>
        <time>2020-06-21T09:15:43Z</time>
      </trkpt>
      <trkpt lat="49.01401" lon="1.97529">
        <ele>118</ele>
        <time>2020-06-21T09:15:51Z</time>
      </trkpt>
      <trkpt lat="49.01408" lon="1.97522">
        <ele>119</ele>
        <time>2020-06-21T09:15:59Z</time>
      </trkpt>
      <trkpt lat="49.01419" lon="1.9748">
        <ele>123</ele>
        <time>2020-06-21T09:16:26Z</time>
      </trkpt>
      <trkpt lat="49.01427" lon="1.97473">
        <ele>124</ele>
        <time>2020-06-21T09:16:34Z</time>
      </trkpt>
      <trkpt lat="49.01433" lon="1.97461">
        <ele>124</ele>
        <time>2020-06-21T09:16:41Z</time>
      </trkpt>
      <trkpt lat="49.01433" lon="1.97447">
        <ele>126</ele>
        <time>2020-06-21T09:16:49Z</time>
      </trkpt>
      <trkpt lat="49.01418" lon="1.97407">
        <ele>129</ele>
        <time>2020-06-21T09:17:19Z</time>
      </trkpt>
      <trkpt lat="49.01414" lon="1.97391">
        <ele>130</ele>
        <time>2020-06-21T09:17:30Z</time>
      </trkpt>
      <trkpt lat="49.01392" lon="1.97345">
        <ele>133</ele>
        <time>2020-06-21T09:18:01Z</time>
      </trkpt>
      <trkpt lat="49.0136" lon="1.97292">
        <ele>135</ele>
        <time>2020-06-21T09:18:36Z</time>
      </trkpt>
      <trkpt lat="49.01356" lon="1.9728">
        <ele>135</ele>
        <time>2020-06-21T09:18:44Z</time>
      </trkpt>
      <trkpt lat="49.01346" lon="1.97252">
        <ele>135</ele>
        <time>2020-06-21T09:19:08Z</time>
      </trkpt>
      <trkpt lat="49.01335" lon="1.9725">
        <ele>134</ele>
        <time>2020-06-21T09:19:22Z</time>
      </trkpt>
      <trkpt lat="49.01332" lon="1.97264">
        <ele>134</ele>
        <time>2020-06-21T09:20:04Z</time>
      </trkpt>
      <trkpt lat="49.0133" lon="1.97265">
        <ele>134</ele>
        <time>2020-06-21T09:23:22Z</time>
      </trkpt>
      <trkpt lat="49.01326" lon="1.9727">
        <ele>134</ele>
        <time>2020-06-21T09:23:28Z</time>
      </trkpt>
      <trkpt lat="49.01335" lon="1.97255">
        <ele>134</ele>
        <time>2020-06-21T09:25:03Z</time>
      </trkpt>
      <trkpt lat="49.01355" lon="1.97201">
        <ele>132</ele>
        <time>2020-06-21T09:25:38Z</time>
      </trkpt>
      <trkpt lat="49.01363" lon="1.97189">
        <ele>132</ele>
        <time>2020-06-21T09:25:44Z</time>
      </trkpt>
      <trkpt lat="49.01367" lon="1.97177">
        <ele>132</ele>
        <time>2020-06-21T09:25:49Z</time>
      </trkpt>
      <trkpt lat="49.0137" lon="1.97163">
        <ele>132</ele>
        <time>2020-06-21T09:25:57Z</time>
      </trkpt>
      <trkpt lat="49.01371" lon="1.97148">
        <ele>131</ele>
        <time>2020-06-21T09:26:04Z</time>
      </trkpt>
      <trkpt lat="49.01378" lon="1.97137">
        <ele>131</ele>
        <time>2020-06-21T09:26:12Z</time>
      </trkpt>
      <trkpt lat="49.01394" lon="1.97122">
        <ele>130</ele>
        <time>2020-06-21T09:26:28Z</time>
      </trkpt>
      <trkpt lat="49.01392" lon="1.971">
        <ele>130</ele>
        <time>2020-06-21T09:26:51Z</time>
      </trkpt>
      <trkpt lat="49.01398" lon="1.97085">
        <ele>129</ele>
        <time>2020-06-21T09:27:09Z</time>
      </trkpt>
      <trkpt lat="49.01406" lon="1.97067">
        <ele>129</ele>
        <time>2020-06-21T09:27:43Z</time>
      </trkpt>
      <trkpt lat="49.01416" lon="1.97058">
        <ele>130</ele>
        <time>2020-06-21T09:27:53Z</time>
      </trkpt>
      <trkpt lat="49.01422" lon="1.97046">
        <ele>129</ele>
        <time>2020-06-21T09:28:06Z</time>
      </trkpt>
      <trkpt lat="49.01425" lon="1.97033">
        <ele>129</ele>
        <time>2020-06-21T09:28:36Z</time>
      </trkpt>
      <trkpt lat="49.01434" lon="1.9702">
        <ele>131</ele>
        <time>2020-06-21T09:29:06Z</time>
      </trkpt>
      <trkpt lat="49.01437" lon="1.96998">
        <ele>129</ele>
        <time>2020-06-21T09:29:31Z</time>
      </trkpt>
      <trkpt lat="49.01439" lon="1.96978">
        <ele>129</ele>
        <time>2020-06-21T09:29:46Z</time>
      </trkpt>
      <trkpt lat="49.01448" lon="1.96968">
        <ele>128</ele>
        <time>2020-06-21T09:30:00Z</time>
      </trkpt>
      <trkpt lat="49.01455" lon="1.96949">
        <ele>128</ele>
        <time>2020-06-21T09:30:15Z</time>
      </trkpt>
      <trkpt lat="49.01455" lon="1.96922">
        <ele>127</ele>
        <time>2020-06-21T09:30:30Z</time>
      </trkpt>
      <trkpt lat="49.01466" lon="1.96893">
        <ele>126</ele>
        <time>2020-06-21T09:30:53Z</time>
      </trkpt>
      <trkpt lat="49.01466" lon="1.96878">
        <ele>126</ele>
        <time>2020-06-21T09:30:59Z</time>
      </trkpt>
      <trkpt lat="49.01474" lon="1.96863">
        <ele>125</ele>
        <time>2020-06-21T09:31:06Z</time>
      </trkpt>
      <trkpt lat="49.01485" lon="1.96838">
        <ele>124</ele>
        <time>2020-06-21T09:31:27Z</time>
      </trkpt>
      <trkpt lat="49.01486" lon="1.96825">
        <ele>124</ele>
        <time>2020-06-21T09:31:33Z</time>
      </trkpt>
      <trkpt lat="49.01491" lon="1.96812">
        <ele>124</ele>
        <time>2020-06-21T09:31:40Z</time>
      </trkpt>
      <trkpt lat="49.01505" lon="1.96792">
        <ele>124</ele>
        <time>2020-06-21T09:31:56Z</time>
      </trkpt>
      <trkpt lat="49.01514" lon="1.96788">
        <ele>124</ele>
        <time>2020-06-21T09:32:03Z</time>
      </trkpt>
      <trkpt lat="49.01529" lon="1.9677">
        <ele>124</ele>
        <time>2020-06-21T09:32:18Z</time>
      </trkpt>
      <trkpt lat="49.01566" lon="1.96749">
        <ele>125</ele>
        <time>2020-06-21T09:32:45Z</time>
      </trkpt>
      <trkpt lat="49.01574" lon="1.96741">
        <ele>125</ele>
        <time>2020-06-21T09:32:52Z</time>
      </trkpt>
      <trkpt lat="49.01588" lon="1.96721">
        <ele>125</ele>
        <time>2020-06-21T09:33:04Z</time>
      </trkpt>
      <trkpt lat="49.01597" lon="1.96715">
        <ele>126</ele>
        <time>2020-06-21T09:33:10Z</time>
      </trkpt>
      <trkpt lat="49.016" lon="1.96709">
        <ele>126</ele>
        <time>2020-06-21T09:33:14Z</time>
      </trkpt>
      <trkpt lat="49.01603" lon="1.96701">
        <ele>126</ele>
        <time>2020-06-21T09:33:18Z</time>
      </trkpt>
      <trkpt lat="49.01603" lon="1.96668">
        <ele>126</ele>
        <time>2020-06-21T09:33:32Z</time>
      </trkpt>
      <trkpt lat="49.01608" lon="1.96655">
        <ele>126</ele>
        <time>2020-06-21T09:33:39Z</time>
      </trkpt>
      <trkpt lat="49.01612" lon="1.96648">
        <ele>126</ele>
        <time>2020-06-21T09:33:43Z</time>
      </trkpt>
      <trkpt lat="49.01617" lon="1.96634">
        <ele>126</ele>
        <time>2020-06-21T09:33:51Z</time>
      </trkpt>
      <trkpt lat="49.01652" lon="1.96593">
        <ele>126</ele>
        <time>2020-06-21T09:34:21Z</time>
      </trkpt>
      <trkpt lat="49.01659" lon="1.9657">
        <ele>126</ele>
        <time>2020-06-21T09:34:33Z</time>
      </trkpt>
      <trkpt lat="49.01666" lon="1.96557">
        <ele>126</ele>
        <time>2020-06-21T09:34:41Z</time>
      </trkpt>
      <trkpt lat="49.01684" lon="1.96496">
        <ele>125</ele>
        <time>2020-06-21T09:35:12Z</time>
      </trkpt>
      <trkpt lat="49.01682" lon="1.96471">
        <ele>125</ele>
        <time>2020-06-21T09:35:23Z</time>
      </trkpt>
      <trkpt lat="49.01681" lon="1.96465">
        <ele>125</ele>
        <time>2020-06-21T09:35:40Z</time>
      </trkpt>
      <trkpt lat="49.01682" lon="1.9646">
        <ele>124</ele>
        <time>2020-06-21T09:36:52Z</time>
      </trkpt>
      <trkpt lat="49.01677" lon="1.96435">
        <ele>124</ele>
        <time>2020-06-21T09:37:10Z</time>
      </trkpt>
      <trkpt lat="49.01674" lon="1.96404">
        <ele>124</ele>
        <time>2020-06-21T09:37:25Z</time>
      </trkpt>
      <trkpt lat="49.01678" lon="1.96389">
        <ele>124</ele>
        <time>2020-06-21T09:37:32Z</time>
      </trkpt>
      <trkpt lat="49.01683" lon="1.96375">
        <ele>124</ele>
        <time>2020-06-21T09:37:39Z</time>
      </trkpt>
      <trkpt lat="49.01685" lon="1.96353">
        <ele>124</ele>
        <time>2020-06-21T09:37:51Z</time>
      </trkpt>
      <trkpt lat="49.01687" lon="1.96345">
        <ele>124</ele>
        <time>2020-06-21T09:37:55Z</time>
      </trkpt>
      <trkpt lat="49.01686" lon="1.9633">
        <ele>124</ele>
        <time>2020-06-21T09:38:03Z</time>
      </trkpt>
      <trkpt lat="49.01686" lon="1.96316">
        <ele>124</ele>
        <time>2020-06-21T09:38:11Z</time>
      </trkpt>
      <trkpt lat="49.01684" lon="1.96251">
        <ele>125</ele>
        <time>2020-06-21T09:38:44Z</time>
      </trkpt>
      <trkpt lat="49.01678" lon="1.96212">
        <ele>126</ele>
        <time>2020-06-21T09:39:04Z</time>
      </trkpt>
      <trkpt lat="49.01678" lon="1.96205">
        <ele>126</ele>
        <time>2020-06-21T09:39:08Z</time>
      </trkpt>
      <trkpt lat="49.01679" lon="1.96196">
        <ele>126</ele>
        <time>2020-06-21T09:39:12Z</time>
      </trkpt>
      <trkpt lat="49.01677" lon="1.96174">
        <ele>127</ele>
        <time>2020-06-21T09:39:25Z</time>
      </trkpt>
      <trkpt lat="49.01678" lon="1.96166">
        <ele>127</ele>
        <time>2020-06-21T09:39:30Z</time>
      </trkpt>
      <trkpt lat="49.01672" lon="1.96128">
        <ele>127</ele>
        <time>2020-06-21T09:39:50Z</time>
      </trkpt>
      <trkpt lat="49.01671" lon="1.96104">
        <ele>128</ele>
        <time>2020-06-21T09:40:02Z</time>
      </trkpt>
      <trkpt lat="49.01669" lon="1.96097">
        <ele>128</ele>
        <time>2020-06-21T09:40:07Z</time>
      </trkpt>
      <trkpt lat="49.0167" lon="1.96088">
        <ele>128</ele>
        <time>2020-06-21T09:40:12Z</time>
      </trkpt>
      <trkpt lat="49.01671" lon="1.96081">
        <ele>129</ele>
        <time>2020-06-21T09:40:17Z</time>
      </trkpt>
      <trkpt lat="49.01674" lon="1.96067">
        <ele>129</ele>
        <time>2020-06-21T09:40:25Z</time>
      </trkpt>
      <trkpt lat="49.01674" lon="1.96042">
        <ele>130</ele>
        <time>2020-06-21T09:40:37Z</time>
      </trkpt>
      <trkpt lat="49.01676" lon="1.96027">
        <ele>130</ele>
        <time>2020-06-21T09:40:45Z</time>
      </trkpt>
      <trkpt lat="49.01679" lon="1.96005">
        <ele>132</ele>
        <time>2020-06-21T09:40:57Z</time>
      </trkpt>
      <trkpt lat="49.01678" lon="1.95997">
        <ele>132</ele>
        <time>2020-06-21T09:41:01Z</time>
      </trkpt>
      <trkpt lat="49.01678" lon="1.95988">
        <ele>132</ele>
        <time>2020-06-21T09:41:05Z</time>
      </trkpt>
      <trkpt lat="49.01676" lon="1.95974">
        <ele>133</ele>
        <time>2020-06-21T09:41:13Z</time>
      </trkpt>
      <trkpt lat="49.01678" lon="1.95965">
        <ele>133</ele>
        <time>2020-06-21T09:41:17Z</time>
      </trkpt>
      <trkpt lat="49.0168" lon="1.95958">
        <ele>133</ele>
        <time>2020-06-21T09:41:20Z</time>
      </trkpt>
      <trkpt lat="49.01683" lon="1.95936">
        <ele>133</ele>
        <time>2020-06-21T09:41:32Z</time>
      </trkpt>
      <trkpt lat="49.01681" lon="1.95921">
        <ele>134</ele>
        <time>2020-06-21T09:41:41Z</time>
      </trkpt>
      <trkpt lat="49.01682" lon="1.95894">
        <ele>135</ele>
        <time>2020-06-21T09:41:57Z</time>
      </trkpt>
      <trkpt lat="49.01681" lon="1.95886">
        <ele>135</ele>
        <time>2020-06-21T09:42:01Z</time>
      </trkpt>
      <trkpt lat="49.01681" lon="1.95879">
        <ele>135</ele>
        <time>2020-06-21T09:42:04Z</time>
      </trkpt>
      <trkpt lat="49.01678" lon="1.95872">
        <ele>135</ele>
        <time>2020-06-21T09:42:08Z</time>
      </trkpt>
      <trkpt lat="49.01676" lon="1.95865">
        <ele>135</ele>
        <time>2020-06-21T09:42:11Z</time>
      </trkpt>
      <trkpt lat="49.01675" lon="1.95857">
        <ele>135</ele>
        <time>2020-06-21T09:42:15Z</time>
      </trkpt>
      <trkpt lat="49.01676" lon="1.95851">
        <ele>135</ele>
        <time>2020-06-21T09:42:19Z</time>
      </trkpt>
      <trkpt lat="49.01676" lon="1.95842">
        <ele>135</ele>
        <time>2020-06-21T09:42:24Z</time>
      </trkpt>
      <trkpt lat="49.01675" lon="1.95827">
        <ele>136</ele>
        <time>2020-06-21T09:42:32Z</time>
      </trkpt>
      <trkpt lat="49.01679" lon="1.95804">
        <ele>137</ele>
        <time>2020-06-21T09:42:45Z</time>
      </trkpt>
      <trkpt lat="49.01676" lon="1.95759">
        <ele>138</ele>
        <time>2020-06-21T09:43:09Z</time>
      </trkpt>
      <trkpt lat="49.01679" lon="1.95743">
        <ele>139</ele>
        <time>2020-06-21T09:43:18Z</time>
      </trkpt>
      <trkpt lat="49.01677" lon="1.95728">
        <ele>139</ele>
        <time>2020-06-21T09:43:26Z</time>
      </trkpt>
      <trkpt lat="49.01673" lon="1.95716">
        <ele>139</ele>
        <time>2020-06-21T09:43:35Z</time>
      </trkpt>
      <trkpt lat="49.0167" lon="1.957">
        <ele>139</ele>
        <time>2020-06-21T09:43:44Z</time>
      </trkpt>
      <trkpt lat="49.01672" lon="1.95668">
        <ele>138</ele>
        <time>2020-06-21T09:44:01Z</time>
      </trkpt>
      <trkpt lat="49.01675" lon="1.95655">
        <ele>138</ele>
        <time>2020-06-21T09:44:09Z</time>
      </trkpt>
      <trkpt lat="49.01674" lon="1.95638">
        <ele>138</ele>
        <time>2020-06-21T09:44:17Z</time>
      </trkpt>
      <trkpt lat="49.01674" lon="1.95623">
        <ele>138</ele>
        <time>2020-06-21T09:44:25Z</time>
      </trkpt>
      <trkpt lat="49.01673" lon="1.95608">
        <ele>137</ele>
        <time>2020-06-21T09:44:33Z</time>
      </trkpt>
      <trkpt lat="49.01671" lon="1.95594">
        <ele>137</ele>
        <time>2020-06-21T09:44:43Z</time>
      </trkpt>
      <trkpt lat="49.01674" lon="1.95555">
        <ele>137</ele>
        <time>2020-06-21T09:44:59Z</time>
      </trkpt>
      <trkpt lat="49.01673" lon="1.95541">
        <ele>137</ele>
        <time>2020-06-21T09:45:05Z</time>
      </trkpt>
      <trkpt lat="49.01681" lon="1.95484">
        <ele>137</ele>
        <time>2020-06-21T09:45:36Z</time>
      </trkpt>
      <trkpt lat="49.01679" lon="1.95469">
        <ele>135</ele>
        <time>2020-06-21T09:45:46Z</time>
      </trkpt>
      <trkpt lat="49.01679" lon="1.95461">
        <ele>134</ele>
        <time>2020-06-21T09:45:51Z</time>
      </trkpt>
      <trkpt lat="49.01682" lon="1.9545">
        <ele>133</ele>
        <time>2020-06-21T09:45:58Z</time>
      </trkpt>
      <trkpt lat="49.01684" lon="1.95443">
        <ele>133</ele>
        <time>2020-06-21T09:46:02Z</time>
      </trkpt>
      <trkpt lat="49.01685" lon="1.95428">
        <ele>133</ele>
        <time>2020-06-21T09:46:09Z</time>
      </trkpt>
      <trkpt lat="49.01684" lon="1.95406">
        <ele>131</ele>
        <time>2020-06-21T09:46:21Z</time>
      </trkpt>
      <trkpt lat="49.01684" lon="1.95398">
        <ele>131</ele>
        <time>2020-06-21T09:46:24Z</time>
      </trkpt>
      <trkpt lat="49.01684" lon="1.9539">
        <ele>131</ele>
        <time>2020-06-21T09:46:28Z</time>
      </trkpt>
      <trkpt lat="49.01683" lon="1.95384">
        <ele>130</ele>
        <time>2020-06-21T09:46:31Z</time>
      </trkpt>
      <trkpt lat="49.01683" lon="1.95368">
        <ele>130</ele>
        <time>2020-06-21T09:46:39Z</time>
      </trkpt>
      <trkpt lat="49.01684" lon="1.95361">
        <ele>129</ele>
        <time>2020-06-21T09:46:43Z</time>
      </trkpt>
      <trkpt lat="49.01682" lon="1.95346">
        <ele>129</ele>
        <time>2020-06-21T09:46:51Z</time>
      </trkpt>
      <trkpt lat="49.01676" lon="1.95336">
        <ele>128</ele>
        <time>2020-06-21T09:46:56Z</time>
      </trkpt>
      <trkpt lat="49.01645" lon="1.95298">
        <ele>127</ele>
        <time>2020-06-21T09:47:22Z</time>
      </trkpt>
      <trkpt lat="49.01627" lon="1.95288">
        <ele>126</ele>
        <time>2020-06-21T09:47:34Z</time>
      </trkpt>
      <trkpt lat="49.01608" lon="1.95284">
        <ele>125</ele>
        <time>2020-06-21T09:47:47Z</time>
      </trkpt>
      <trkpt lat="49.01598" lon="1.95277">
        <ele>125</ele>
        <time>2020-06-21T09:47:53Z</time>
      </trkpt>
      <trkpt lat="49.01579" lon="1.95274">
        <ele>125</ele>
        <time>2020-06-21T09:48:09Z</time>
      </trkpt>
      <trkpt lat="49.0157" lon="1.95274">
        <ele>125</ele>
        <time>2020-06-21T09:48:17Z</time>
      </trkpt>
      <trkpt lat="49.01562" lon="1.95266">
        <ele>124</ele>
        <time>2020-06-21T09:48:24Z</time>
      </trkpt>
      <trkpt lat="49.01553" lon="1.95257">
        <ele>124</ele>
        <time>2020-06-21T09:48:30Z</time>
      </trkpt>
      <trkpt lat="49.01546" lon="1.95248">
        <ele>123</ele>
        <time>2020-06-21T09:48:37Z</time>
      </trkpt>
      <trkpt lat="49.01543" lon="1.95231">
        <ele>123</ele>
        <time>2020-06-21T09:48:48Z</time>
      </trkpt>
      <trkpt lat="49.01529" lon="1.95212">
        <ele>123</ele>
        <time>2020-06-21T09:49:03Z</time>
      </trkpt>
      <trkpt lat="49.01524" lon="1.952">
        <ele>123</ele>
        <time>2020-06-21T09:49:11Z</time>
      </trkpt>
      <trkpt lat="49.01493" lon="1.95167">
        <ele>122</ele>
        <time>2020-06-21T09:49:40Z</time>
      </trkpt>
      <trkpt lat="49.01487" lon="1.95139">
        <ele>121</ele>
        <time>2020-06-21T09:49:54Z</time>
      </trkpt>
      <trkpt lat="49.01481" lon="1.95136">
        <ele>121</ele>
        <time>2020-06-21T09:50:05Z</time>
      </trkpt>
      <trkpt lat="49.01471" lon="1.9512">
        <ele>121</ele>
        <time>2020-06-21T09:50:21Z</time>
      </trkpt>
      <trkpt lat="49.01467" lon="1.95114">
        <ele>120</ele>
        <time>2020-06-21T09:50:26Z</time>
      </trkpt>
      <trkpt lat="49.01454" lon="1.95091">
        <ele>121</ele>
        <time>2020-06-21T09:50:42Z</time>
      </trkpt>
      <trkpt lat="49.01445" lon="1.9508">
        <ele>121</ele>
        <time>2020-06-21T09:50:50Z</time>
      </trkpt>
      <trkpt lat="49.01443" lon="1.95072">
        <ele>121</ele>
        <time>2020-06-21T09:50:54Z</time>
      </trkpt>
      <trkpt lat="49.01435" lon="1.95061">
        <ele>121</ele>
        <time>2020-06-21T09:51:01Z</time>
      </trkpt>
      <trkpt lat="49.01431" lon="1.95038">
        <ele>121</ele>
        <time>2020-06-21T09:51:13Z</time>
      </trkpt>
      <trkpt lat="49.01429" lon="1.9503">
        <ele>121</ele>
        <time>2020-06-21T09:51:17Z</time>
      </trkpt>
      <trkpt lat="49.0143" lon="1.95022">
        <ele>122</ele>
        <time>2020-06-21T09:51:21Z</time>
      </trkpt>
      <trkpt lat="49.01432" lon="1.95016">
        <ele>122</ele>
        <time>2020-06-21T09:51:25Z</time>
      </trkpt>
      <trkpt lat="49.01431" lon="1.95008">
        <ele>123</ele>
        <time>2020-06-21T09:51:29Z</time>
      </trkpt>
      <trkpt lat="49.01434" lon="1.94999">
        <ele>123</ele>
        <time>2020-06-21T09:51:35Z</time>
      </trkpt>
      <trkpt lat="49.01435" lon="1.94983">
        <ele>124</ele>
        <time>2020-06-21T09:51:43Z</time>
      </trkpt>
      <trkpt lat="49.01438" lon="1.94967">
        <ele>124</ele>
        <time>2020-06-21T09:51:51Z</time>
      </trkpt>
      <trkpt lat="49.01439" lon="1.94952">
        <ele>124</ele>
        <time>2020-06-21T09:51:58Z</time>
      </trkpt>
      <trkpt lat="49.01438" lon="1.94945">
        <ele>123</ele>
        <time>2020-06-21T09:52:02Z</time>
      </trkpt>
      <trkpt lat="49.01439" lon="1.94937">
        <ele>123</ele>
        <time>2020-06-21T09:52:06Z</time>
      </trkpt>
      <trkpt lat="49.01438" lon="1.9493">
        <ele>124</ele>
        <time>2020-06-21T09:52:10Z</time>
      </trkpt>
      <trkpt lat="49.0144" lon="1.94898">
        <ele>123</ele>
        <time>2020-06-21T09:52:25Z</time>
      </trkpt>
      <trkpt lat="49.01438" lon="1.94882">
        <ele>122</ele>
        <time>2020-06-21T09:52:33Z</time>
      </trkpt>
      <trkpt lat="49.01439" lon="1.94874">
        <ele>122</ele>
        <time>2020-06-21T09:52:37Z</time>
      </trkpt>
      <trkpt lat="49.01438" lon="1.94868">
        <ele>122</ele>
        <time>2020-06-21T09:52:40Z</time>
      </trkpt>
      <trkpt lat="49.01438" lon="1.94859">
        <ele>123</ele>
        <time>2020-06-21T09:52:45Z</time>
      </trkpt>
      <trkpt lat="49.01438" lon="1.94852">
        <ele>123</ele>
        <time>2020-06-21T09:52:49Z</time>
      </trkpt>
      <trkpt lat="49.01437" lon="1.94838">
        <ele>123</ele>
        <time>2020-06-21T09:52:58Z</time>
      </trkpt>
      <trkpt lat="49.01435" lon="1.9483">
        <ele>122</ele>
        <time>2020-06-21T09:53:02Z</time>
      </trkpt>
      <trkpt lat="49.01433" lon="1.94815">
        <ele>123</ele>
        <time>2020-06-21T09:53:10Z</time>
      </trkpt>
      <trkpt lat="49.01431" lon="1.94801">
        <ele>123</ele>
        <time>2020-06-21T09:53:16Z</time>
      </trkpt>
      <trkpt lat="49.01432" lon="1.94786">
        <ele>123</ele>
        <time>2020-06-21T09:53:24Z</time>
      </trkpt>
      <trkpt lat="49.01428" lon="1.94772">
        <ele>123</ele>
        <time>2020-06-21T09:53:33Z</time>
      </trkpt>
      <trkpt lat="49.01428" lon="1.94756">
        <ele>124</ele>
        <time>2020-06-21T09:53:40Z</time>
      </trkpt>
      <trkpt lat="49.01422" lon="1.94739">
        <ele>125</ele>
        <time>2020-06-21T09:53:53Z</time>
      </trkpt>
      <trkpt lat="49.01422" lon="1.94717">
        <ele>125</ele>
        <time>2020-06-21T09:54:06Z</time>
      </trkpt>
      <trkpt lat="49.01415" lon="1.94708">
        <ele>125</ele>
        <time>2020-06-21T09:54:14Z</time>
      </trkpt>
      <trkpt lat="49.01408" lon="1.94689">
        <ele>126</ele>
        <time>2020-06-21T09:54:45Z</time>
      </trkpt>
      <trkpt lat="49.01394" lon="1.94666">
        <ele>126</ele>
        <time>2020-06-21T09:54:59Z</time>
      </trkpt>
      <trkpt lat="49.01392" lon="1.94659">
        <ele>126</ele>
        <time>2020-06-21T09:55:03Z</time>
      </trkpt>
      <trkpt lat="49.01385" lon="1.94649">
        <ele>127</ele>
        <time>2020-06-21T09:55:08Z</time>
      </trkpt>
      <trkpt lat="49.01384" lon="1.9464">
        <ele>127</ele>
        <time>2020-06-21T09:55:12Z</time>
      </trkpt>
      <trkpt lat="49.01385" lon="1.94631">
        <ele>127</ele>
        <time>2020-06-21T09:55:17Z</time>
      </trkpt>
      <trkpt lat="49.01385" lon="1.94616">
        <ele>127</ele>
        <time>2020-06-21T09:55:25Z</time>
      </trkpt>
      <trkpt lat="49.01385" lon="1.94608">
        <ele>128</ele>
        <time>2020-06-21T09:55:29Z</time>
      </trkpt>
      <trkpt lat="49.01382" lon="1.94593">
        <ele>128</ele>
        <time>2020-06-21T09:55:37Z</time>
      </trkpt>
      <trkpt lat="49.01381" lon="1.94584">
        <ele>128</ele>
        <time>2020-06-21T09:55:42Z</time>
      </trkpt>
      <trkpt lat="49.01384" lon="1.94576">
        <ele>129</ele>
        <time>2020-06-21T09:55:46Z</time>
      </trkpt>
      <trkpt lat="49.01386" lon="1.94559">
        <ele>129</ele>
        <time>2020-06-21T09:55:56Z</time>
      </trkpt>
      <trkpt lat="49.01385" lon="1.94551">
        <ele>129</ele>
        <time>2020-06-21T09:56:01Z</time>
      </trkpt>
      <trkpt lat="49.01381" lon="1.94547">
        <ele>130</ele>
        <time>2020-06-21T09:56:21Z</time>
      </trkpt>
      <trkpt lat="49.01378" lon="1.94541">
        <ele>130</ele>
        <time>2020-06-21T09:56:45Z</time>
      </trkpt>
      <trkpt lat="49.0137" lon="1.94538">
        <ele>130</ele>
        <time>2020-06-21T09:57:02Z</time>
      </trkpt>
      <trkpt lat="49.01365" lon="1.94534">
        <ele>129</ele>
        <time>2020-06-21T09:57:06Z</time>
      </trkpt>
      <trkpt lat="49.01349" lon="1.94529">
        <ele>128</ele>
        <time>2020-06-21T09:57:16Z</time>
      </trkpt>
      <trkpt lat="49.01347" lon="1.94522">
        <ele>128</ele>
        <time>2020-06-21T09:57:19Z</time>
      </trkpt>
      <trkpt lat="49.01342" lon="1.94517">
        <ele>127</ele>
        <time>2020-06-21T09:57:24Z</time>
      </trkpt>
      <trkpt lat="49.01337" lon="1.94509">
        <ele>126</ele>
        <time>2020-06-21T09:57:28Z</time>
      </trkpt>
      <trkpt lat="49.01332" lon="1.94504">
        <ele>126</ele>
        <time>2020-06-21T09:57:32Z</time>
      </trkpt>
      <trkpt lat="49.01326" lon="1.94491">
        <ele>125</ele>
        <time>2020-06-21T09:57:41Z</time>
      </trkpt>
      <trkpt lat="49.01305" lon="1.94467">
        <ele>124</ele>
        <time>2020-06-21T09:58:03Z</time>
      </trkpt>
      <trkpt lat="49.01299" lon="1.94455">
        <ele>123</ele>
        <time>2020-06-21T09:58:11Z</time>
      </trkpt>
      <trkpt lat="49.01294" lon="1.94449">
        <ele>123</ele>
        <time>2020-06-21T09:58:16Z</time>
      </trkpt>
      <trkpt lat="49.01292" lon="1.94442">
        <ele>122</ele>
        <time>2020-06-21T09:58:20Z</time>
      </trkpt>
      <trkpt lat="49.01292" lon="1.94433">
        <ele>122</ele>
        <time>2020-06-21T09:58:24Z</time>
      </trkpt>
      <trkpt lat="49.01289" lon="1.94426">
        <ele>121</ele>
        <time>2020-06-21T09:58:28Z</time>
      </trkpt>
      <trkpt lat="49.01283" lon="1.94413">
        <ele>120</ele>
        <time>2020-06-21T09:58:35Z</time>
      </trkpt>
      <trkpt lat="49.01279" lon="1.94398">
        <ele>119</ele>
        <time>2020-06-21T09:58:43Z</time>
      </trkpt>
      <trkpt lat="49.01279" lon="1.94383">
        <ele>119</ele>
        <time>2020-06-21T09:58:50Z</time>
      </trkpt>
      <trkpt lat="49.01278" lon="1.94374">
        <ele>118</ele>
        <time>2020-06-21T09:58:54Z</time>
      </trkpt>
      <trkpt lat="49.01277" lon="1.9435">
        <ele>117</ele>
        <time>2020-06-21T09:59:05Z</time>
      </trkpt>
      <trkpt lat="49.01266" lon="1.94287">
        <ele>115</ele>
        <time>2020-06-21T09:59:38Z</time>
      </trkpt>
      <trkpt lat="49.01263" lon="1.94246">
        <ele>114</ele>
        <time>2020-06-21T09:59:57Z</time>
      </trkpt>
      <trkpt lat="49.01259" lon="1.94238">
        <ele>115</ele>
        <time>2020-06-21T10:00:10Z</time>
      </trkpt>
      <trkpt lat="49.01254" lon="1.94241">
        <ele>115</ele>
        <time>2020-06-21T10:00:25Z</time>
      </trkpt>
      <trkpt lat="49.01252" lon="1.94217">
        <ele>114</ele>
        <time>2020-06-21T10:00:38Z</time>
      </trkpt>
      <trkpt lat="49.01247" lon="1.94194">
        <ele>114</ele>
        <time>2020-06-21T10:00:50Z</time>
      </trkpt>
      <trkpt lat="49.01243" lon="1.94188">
        <ele>114</ele>
        <time>2020-06-21T10:00:54Z</time>
      </trkpt>
      <trkpt lat="49.0124" lon="1.94181">
        <ele>114</ele>
        <time>2020-06-21T10:00:57Z</time>
      </trkpt>
      <trkpt lat="49.01239" lon="1.94165">
        <ele>114</ele>
        <time>2020-06-21T10:01:04Z</time>
      </trkpt>
      <trkpt lat="49.01243" lon="1.94151">
        <ele>114</ele>
        <time>2020-06-21T10:01:10Z</time>
      </trkpt>
      <trkpt lat="49.01244" lon="1.94143">
        <ele>114</ele>
        <time>2020-06-21T10:01:14Z</time>
      </trkpt>
      <trkpt lat="49.01243" lon="1.94136">
        <ele>114</ele>
        <time>2020-06-21T10:01:18Z</time>
      </trkpt>
      <trkpt lat="49.01242" lon="1.94128">
        <ele>114</ele>
        <time>2020-06-21T10:01:22Z</time>
      </trkpt>
      <trkpt lat="49.01235" lon="1.94104">
        <ele>113</ele>
        <time>2020-06-21T10:01:34Z</time>
      </trkpt>
      <trkpt lat="49.01234" lon="1.94096">
        <ele>113</ele>
        <time>2020-06-21T10:01:38Z</time>
      </trkpt>
      <trkpt lat="49.01235" lon="1.94088">
        <ele>113</ele>
        <time>2020-06-21T10:01:42Z</time>
      </trkpt>
      <trkpt lat="49.01234" lon="1.94081">
        <ele>113</ele>
        <time>2020-06-21T10:01:46Z</time>
      </trkpt>
      <trkpt lat="49.01233" lon="1.94072">
        <ele>113</ele>
        <time>2020-06-21T10:01:50Z</time>
      </trkpt>
      <trkpt lat="49.01233" lon="1.94065">
        <ele>112</ele>
        <time>2020-06-21T10:01:54Z</time>
      </trkpt>
      <trkpt lat="49.01224" lon="1.9402">
        <ele>112</ele>
        <time>2020-06-21T10:02:17Z</time>
      </trkpt>
      <trkpt lat="49.01219" lon="1.94008">
        <ele>111</ele>
        <time>2020-06-21T10:02:23Z</time>
      </trkpt>
      <trkpt lat="49.01214" lon="1.94004">
        <ele>111</ele>
        <time>2020-06-21T10:02:26Z</time>
      </trkpt>
      <trkpt lat="49.01212" lon="1.93995">
        <ele>111</ele>
        <time>2020-06-21T10:02:31Z</time>
      </trkpt>
      <trkpt lat="49.01213" lon="1.93971">
        <ele>110</ele>
        <time>2020-06-21T10:02:43Z</time>
      </trkpt>
      <trkpt lat="49.01209" lon="1.93947">
        <ele>109</ele>
        <time>2020-06-21T10:02:55Z</time>
      </trkpt>
      <trkpt lat="49.01206" lon="1.93943">
        <ele>109</ele>
        <time>2020-06-21T10:02:58Z</time>
      </trkpt>
      <trkpt lat="49.01204" lon="1.93936">
        <ele>109</ele>
        <time>2020-06-21T10:03:02Z</time>
      </trkpt>
      <trkpt lat="49.01202" lon="1.93897">
        <ele>108</ele>
        <time>2020-06-21T10:03:24Z</time>
      </trkpt>
      <trkpt lat="49.01203" lon="1.93888">
        <ele>108</ele>
        <time>2020-06-21T10:03:29Z</time>
      </trkpt>
      <trkpt lat="49.01206" lon="1.93872">
        <ele>108</ele>
        <time>2020-06-21T10:03:37Z</time>
      </trkpt>
      <trkpt lat="49.01209" lon="1.93815">
        <ele>111</ele>
        <time>2020-06-21T10:04:09Z</time>
      </trkpt>
      <trkpt lat="49.0121" lon="1.93808">
        <ele>111</ele>
        <time>2020-06-21T10:04:13Z</time>
      </trkpt>
      <trkpt lat="49.01212" lon="1.93773">
        <ele>112</ele>
        <time>2020-06-21T10:04:32Z</time>
      </trkpt>
      <trkpt lat="49.0121" lon="1.93741">
        <ele>112</ele>
        <time>2020-06-21T10:04:47Z</time>
      </trkpt>
      <trkpt lat="49.01208" lon="1.93734">
        <ele>112</ele>
        <time>2020-06-21T10:04:50Z</time>
      </trkpt>
      <trkpt lat="49.01209" lon="1.93727">
        <ele>112</ele>
        <time>2020-06-21T10:04:54Z</time>
      </trkpt>
      <trkpt lat="49.01211" lon="1.93719">
        <ele>112</ele>
        <time>2020-06-21T10:04:58Z</time>
      </trkpt>
      <trkpt lat="49.01213" lon="1.93691">
        <ele>112</ele>
        <time>2020-06-21T10:05:13Z</time>
      </trkpt>
      <trkpt lat="49.01212" lon="1.93684">
        <ele>112</ele>
        <time>2020-06-21T10:05:17Z</time>
      </trkpt>
      <trkpt lat="49.01212" lon="1.93677">
        <ele>112</ele>
        <time>2020-06-21T10:05:21Z</time>
      </trkpt>
      <trkpt lat="49.01207" lon="1.93642">
        <ele>114</ele>
        <time>2020-06-21T10:05:39Z</time>
      </trkpt>
      <trkpt lat="49.01206" lon="1.93627">
        <ele>114</ele>
        <time>2020-06-21T10:05:46Z</time>
      </trkpt>
      <trkpt lat="49.01206" lon="1.93612">
        <ele>114</ele>
        <time>2020-06-21T10:05:54Z</time>
      </trkpt>
      <trkpt lat="49.0121" lon="1.93584">
        <ele>113</ele>
        <time>2020-06-21T10:06:07Z</time>
      </trkpt>
      <trkpt lat="49.01206" lon="1.93556">
        <ele>113</ele>
        <time>2020-06-21T10:06:20Z</time>
      </trkpt>
      <trkpt lat="49.01207" lon="1.93514">
        <ele>113</ele>
        <time>2020-06-21T10:06:42Z</time>
      </trkpt>
      <trkpt lat="49.01198" lon="1.93478">
        <ele>111</ele>
        <time>2020-06-21T10:07:06Z</time>
      </trkpt>
      <trkpt lat="49.01196" lon="1.93464">
        <ele>111</ele>
        <time>2020-06-21T10:07:13Z</time>
      </trkpt>
      <trkpt lat="49.01191" lon="1.93441">
        <ele>112</ele>
        <time>2020-06-21T10:07:28Z</time>
      </trkpt>
      <trkpt lat="49.01192" lon="1.93425">
        <ele>113</ele>
        <time>2020-06-21T10:07:37Z</time>
      </trkpt>
      <trkpt lat="49.01191" lon="1.93395">
        <ele>113</ele>
        <time>2020-06-21T10:07:50Z</time>
      </trkpt>
      <trkpt lat="49.01194" lon="1.93367">
        <ele>113</ele>
        <time>2020-06-21T10:08:05Z</time>
      </trkpt>
      <trkpt lat="49.01192" lon="1.93349">
        <ele>112</ele>
        <time>2020-06-21T10:08:14Z</time>
      </trkpt>
      <trkpt lat="49.01188" lon="1.93338">
        <ele>112</ele>
        <time>2020-06-21T10:08:21Z</time>
      </trkpt>
      <trkpt lat="49.0119" lon="1.93317">
        <ele>113</ele>
        <time>2020-06-21T10:08:31Z</time>
      </trkpt>
      <trkpt lat="49.01192" lon="1.93303">
        <ele>113</ele>
        <time>2020-06-21T10:08:40Z</time>
      </trkpt>
      <trkpt lat="49.01195" lon="1.93289">
        <ele>114</ele>
        <time>2020-06-21T10:08:49Z</time>
      </trkpt>
      <trkpt lat="49.01192" lon="1.93245">
        <ele>115</ele>
        <time>2020-06-21T10:09:13Z</time>
      </trkpt>
      <trkpt lat="49.01196" lon="1.93229">
        <ele>115</ele>
        <time>2020-06-21T10:09:22Z</time>
      </trkpt>
      <trkpt lat="49.01192" lon="1.93217">
        <ele>116</ele>
        <time>2020-06-21T10:09:31Z</time>
      </trkpt>
      <trkpt lat="49.01182" lon="1.93191">
        <ele>114</ele>
        <time>2020-06-21T10:09:48Z</time>
      </trkpt>
      <trkpt lat="49.01178" lon="1.93176">
        <ele>114</ele>
        <time>2020-06-21T10:09:57Z</time>
      </trkpt>
      <trkpt lat="49.01177" lon="1.93149">
        <ele>113</ele>
        <time>2020-06-21T10:10:10Z</time>
      </trkpt>
      <trkpt lat="49.01168" lon="1.93125">
        <ele>112</ele>
        <time>2020-06-21T10:10:27Z</time>
      </trkpt>
      <trkpt lat="49.01166" lon="1.9311">
        <ele>111</ele>
        <time>2020-06-21T10:10:35Z</time>
      </trkpt>
      <trkpt lat="49.01165" lon="1.93094">
        <ele>112</ele>
        <time>2020-06-21T10:10:42Z</time>
      </trkpt>
      <trkpt lat="49.01158" lon="1.93084">
        <ele>112</ele>
        <time>2020-06-21T10:10:51Z</time>
      </trkpt>
      <trkpt lat="49.01149" lon="1.93024">
        <ele>111</ele>
        <time>2020-06-21T10:11:25Z</time>
      </trkpt>
      <trkpt lat="49.01144" lon="1.93011">
        <ele>112</ele>
        <time>2020-06-21T10:11:33Z</time>
      </trkpt>
      <trkpt lat="49.0114" lon="1.92984">
        <ele>112</ele>
        <time>2020-06-21T10:11:49Z</time>
      </trkpt>
      <trkpt lat="49.01131" lon="1.92957">
        <ele>112</ele>
        <time>2020-06-21T10:12:09Z</time>
      </trkpt>
      <trkpt lat="49.01128" lon="1.9291">
        <ele>111</ele>
        <time>2020-06-21T10:12:34Z</time>
      </trkpt>
      <trkpt lat="49.0113" lon="1.92895">
        <ele>111</ele>
        <time>2020-06-21T10:12:44Z</time>
      </trkpt>
      <trkpt lat="49.01126" lon="1.92881">
        <ele>111</ele>
        <time>2020-06-21T10:12:51Z</time>
      </trkpt>
      <trkpt lat="49.01112" lon="1.92862">
        <ele>110</ele>
        <time>2020-06-21T10:13:04Z</time>
      </trkpt>
      <trkpt lat="49.0111" lon="1.92847">
        <ele>109</ele>
        <time>2020-06-21T10:13:17Z</time>
      </trkpt>
      <trkpt lat="49.01099" lon="1.92831">
        <ele>109</ele>
        <time>2020-06-21T10:13:43Z</time>
      </trkpt>
      <trkpt lat="49.01099" lon="1.92816">
        <ele>109</ele>
        <time>2020-06-21T10:13:51Z</time>
      </trkpt>
      <trkpt lat="49.01098" lon="1.92801">
        <ele>109</ele>
        <time>2020-06-21T10:14:00Z</time>
      </trkpt>
      <trkpt lat="49.01095" lon="1.92783">
        <ele>109</ele>
        <time>2020-06-21T10:14:10Z</time>
      </trkpt>
      <trkpt lat="49.01091" lon="1.92768">
        <ele>110</ele>
        <time>2020-06-21T10:14:18Z</time>
      </trkpt>
      <trkpt lat="49.01087" lon="1.92734">
        <ele>110</ele>
        <time>2020-06-21T10:14:35Z</time>
      </trkpt>
      <trkpt lat="49.01082" lon="1.92722">
        <ele>110</ele>
        <time>2020-06-21T10:14:41Z</time>
      </trkpt>
      <trkpt lat="49.0108" lon="1.92715">
        <ele>110</ele>
        <time>2020-06-21T10:14:45Z</time>
      </trkpt>
      <trkpt lat="49.01068" lon="1.92673">
        <ele>110</ele>
        <time>2020-06-21T10:15:06Z</time>
      </trkpt>
      <trkpt lat="49.01066" lon="1.92656">
        <ele>110</ele>
        <time>2020-06-21T10:15:15Z</time>
      </trkpt>
      <trkpt lat="49.0106" lon="1.92644">
        <ele>110</ele>
        <time>2020-06-21T10:15:21Z</time>
      </trkpt>
      <trkpt lat="49.01043" lon="1.92578">
        <ele>110</ele>
        <time>2020-06-21T10:15:55Z</time>
      </trkpt>
      <trkpt lat="49.01036" lon="1.92551">
        <ele>110</ele>
        <time>2020-06-21T10:16:09Z</time>
      </trkpt>
      <trkpt lat="49.01032" lon="1.92538">
        <ele>109</ele>
        <time>2020-06-21T10:16:17Z</time>
      </trkpt>
      <trkpt lat="49.01029" lon="1.92525">
        <ele>110</ele>
        <time>2020-06-21T10:16:24Z</time>
      </trkpt>
      <trkpt lat="49.01028" lon="1.9251">
        <ele>110</ele>
        <time>2020-06-21T10:16:32Z</time>
      </trkpt>
      <trkpt lat="49.01008" lon="1.92437">
        <ele>110</ele>
        <time>2020-06-21T10:17:13Z</time>
      </trkpt>
      <trkpt lat="49.01002" lon="1.92396">
        <ele>110</ele>
        <time>2020-06-21T10:17:31Z</time>
      </trkpt>
      <trkpt lat="49.01002" lon="1.92379">
        <ele>110</ele>
        <time>2020-06-21T10:17:42Z</time>
      </trkpt>
      <trkpt lat="49.00996" lon="1.92366">
        <ele>110</ele>
        <time>2020-06-21T10:17:50Z</time>
      </trkpt>
      <trkpt lat="49.00991" lon="1.92338">
        <ele>111</ele>
        <time>2020-06-21T10:18:06Z</time>
      </trkpt>
      <trkpt lat="49.0099" lon="1.92326">
        <ele>110</ele>
        <time>2020-06-21T10:18:22Z</time>
      </trkpt>
      <trkpt lat="49.00981" lon="1.92314">
        <ele>110</ele>
        <time>2020-06-21T10:19:28Z</time>
      </trkpt>
      <trkpt lat="49.00956" lon="1.92289">
        <ele>100</ele>
        <time>2020-06-21T10:20:08Z</time>
      </trkpt>
      <trkpt lat="49.00949" lon="1.92273">
        <ele>96</ele>
        <time>2020-06-21T10:20:24Z</time>
      </trkpt>
      <trkpt lat="49.00936" lon="1.92238">
        <ele>88</ele>
        <time>2020-06-21T10:21:03Z</time>
      </trkpt>
      <trkpt lat="49.00926" lon="1.92229">
        <ele>86</ele>
        <time>2020-06-21T10:21:20Z</time>
      </trkpt>
      <trkpt lat="49.00915" lon="1.92206">
        <ele>80</ele>
        <time>2020-06-21T10:21:43Z</time>
      </trkpt>
      <trkpt lat="49.0091" lon="1.92196">
        <ele>81</ele>
        <time>2020-06-21T10:21:52Z</time>
      </trkpt>
      <trkpt lat="49.00913" lon="1.92149">
        <ele>84</ele>
        <time>2020-06-21T10:22:17Z</time>
      </trkpt>
      <trkpt lat="49.00909" lon="1.92091">
        <ele>87</ele>
        <time>2020-06-21T10:22:48Z</time>
      </trkpt>
      <trkpt lat="49.00911" lon="1.92033">
        <ele>90</ele>
        <time>2020-06-21T10:23:19Z</time>
      </trkpt>
      <trkpt lat="49.00912" lon="1.92019">
        <ele>91</ele>
        <time>2020-06-21T10:23:27Z</time>
      </trkpt>
      <trkpt lat="49.0091" lon="1.92004">
        <ele>91</ele>
        <time>2020-06-21T10:23:34Z</time>
      </trkpt>
      <trkpt lat="49.00909" lon="1.91945">
        <ele>94</ele>
        <time>2020-06-21T10:24:06Z</time>
      </trkpt>
      <trkpt lat="49.00905" lon="1.91931">
        <ele>95</ele>
        <time>2020-06-21T10:24:14Z</time>
      </trkpt>
      <trkpt lat="49.00908" lon="1.91887">
        <ele>97</ele>
        <time>2020-06-21T10:24:36Z</time>
      </trkpt>
      <trkpt lat="49.00898" lon="1.9186">
        <ele>99</ele>
        <time>2020-06-21T10:24:53Z</time>
      </trkpt>
      <trkpt lat="49.00897" lon="1.91846">
        <ele>99</ele>
        <time>2020-06-21T10:25:01Z</time>
      </trkpt>
      <trkpt lat="49.00897" lon="1.91818">
        <ele>101</ele>
        <time>2020-06-21T10:25:13Z</time>
      </trkpt>
      <trkpt lat="49.00896" lon="1.91809">
        <ele>101</ele>
        <time>2020-06-21T10:25:17Z</time>
      </trkpt>
      <trkpt lat="49.00893" lon="1.91802">
        <ele>101</ele>
        <time>2020-06-21T10:25:21Z</time>
      </trkpt>
      <trkpt lat="49.00892" lon="1.91779">
        <ele>102</ele>
        <time>2020-06-21T10:25:33Z</time>
      </trkpt>
      <trkpt lat="49.00888" lon="1.91774">
        <ele>102</ele>
        <time>2020-06-21T10:25:36Z</time>
      </trkpt>
      <trkpt lat="49.00884" lon="1.91759">
        <ele>103</ele>
        <time>2020-06-21T10:25:44Z</time>
      </trkpt>
      <trkpt lat="49.00881" lon="1.91754">
        <ele>103</ele>
        <time>2020-06-21T10:25:48Z</time>
      </trkpt>
      <trkpt lat="49.00876" lon="1.91749">
        <ele>103</ele>
        <time>2020-06-21T10:25:53Z</time>
      </trkpt>
      <trkpt lat="49.00873" lon="1.91746">
        <ele>102</ele>
        <time>2020-06-21T10:27:33Z</time>
      </trkpt>
      <trkpt lat="49.00877" lon="1.9174">
        <ele>101</ele>
        <time>2020-06-21T10:29:31Z</time>
      </trkpt>
      <trkpt lat="49.00885" lon="1.91739">
        <ele>101</ele>
        <time>2020-06-21T10:29:39Z</time>
      </trkpt>
      <trkpt lat="49.00888" lon="1.91732">
        <ele>101</ele>
        <time>2020-06-21T10:29:44Z</time>
      </trkpt>
      <trkpt lat="49.00893" lon="1.91719">
        <ele>101</ele>
        <time>2020-06-21T10:29:51Z</time>
      </trkpt>
      <trkpt lat="49.00893" lon="1.91711">
        <ele>101</ele>
        <time>2020-06-21T10:29:55Z</time>
      </trkpt>
      <trkpt lat="49.00888" lon="1.91662">
        <ele>99</ele>
        <time>2020-06-21T10:30:22Z</time>
      </trkpt>
      <trkpt lat="49.00889" lon="1.91655">
        <ele>99</ele>
        <time>2020-06-21T10:30:26Z</time>
      </trkpt>
      <trkpt lat="49.00887" lon="1.91648">
        <ele>98</ele>
        <time>2020-06-21T10:30:31Z</time>
      </trkpt>
      <trkpt lat="49.00889" lon="1.9164">
        <ele>98</ele>
        <time>2020-06-21T10:30:36Z</time>
      </trkpt>
      <trkpt lat="49.00885" lon="1.91616">
        <ele>98</ele>
        <time>2020-06-21T10:30:49Z</time>
      </trkpt>
      <trkpt lat="49.00883" lon="1.9161">
        <ele>97</ele>
        <time>2020-06-21T10:30:53Z</time>
      </trkpt>
      <trkpt lat="49.00874" lon="1.91603">
        <ele>96</ele>
        <time>2020-06-21T10:31:01Z</time>
      </trkpt>
      <trkpt lat="49.0086" lon="1.91577">
        <ele>92</ele>
        <time>2020-06-21T10:31:21Z</time>
      </trkpt>
      <trkpt lat="49.00851" lon="1.9157">
        <ele>90</ele>
        <time>2020-06-21T10:31:29Z</time>
      </trkpt>
      <trkpt lat="49.00846" lon="1.91567">
        <ele>90</ele>
        <time>2020-06-21T10:31:33Z</time>
      </trkpt>
      <trkpt lat="49.00837" lon="1.91549">
        <ele>87</ele>
        <time>2020-06-21T10:31:45Z</time>
      </trkpt>
      <trkpt lat="49.00829" lon="1.91539">
        <ele>85</ele>
        <time>2020-06-21T10:31:55Z</time>
      </trkpt>
      <trkpt lat="49.00812" lon="1.91487">
        <ele>78</ele>
        <time>2020-06-21T10:32:26Z</time>
      </trkpt>
      <trkpt lat="49.00803" lon="1.91476">
        <ele>77</ele>
        <time>2020-06-21T10:32:34Z</time>
      </trkpt>
      <trkpt lat="49.008" lon="1.91462">
        <ele>76</ele>
        <time>2020-06-21T10:32:41Z</time>
      </trkpt>
      <trkpt lat="49.008" lon="1.91446">
        <ele>75</ele>
        <time>2020-06-21T10:32:48Z</time>
      </trkpt>
      <trkpt lat="49.00784" lon="1.91429">
        <ele>73</ele>
        <time>2020-06-21T10:33:02Z</time>
      </trkpt>
      <trkpt lat="49.00779" lon="1.91384">
        <ele>70</ele>
        <time>2020-06-21T10:33:25Z</time>
      </trkpt>
      <trkpt lat="49.00775" lon="1.91371">
        <ele>69</ele>
        <time>2020-06-21T10:33:32Z</time>
      </trkpt>
      <trkpt lat="49.0075" lon="1.91319">
        <ele>66</ele>
        <time>2020-06-21T10:34:06Z</time>
      </trkpt>
      <trkpt lat="49.00742" lon="1.91306">
        <ele>65</ele>
        <time>2020-06-21T10:34:14Z</time>
      </trkpt>
      <trkpt lat="49.00738" lon="1.91301">
        <ele>65</ele>
        <time>2020-06-21T10:34:18Z</time>
      </trkpt>
      <trkpt lat="49.00735" lon="1.91285">
        <ele>63</ele>
        <time>2020-06-21T10:34:27Z</time>
      </trkpt>
      <trkpt lat="49.00728" lon="1.91273">
        <ele>62</ele>
        <time>2020-06-21T10:34:35Z</time>
      </trkpt>
      <trkpt lat="49.00724" lon="1.91268">
        <ele>62</ele>
        <time>2020-06-21T10:34:39Z</time>
      </trkpt>
      <trkpt lat="49.00716" lon="1.91256">
        <ele>61</ele>
        <time>2020-06-21T10:34:48Z</time>
      </trkpt>
      <trkpt lat="49.00707" lon="1.91249">
        <ele>60</ele>
        <time>2020-06-21T10:34:56Z</time>
      </trkpt>
      <trkpt lat="49.00704" lon="1.91242">
        <ele>59</ele>
        <time>2020-06-21T10:35:00Z</time>
      </trkpt>
      <trkpt lat="49.00703" lon="1.91235">
        <ele>58</ele>
        <time>2020-06-21T10:35:04Z</time>
      </trkpt>
      <trkpt lat="49.007" lon="1.91229">
        <ele>58</ele>
        <time>2020-06-21T10:35:08Z</time>
      </trkpt>
      <trkpt lat="49.00694" lon="1.91226">
        <ele>57</ele>
        <time>2020-06-21T10:35:12Z</time>
      </trkpt>
      <trkpt lat="49.00686" lon="1.91217">
        <ele>57</ele>
        <time>2020-06-21T10:35:19Z</time>
      </trkpt>
      <trkpt lat="49.00679" lon="1.91205">
        <ele>57</ele>
        <time>2020-06-21T10:35:28Z</time>
      </trkpt>
      <trkpt lat="49.00675" lon="1.91198">
        <ele>56</ele>
        <time>2020-06-21T10:35:34Z</time>
      </trkpt>
      <trkpt lat="49.00669" lon="1.91199">
        <ele>56</ele>
        <time>2020-06-21T10:35:48Z</time>
      </trkpt>
      <trkpt lat="49.00664" lon="1.91197">
        <ele>55</ele>
        <time>2020-06-21T10:35:51Z</time>
      </trkpt>
      <trkpt lat="49.00638" lon="1.91204">
        <ele>54</ele>
        <time>2020-06-21T10:36:09Z</time>
      </trkpt>
      <trkpt lat="49.00633" lon="1.91202">
        <ele>53</ele>
        <time>2020-06-21T10:36:23Z</time>
      </trkpt>
      <trkpt lat="49.00634" lon="1.91195">
        <ele>53</ele>
        <time>2020-06-21T10:36:27Z</time>
      </trkpt>
      <trkpt lat="49.00636" lon="1.9118">
        <ele>53</ele>
        <time>2020-06-21T10:36:33Z</time>
      </trkpt>
      <trkpt lat="49.00638" lon="1.91166">
        <ele>53</ele>
        <time>2020-06-21T10:36:42Z</time>
      </trkpt>
      <trkpt lat="49.00639" lon="1.91126">
        <ele>52</ele>
        <time>2020-06-21T10:37:01Z</time>
      </trkpt>
      <trkpt lat="49.00636" lon="1.91109">
        <ele>52</ele>
        <time>2020-06-21T10:37:10Z</time>
      </trkpt>
      <trkpt lat="49.00632" lon="1.91105">
        <ele>52</ele>
        <time>2020-06-21T10:37:14Z</time>
      </trkpt>
      <trkpt lat="49.00626" lon="1.91103">
        <ele>52</ele>
        <time>2020-06-21T10:37:21Z</time>
      </trkpt>
      <trkpt lat="49.00621" lon="1.91102">
        <ele>52</ele>
        <time>2020-06-21T10:37:26Z</time>
      </trkpt>
      <trkpt lat="49.00617" lon="1.91096">
        <ele>51</ele>
        <time>2020-06-21T10:37:33Z</time>
      </trkpt>
      <trkpt lat="49.00605" lon="1.91096">
        <ele>49</ele>
        <time>2020-06-21T10:37:48Z</time>
      </trkpt>
      <trkpt lat="49.00599" lon="1.91101">
        <ele>47</ele>
        <time>2020-06-21T10:38:19Z</time>
      </trkpt>
      <trkpt lat="49.00594" lon="1.911">
        <ele>46</ele>
        <time>2020-06-21T10:38:31Z</time>
      </trkpt>
      <trkpt lat="49.00583" lon="1.91088">
        <ele>42</ele>
        <time>2020-06-21T10:38:45Z</time>
      </trkpt>
      <trkpt lat="49.00581" lon="1.91098">
        <ele>41</ele>
        <time>2020-06-21T10:38:51Z</time>
      </trkpt>
      <trkpt lat="49.00577" lon="1.91103">
        <ele>39</ele>
        <time>2020-06-21T10:38:56Z</time>
      </trkpt>
      <trkpt lat="49.00571" lon="1.91105">
        <ele>38</ele>
        <time>2020-06-21T10:39:03Z</time>
      </trkpt>
      <trkpt lat="49.00554" lon="1.911">
        <ele>32</ele>
        <time>2020-06-21T10:39:34Z</time>
      </trkpt>
      <trkpt lat="49.00538" lon="1.91092">
        <ele>30</ele>
        <time>2020-06-21T10:39:50Z</time>
      </trkpt>
      <trkpt lat="49.00526" lon="1.91092">
        <ele>27</ele>
        <time>2020-06-21T10:40:03Z</time>
      </trkpt>
      <trkpt lat="49.00518" lon="1.9109">
        <ele>26</ele>
        <time>2020-06-21T10:40:09Z</time>
      </trkpt>
      <trkpt lat="49.00509" lon="1.91084">
        <ele>25</ele>
        <time>2020-06-21T10:40:16Z</time>
      </trkpt>
      <trkpt lat="49.00506" lon="1.91075">
        <ele>25</ele>
        <time>2020-06-21T10:40:39Z</time>
      </trkpt>
      <trkpt lat="49.00505" lon="1.91068">
        <ele>25</ele>
        <time>2020-06-21T10:40:44Z</time>
      </trkpt>
      <trkpt lat="49.00507" lon="1.91084">
        <ele>25</ele>
        <time>2020-06-21T10:41:13Z</time>
      </trkpt>
      <trkpt lat="49.00505" lon="1.91091">
        <ele>25</ele>
        <time>2020-06-21T10:41:16Z</time>
      </trkpt>
      <trkpt lat="49.00504" lon="1.91098">
        <ele>25</ele>
        <time>2020-06-21T10:41:20Z</time>
      </trkpt>
      <trkpt lat="49.00505" lon="1.91107">
        <ele>25</ele>
        <time>2020-06-21T10:41:24Z</time>
      </trkpt>
      <trkpt lat="49.00508" lon="1.91112">
        <ele>25</ele>
        <time>2020-06-21T10:41:27Z</time>
      </trkpt>
      <trkpt lat="49.00509" lon="1.91121">
        <ele>25</ele>
        <time>2020-06-21T10:41:33Z</time>
      </trkpt>
      <trkpt lat="49.00507" lon="1.91128">
        <ele>25</ele>
        <time>2020-06-21T10:41:36Z</time>
      </trkpt>
      <trkpt lat="49.00503" lon="1.91131">
        <ele>25</ele>
        <time>2020-06-21T10:41:40Z</time>
      </trkpt>
      <trkpt lat="49.00498" lon="1.91129">
        <ele>25</ele>
        <time>2020-06-21T10:41:45Z</time>
      </trkpt>
      <trkpt lat="49.00491" lon="1.91127">
        <ele>24</ele>
        <time>2020-06-21T10:41:50Z</time>
      </trkpt>
      <trkpt lat="49.00483" lon="1.91118">
        <ele>23</ele>
        <time>2020-06-21T10:41:56Z</time>
      </trkpt>
      <trkpt lat="49.00472" lon="1.91116">
        <ele>23</ele>
        <time>2020-06-21T10:42:03Z</time>
      </trkpt>
      <trkpt lat="49.00463" lon="1.91118">
        <ele>23</ele>
        <time>2020-06-21T10:42:10Z</time>
      </trkpt>
      <trkpt lat="49.00458" lon="1.91122">
        <ele>23</ele>
        <time>2020-06-21T10:42:14Z</time>
      </trkpt>
      <trkpt lat="49.00447" lon="1.91126">
        <ele>23</ele>
        <time>2020-06-21T10:42:20Z</time>
      </trkpt>
      <trkpt lat="49.00439" lon="1.91136">
        <ele>23</ele>
        <time>2020-06-21T10:42:24Z</time>
      </trkpt>
      <trkpt lat="49.00431" lon="1.9113">
        <ele>23</ele>
        <time>2020-06-21T10:42:29Z</time>
      </trkpt>
      <trkpt lat="49.00432" lon="1.91115">
        <ele>23</ele>
        <time>2020-06-21T10:42:36Z</time>
      </trkpt>
      <trkpt lat="49.0044" lon="1.91105">
        <ele>23</ele>
        <time>2020-06-21T10:42:45Z</time>
      </trkpt>
      <trkpt lat="49.00427" lon="1.91077">
        <ele>23</ele>
        <time>2020-06-21T10:43:08Z</time>
      </trkpt>
      <trkpt lat="49.00418" lon="1.91075">
        <ele>23</ele>
        <time>2020-06-21T10:43:33Z</time>
      </trkpt>
      <trkpt lat="49.00418" lon="1.91063">
        <ele>22</ele>
        <time>2020-06-21T10:43:42Z</time>
      </trkpt>
      <trkpt lat="49.00419" lon="1.91057">
        <ele>22</ele>
        <time>2020-06-21T10:43:47Z</time>
      </trkpt>
      <trkpt lat="49.00415" lon="1.91051">
        <ele>22</ele>
        <time>2020-06-21T10:43:52Z</time>
      </trkpt>
      <trkpt lat="49.00413" lon="1.91045">
        <ele>22</ele>
        <time>2020-06-21T10:43:55Z</time>
      </trkpt>
      <trkpt lat="49.00415" lon="1.91014">
        <ele>21</ele>
        <time>2020-06-21T10:44:15Z</time>
      </trkpt>
      <trkpt lat="49.00417" lon="1.91007">
        <ele>21</ele>
        <time>2020-06-21T10:44:19Z</time>
      </trkpt>
      <trkpt lat="49.00418" lon="1.90999">
        <ele>21</ele>
        <time>2020-06-21T10:44:24Z</time>
      </trkpt>
      <trkpt lat="49.00418" lon="1.90992">
        <ele>21</ele>
        <time>2020-06-21T10:44:27Z</time>
      </trkpt>
      <trkpt lat="49.00413" lon="1.90972">
        <ele>21</ele>
        <time>2020-06-21T10:44:36Z</time>
      </trkpt>
      <trkpt lat="49.00401" lon="1.90986">
        <ele>21</ele>
        <time>2020-06-21T10:45:13Z</time>
      </trkpt>
      <trkpt lat="49.00404" lon="1.90988">
        <ele>22</ele>
        <time>2020-06-21T10:46:44Z</time>
      </trkpt>
      <trkpt lat="49.00409" lon="1.90972">
        <ele>21</ele>
        <time>2020-06-21T10:47:14Z</time>
      </trkpt>
      <trkpt lat="49.00406" lon="1.90971">
        <ele>19</ele>
        <time>2020-06-21T11:53:03Z</time>
      </trkpt>
      <trkpt lat="49.00407" lon="1.90982">
        <ele>18</ele>
        <time>2020-06-21T11:53:21Z</time>
      </trkpt>
      <trkpt lat="49.0041" lon="1.91001">
        <ele>18</ele>
        <time>2020-06-21T11:53:43Z</time>
      </trkpt>
      <trkpt lat="49.00412" lon="1.91008">
        <ele>18</ele>
        <time>2020-06-21T11:53:47Z</time>
      </trkpt>
      <trkpt lat="49.00416" lon="1.91013">
        <ele>18</ele>
        <time>2020-06-21T11:53:51Z</time>
      </trkpt>
      <trkpt lat="49.00421" lon="1.91017">
        <ele>18</ele>
        <time>2020-06-21T11:53:56Z</time>
      </trkpt>
      <trkpt lat="49.00427" lon="1.91013">
        <ele>19</ele>
        <time>2020-06-21T11:54:05Z</time>
      </trkpt>
      <trkpt lat="49.00432" lon="1.91015">
        <ele>19</ele>
        <time>2020-06-21T11:54:15Z</time>
      </trkpt>
      <trkpt lat="49.00433" lon="1.91036">
        <ele>20</ele>
        <time>2020-06-21T11:54:27Z</time>
      </trkpt>
      <trkpt lat="49.00437" lon="1.91036">
        <ele>22</ele>
        <time>2020-06-21T11:54:38Z</time>
      </trkpt>
      <trkpt lat="49.00441" lon="1.91023">
        <ele>22</ele>
        <time>2020-06-21T11:54:47Z</time>
      </trkpt>
      <trkpt lat="49.00444" lon="1.91009">
        <ele>23</ele>
        <time>2020-06-21T11:55:00Z</time>
      </trkpt>
      <trkpt lat="49.00438" lon="1.91003">
        <ele>23</ele>
        <time>2020-06-21T11:55:08Z</time>
      </trkpt>
      <trkpt lat="49.00428" lon="1.90999">
        <ele>23</ele>
        <time>2020-06-21T11:55:16Z</time>
      </trkpt>
      <trkpt lat="49.00412" lon="1.90998">
        <ele>23</ele>
        <time>2020-06-21T11:55:30Z</time>
      </trkpt>
      <trkpt lat="49.00397" lon="1.91002">
        <ele>23</ele>
        <time>2020-06-21T11:55:42Z</time>
      </trkpt>
      <trkpt lat="49.00388" lon="1.90999">
        <ele>23</ele>
        <time>2020-06-21T11:55:51Z</time>
      </trkpt>
      <trkpt lat="49.00377" lon="1.90995">
        <ele>23</ele>
        <time>2020-06-21T11:56:03Z</time>
      </trkpt>
      <trkpt lat="49.00371" lon="1.91001">
        <ele>22</ele>
        <time>2020-06-21T11:56:07Z</time>
      </trkpt>
      <trkpt lat="49.00361" lon="1.91003">
        <ele>22</ele>
        <time>2020-06-21T11:56:14Z</time>
      </trkpt>
      <trkpt lat="49.00347" lon="1.91006">
        <ele>22</ele>
        <time>2020-06-21T11:56:28Z</time>
      </trkpt>
      <trkpt lat="49.00341" lon="1.91005">
        <ele>22</ele>
        <time>2020-06-21T11:56:38Z</time>
      </trkpt>
      <trkpt lat="49.00336" lon="1.91003">
        <ele>22</ele>
        <time>2020-06-21T11:56:44Z</time>
      </trkpt>
      <trkpt lat="49.0033" lon="1.91005">
        <ele>21</ele>
        <time>2020-06-21T11:56:50Z</time>
      </trkpt>
      <trkpt lat="49.00324" lon="1.91005">
        <ele>21</ele>
        <time>2020-06-21T11:56:55Z</time>
      </trkpt>
      <trkpt lat="49.00319" lon="1.91001">
        <ele>21</ele>
        <time>2020-06-21T11:57:02Z</time>
      </trkpt>
      <trkpt lat="49.00313" lon="1.91001">
        <ele>20</ele>
        <time>2020-06-21T11:57:07Z</time>
      </trkpt>
      <trkpt lat="49.00308" lon="1.91001">
        <ele>20</ele>
        <time>2020-06-21T11:57:15Z</time>
      </trkpt>
      <trkpt lat="49.00304" lon="1.90996">
        <ele>20</ele>
        <time>2020-06-21T11:57:33Z</time>
      </trkpt>
      <trkpt lat="49.00299" lon="1.90995">
        <ele>20</ele>
        <time>2020-06-21T11:57:37Z</time>
      </trkpt>
      <trkpt lat="49.00294" lon="1.90997">
        <ele>20</ele>
        <time>2020-06-21T11:57:40Z</time>
      </trkpt>
      <trkpt lat="49.00288" lon="1.90996">
        <ele>21</ele>
        <time>2020-06-21T11:57:50Z</time>
      </trkpt>
      <trkpt lat="49.00269" lon="1.90998">
        <ele>21</ele>
        <time>2020-06-21T11:58:09Z</time>
      </trkpt>
      <trkpt lat="49.00252" lon="1.91008">
        <ele>21</ele>
        <time>2020-06-21T11:58:24Z</time>
      </trkpt>
      <trkpt lat="49.00241" lon="1.91008">
        <ele>21</ele>
        <time>2020-06-21T11:58:35Z</time>
      </trkpt>
      <trkpt lat="49.00234" lon="1.91">
        <ele>20</ele>
        <time>2020-06-21T11:58:45Z</time>
      </trkpt>
      <trkpt lat="49.00229" lon="1.90985">
        <ele>20</ele>
        <time>2020-06-21T11:58:51Z</time>
      </trkpt>
      <trkpt lat="49.0023" lon="1.90971">
        <ele>19</ele>
        <time>2020-06-21T11:58:59Z</time>
      </trkpt>
      <trkpt lat="49.00234" lon="1.90958">
        <ele>20</ele>
        <time>2020-06-21T11:59:09Z</time>
      </trkpt>
      <trkpt lat="49.00235" lon="1.9095">
        <ele>20</ele>
        <time>2020-06-21T11:59:13Z</time>
      </trkpt>
      <trkpt lat="49.00232" lon="1.90944">
        <ele>20</ele>
        <time>2020-06-21T11:59:25Z</time>
      </trkpt>
      <trkpt lat="49.00233" lon="1.90934">
        <ele>20</ele>
        <time>2020-06-21T11:59:33Z</time>
      </trkpt>
      <trkpt lat="49.00227" lon="1.90909">
        <ele>19</ele>
        <time>2020-06-21T11:59:49Z</time>
      </trkpt>
      <trkpt lat="49.00221" lon="1.90895">
        <ele>19</ele>
        <time>2020-06-21T11:59:58Z</time>
      </trkpt>
      <trkpt lat="49.00218" lon="1.90879">
        <ele>19</ele>
        <time>2020-06-21T12:00:06Z</time>
      </trkpt>
      <trkpt lat="49.00202" lon="1.90842">
        <ele>20</ele>
        <time>2020-06-21T12:00:27Z</time>
      </trkpt>
      <trkpt lat="49.00185" lon="1.90792">
        <ele>22</ele>
        <time>2020-06-21T12:00:59Z</time>
      </trkpt>
      <trkpt lat="49.00182" lon="1.90786">
        <ele>22</ele>
        <time>2020-06-21T12:01:03Z</time>
      </trkpt>
      <trkpt lat="49.00178" lon="1.90781">
        <ele>22</ele>
        <time>2020-06-21T12:01:12Z</time>
      </trkpt>
      <trkpt lat="49.00175" lon="1.9077">
        <ele>22</ele>
        <time>2020-06-21T12:01:22Z</time>
      </trkpt>
      <trkpt lat="49.00171" lon="1.90759">
        <ele>22</ele>
        <time>2020-06-21T12:01:33Z</time>
      </trkpt>
      <trkpt lat="49.00163" lon="1.90748">
        <ele>21</ele>
        <time>2020-06-21T12:01:43Z</time>
      </trkpt>
      <trkpt lat="49.00162" lon="1.90741">
        <ele>20</ele>
        <time>2020-06-21T12:01:48Z</time>
      </trkpt>
      <trkpt lat="49.0016" lon="1.90733">
        <ele>20</ele>
        <time>2020-06-21T12:01:53Z</time>
      </trkpt>
      <trkpt lat="49.00161" lon="1.90726">
        <ele>20</ele>
        <time>2020-06-21T12:01:57Z</time>
      </trkpt>
      <trkpt lat="49.0016" lon="1.90718">
        <ele>21</ele>
        <time>2020-06-21T12:02:01Z</time>
      </trkpt>
      <trkpt lat="49.00158" lon="1.90711">
        <ele>21</ele>
        <time>2020-06-21T12:02:05Z</time>
      </trkpt>
      <trkpt lat="49.00154" lon="1.90688">
        <ele>22</ele>
        <time>2020-06-21T12:02:15Z</time>
      </trkpt>
      <trkpt lat="49.0015" lon="1.90684">
        <ele>22</ele>
        <time>2020-06-21T12:02:19Z</time>
      </trkpt>
      <trkpt lat="49.00145" lon="1.90684">
        <ele>23</ele>
        <time>2020-06-21T12:02:23Z</time>
      </trkpt>
      <trkpt lat="49.0013" lon="1.9069">
        <ele>23</ele>
        <time>2020-06-21T12:02:37Z</time>
      </trkpt>
      <trkpt lat="49.001" lon="1.90701">
        <ele>25</ele>
        <time>2020-06-21T12:03:02Z</time>
      </trkpt>
      <trkpt lat="49.00087" lon="1.90709">
        <ele>25</ele>
        <time>2020-06-21T12:03:14Z</time>
      </trkpt>
      <trkpt lat="49.00067" lon="1.90714">
        <ele>26</ele>
        <time>2020-06-21T12:03:30Z</time>
      </trkpt>
      <trkpt lat="49.00039" lon="1.90733">
        <ele>27</ele>
        <time>2020-06-21T12:03:57Z</time>
      </trkpt>
      <trkpt lat="49.00022" lon="1.90736">
        <ele>27</ele>
        <time>2020-06-21T12:04:14Z</time>
      </trkpt>
      <trkpt lat="49.00015" lon="1.90741">
        <ele>28</ele>
        <time>2020-06-21T12:04:21Z</time>
      </trkpt>
      <trkpt lat="49.00006" lon="1.90745">
        <ele>27</ele>
        <time>2020-06-21T12:04:29Z</time>
      </trkpt>
      <trkpt lat="48.99998" lon="1.90752">
        <ele>28</ele>
        <time>2020-06-21T12:04:38Z</time>
      </trkpt>
      <trkpt lat="48.99962" lon="1.90771">
        <ele>27</ele>
        <time>2020-06-21T12:05:10Z</time>
      </trkpt>
      <trkpt lat="48.99953" lon="1.90777">
        <ele>26</ele>
        <time>2020-06-21T12:05:18Z</time>
      </trkpt>
      <trkpt lat="48.99943" lon="1.90784">
        <ele>26</ele>
        <time>2020-06-21T12:05:25Z</time>
      </trkpt>
      <trkpt lat="48.99927" lon="1.9079">
        <ele>26</ele>
        <time>2020-06-21T12:05:39Z</time>
      </trkpt>
      <trkpt lat="48.99922" lon="1.90794">
        <ele>26</ele>
        <time>2020-06-21T12:05:43Z</time>
      </trkpt>
      <trkpt lat="48.99913" lon="1.90801">
        <ele>25</ele>
        <time>2020-06-21T12:05:51Z</time>
      </trkpt>
      <trkpt lat="48.99908" lon="1.90802">
        <ele>25</ele>
        <time>2020-06-21T12:05:55Z</time>
      </trkpt>
      <trkpt lat="48.99899" lon="1.90809">
        <ele>25</ele>
        <time>2020-06-21T12:06:04Z</time>
      </trkpt>
      <trkpt lat="48.99888" lon="1.90815">
        <ele>25</ele>
        <time>2020-06-21T12:06:12Z</time>
      </trkpt>
      <trkpt lat="48.99876" lon="1.90827">
        <ele>24</ele>
        <time>2020-06-21T12:06:24Z</time>
      </trkpt>
      <trkpt lat="48.99837" lon="1.90852">
        <ele>21</ele>
        <time>2020-06-21T12:06:58Z</time>
      </trkpt>
      <trkpt lat="48.99828" lon="1.90858">
        <ele>21</ele>
        <time>2020-06-21T12:07:06Z</time>
      </trkpt>
      <trkpt lat="48.99819" lon="1.90869">
        <ele>21</ele>
        <time>2020-06-21T12:07:15Z</time>
      </trkpt>
      <trkpt lat="48.99815" lon="1.90874">
        <ele>21</ele>
        <time>2020-06-21T12:07:19Z</time>
      </trkpt>
      <trkpt lat="48.99806" lon="1.90882">
        <ele>21</ele>
        <time>2020-06-21T12:07:27Z</time>
      </trkpt>
      <trkpt lat="48.99802" lon="1.90887">
        <ele>21</ele>
        <time>2020-06-21T12:07:31Z</time>
      </trkpt>
      <trkpt lat="48.99798" lon="1.90893">
        <ele>20</ele>
        <time>2020-06-21T12:07:36Z</time>
      </trkpt>
      <trkpt lat="48.99794" lon="1.90898">
        <ele>20</ele>
        <time>2020-06-21T12:07:40Z</time>
      </trkpt>
      <trkpt lat="48.99784" lon="1.90917">
        <ele>20</ele>
        <time>2020-06-21T12:07:52Z</time>
      </trkpt>
      <trkpt lat="48.99778" lon="1.90929">
        <ele>20</ele>
        <time>2020-06-21T12:08:00Z</time>
      </trkpt>
      <trkpt lat="48.99772" lon="1.90942">
        <ele>20</ele>
        <time>2020-06-21T12:08:09Z</time>
      </trkpt>
      <trkpt lat="48.9977" lon="1.90948">
        <ele>20</ele>
        <time>2020-06-21T12:08:12Z</time>
      </trkpt>
      <trkpt lat="48.99758" lon="1.91">
        <ele>20</ele>
        <time>2020-06-21T12:08:41Z</time>
      </trkpt>
      <trkpt lat="48.99748" lon="1.91044">
        <ele>20</ele>
        <time>2020-06-21T12:09:05Z</time>
      </trkpt>
      <trkpt lat="48.99746" lon="1.91052">
        <ele>20</ele>
        <time>2020-06-21T12:09:09Z</time>
      </trkpt>
      <trkpt lat="48.99743" lon="1.91059">
        <ele>20</ele>
        <time>2020-06-21T12:09:14Z</time>
      </trkpt>
      <trkpt lat="48.99741" lon="1.91065">
        <ele>20</ele>
        <time>2020-06-21T12:09:18Z</time>
      </trkpt>
      <trkpt lat="48.99735" lon="1.91091">
        <ele>20</ele>
        <time>2020-06-21T12:09:32Z</time>
      </trkpt>
      <trkpt lat="48.99734" lon="1.91098">
        <ele>20</ele>
        <time>2020-06-21T12:09:35Z</time>
      </trkpt>
      <trkpt lat="48.99732" lon="1.91104">
        <ele>19</ele>
        <time>2020-06-21T12:09:51Z</time>
      </trkpt>
      <trkpt lat="48.99729" lon="1.91112">
        <ele>20</ele>
        <time>2020-06-21T12:09:56Z</time>
      </trkpt>
      <trkpt lat="48.99725" lon="1.9112">
        <ele>19</ele>
        <time>2020-06-21T12:10:04Z</time>
      </trkpt>
      <trkpt lat="48.99729" lon="1.91125">
        <ele>21</ele>
        <time>2020-06-21T12:10:22Z</time>
      </trkpt>
      <trkpt lat="48.99728" lon="1.91135">
        <ele>21</ele>
        <time>2020-06-21T12:10:35Z</time>
      </trkpt>
      <trkpt lat="48.99727" lon="1.91142">
        <ele>21</ele>
        <time>2020-06-21T12:10:39Z</time>
      </trkpt>
      <trkpt lat="48.99724" lon="1.91151">
        <ele>20</ele>
        <time>2020-06-21T12:10:46Z</time>
      </trkpt>
      <trkpt lat="48.99723" lon="1.91158">
        <ele>20</ele>
        <time>2020-06-21T12:10:51Z</time>
      </trkpt>
      <trkpt lat="48.99721" lon="1.91165">
        <ele>20</ele>
        <time>2020-06-21T12:10:56Z</time>
      </trkpt>
      <trkpt lat="48.99719" lon="1.91172">
        <ele>21</ele>
        <time>2020-06-21T12:11:38Z</time>
      </trkpt>
      <trkpt lat="48.99712" lon="1.91197">
        <ele>21</ele>
        <time>2020-06-21T12:11:49Z</time>
      </trkpt>
      <trkpt lat="48.99712" lon="1.91215">
        <ele>21</ele>
        <time>2020-06-21T12:11:57Z</time>
      </trkpt>
      <trkpt lat="48.99712" lon="1.91224">
        <ele>20</ele>
        <time>2020-06-21T12:12:02Z</time>
      </trkpt>
      <trkpt lat="48.99713" lon="1.91233">
        <ele>20</ele>
        <time>2020-06-21T12:12:06Z</time>
      </trkpt>
      <trkpt lat="48.99713" lon="1.91249">
        <ele>20</ele>
        <time>2020-06-21T12:12:14Z</time>
      </trkpt>
      <trkpt lat="48.99717" lon="1.91288">
        <ele>21</ele>
        <time>2020-06-21T12:12:31Z</time>
      </trkpt>
      <trkpt lat="48.99721" lon="1.91301">
        <ele>21</ele>
        <time>2020-06-21T12:12:37Z</time>
      </trkpt>
      <trkpt lat="48.99747" lon="1.91364">
        <ele>21</ele>
        <time>2020-06-21T12:13:12Z</time>
      </trkpt>
      <trkpt lat="48.99745" lon="1.91371">
        <ele>21</ele>
        <time>2020-06-21T12:13:17Z</time>
      </trkpt>
      <trkpt lat="48.99746" lon="1.9138">
        <ele>21</ele>
        <time>2020-06-21T12:13:21Z</time>
      </trkpt>
      <trkpt lat="48.99745" lon="1.91388">
        <ele>22</ele>
        <time>2020-06-21T12:13:26Z</time>
      </trkpt>
      <trkpt lat="48.99743" lon="1.91395">
        <ele>22</ele>
        <time>2020-06-21T12:13:30Z</time>
      </trkpt>
      <trkpt lat="48.99741" lon="1.914">
        <ele>22</ele>
        <time>2020-06-21T12:13:34Z</time>
      </trkpt>
      <trkpt lat="48.9974" lon="1.91408">
        <ele>21</ele>
        <time>2020-06-21T12:13:38Z</time>
      </trkpt>
      <trkpt lat="48.99738" lon="1.91425">
        <ele>22</ele>
        <time>2020-06-21T12:13:46Z</time>
      </trkpt>
      <trkpt lat="48.99736" lon="1.91432">
        <ele>22</ele>
        <time>2020-06-21T12:13:50Z</time>
      </trkpt>
      <trkpt lat="48.99731" lon="1.91432">
        <ele>22</ele>
        <time>2020-06-21T12:13:54Z</time>
      </trkpt>
      <trkpt lat="48.99727" lon="1.91437">
        <ele>22</ele>
        <time>2020-06-21T12:13:58Z</time>
      </trkpt>
      <trkpt lat="48.99723" lon="1.91442">
        <ele>22</ele>
        <time>2020-06-21T12:14:02Z</time>
      </trkpt>
      <trkpt lat="48.99713" lon="1.91469">
        <ele>23</ele>
        <time>2020-06-21T12:14:17Z</time>
      </trkpt>
      <trkpt lat="48.99706" lon="1.91481">
        <ele>23</ele>
        <time>2020-06-21T12:14:25Z</time>
      </trkpt>
      <trkpt lat="48.99701" lon="1.91494">
        <ele>22</ele>
        <time>2020-06-21T12:14:33Z</time>
      </trkpt>
      <trkpt lat="48.99693" lon="1.91516">
        <ele>23</ele>
        <time>2020-06-21T12:14:47Z</time>
      </trkpt>
      <trkpt lat="48.9969" lon="1.91523">
        <ele>23</ele>
        <time>2020-06-21T12:14:51Z</time>
      </trkpt>
      <trkpt lat="48.99687" lon="1.9153">
        <ele>23</ele>
        <time>2020-06-21T12:14:55Z</time>
      </trkpt>
      <trkpt lat="48.9968" lon="1.91542">
        <ele>23</ele>
        <time>2020-06-21T12:15:05Z</time>
      </trkpt>
      <trkpt lat="48.99677" lon="1.91548">
        <ele>24</ele>
        <time>2020-06-21T12:15:09Z</time>
      </trkpt>
      <trkpt lat="48.99673" lon="1.91553">
        <ele>24</ele>
        <time>2020-06-21T12:15:13Z</time>
      </trkpt>
      <trkpt lat="48.9967" lon="1.91559">
        <ele>24</ele>
        <time>2020-06-21T12:15:17Z</time>
      </trkpt>
      <trkpt lat="48.99667" lon="1.91563">
        <ele>23</ele>
        <time>2020-06-21T12:15:21Z</time>
      </trkpt>
      <trkpt lat="48.99662" lon="1.91557">
        <ele>23</ele>
        <time>2020-06-21T12:15:28Z</time>
      </trkpt>
      <trkpt lat="48.99657" lon="1.91555">
        <ele>23</ele>
        <time>2020-06-21T12:15:32Z</time>
      </trkpt>
      <trkpt lat="48.99651" lon="1.91556">
        <ele>23</ele>
        <time>2020-06-21T12:15:37Z</time>
      </trkpt>
      <trkpt lat="48.99642" lon="1.91564">
        <ele>23</ele>
        <time>2020-06-21T12:15:45Z</time>
      </trkpt>
      <trkpt lat="48.99622" lon="1.91575">
        <ele>23</ele>
        <time>2020-06-21T12:16:02Z</time>
      </trkpt>
      <trkpt lat="48.99608" lon="1.91585">
        <ele>23</ele>
        <time>2020-06-21T12:16:15Z</time>
      </trkpt>
      <trkpt lat="48.99596" lon="1.91587">
        <ele>23</ele>
        <time>2020-06-21T12:16:22Z</time>
      </trkpt>
      <trkpt lat="48.99588" lon="1.91587">
        <ele>24</ele>
        <time>2020-06-21T12:16:32Z</time>
      </trkpt>
      <trkpt lat="48.99584" lon="1.91585">
        <ele>23</ele>
        <time>2020-06-21T12:16:37Z</time>
      </trkpt>
      <trkpt lat="48.99574" lon="1.91587">
        <ele>23</ele>
        <time>2020-06-21T12:16:45Z</time>
      </trkpt>
      <trkpt lat="48.99564" lon="1.91589">
        <ele>24</ele>
        <time>2020-06-21T12:16:53Z</time>
      </trkpt>
      <trkpt lat="48.99549" lon="1.91587">
        <ele>24</ele>
        <time>2020-06-21T12:17:06Z</time>
      </trkpt>
      <trkpt lat="48.99542" lon="1.91585">
        <ele>24</ele>
        <time>2020-06-21T12:17:12Z</time>
      </trkpt>
      <trkpt lat="48.99535" lon="1.91582">
        <ele>24</ele>
        <time>2020-06-21T12:17:20Z</time>
      </trkpt>
      <trkpt lat="48.99511" lon="1.91577">
        <ele>24</ele>
        <time>2020-06-21T12:17:38Z</time>
      </trkpt>
      <trkpt lat="48.99482" lon="1.91562">
        <ele>24</ele>
        <time>2020-06-21T12:18:06Z</time>
      </trkpt>
      <trkpt lat="48.99469" lon="1.9154">
        <ele>23</ele>
        <time>2020-06-21T12:18:23Z</time>
      </trkpt>
      <trkpt lat="48.99463" lon="1.91539">
        <ele>23</ele>
        <time>2020-06-21T12:18:27Z</time>
      </trkpt>
      <trkpt lat="48.99453" lon="1.91543">
        <ele>24</ele>
        <time>2020-06-21T12:18:35Z</time>
      </trkpt>
      <trkpt lat="48.99449" lon="1.91545">
        <ele>24</ele>
        <time>2020-06-21T12:18:39Z</time>
      </trkpt>
      <trkpt lat="48.99444" lon="1.91545">
        <ele>24</ele>
        <time>2020-06-21T12:18:43Z</time>
      </trkpt>
      <trkpt lat="48.99429" lon="1.9154">
        <ele>23</ele>
        <time>2020-06-21T12:18:55Z</time>
      </trkpt>
      <trkpt lat="48.99421" lon="1.91546">
        <ele>23</ele>
        <time>2020-06-21T12:19:05Z</time>
      </trkpt>
      <trkpt lat="48.99409" lon="1.91542">
        <ele>23</ele>
        <time>2020-06-21T12:19:15Z</time>
      </trkpt>
      <trkpt lat="48.99394" lon="1.91544">
        <ele>23</ele>
        <time>2020-06-21T12:19:25Z</time>
      </trkpt>
      <trkpt lat="48.9939" lon="1.91542">
        <ele>23</ele>
        <time>2020-06-21T12:19:30Z</time>
      </trkpt>
      <trkpt lat="48.9938" lon="1.91545">
        <ele>23</ele>
        <time>2020-06-21T12:19:39Z</time>
      </trkpt>
      <trkpt lat="48.99374" lon="1.91544">
        <ele>23</ele>
        <time>2020-06-21T12:19:44Z</time>
      </trkpt>
      <trkpt lat="48.9936" lon="1.91548">
        <ele>23</ele>
        <time>2020-06-21T12:19:58Z</time>
      </trkpt>
      <trkpt lat="48.99355" lon="1.91553">
        <ele>23</ele>
        <time>2020-06-21T12:20:01Z</time>
      </trkpt>
      <trkpt lat="48.99351" lon="1.91555">
        <ele>23</ele>
        <time>2020-06-21T12:20:05Z</time>
      </trkpt>
      <trkpt lat="48.99346" lon="1.91557">
        <ele>23</ele>
        <time>2020-06-21T12:20:09Z</time>
      </trkpt>
      <trkpt lat="48.99341" lon="1.91561">
        <ele>23</ele>
        <time>2020-06-21T12:20:12Z</time>
      </trkpt>
      <trkpt lat="48.99337" lon="1.91564">
        <ele>23</ele>
        <time>2020-06-21T12:20:15Z</time>
      </trkpt>
      <trkpt lat="48.99326" lon="1.91567">
        <ele>23</ele>
        <time>2020-06-21T12:20:26Z</time>
      </trkpt>
      <trkpt lat="48.99316" lon="1.91562">
        <ele>23</ele>
        <time>2020-06-21T12:20:34Z</time>
      </trkpt>
      <trkpt lat="48.99313" lon="1.91568">
        <ele>23</ele>
        <time>2020-06-21T12:20:37Z</time>
      </trkpt>
      <trkpt lat="48.99309" lon="1.91572">
        <ele>23</ele>
        <time>2020-06-21T12:20:40Z</time>
      </trkpt>
      <trkpt lat="48.99308" lon="1.9158">
        <ele>23</ele>
        <time>2020-06-21T12:20:44Z</time>
      </trkpt>
      <trkpt lat="48.99309" lon="1.91593">
        <ele>23</ele>
        <time>2020-06-21T12:20:51Z</time>
      </trkpt>
      <trkpt lat="48.99309" lon="1.91601">
        <ele>23</ele>
        <time>2020-06-21T12:20:56Z</time>
      </trkpt>
      <trkpt lat="48.99311" lon="1.91611">
        <ele>24</ele>
        <time>2020-06-21T12:21:02Z</time>
      </trkpt>
      <trkpt lat="48.99315" lon="1.91617">
        <ele>24</ele>
        <time>2020-06-21T12:21:06Z</time>
      </trkpt>
      <trkpt lat="48.99316" lon="1.91624">
        <ele>24</ele>
        <time>2020-06-21T12:21:10Z</time>
      </trkpt>
      <trkpt lat="48.99318" lon="1.9163">
        <ele>24</ele>
        <time>2020-06-21T12:21:13Z</time>
      </trkpt>
      <trkpt lat="48.9932" lon="1.91637">
        <ele>24</ele>
        <time>2020-06-21T12:21:17Z</time>
      </trkpt>
      <trkpt lat="48.99342" lon="1.91692">
        <ele>25</ele>
        <time>2020-06-21T12:21:50Z</time>
      </trkpt>
      <trkpt lat="48.99349" lon="1.91712">
        <ele>25</ele>
        <time>2020-06-21T12:22:02Z</time>
      </trkpt>
      <trkpt lat="48.99354" lon="1.91728">
        <ele>25</ele>
        <time>2020-06-21T12:22:13Z</time>
      </trkpt>
      <trkpt lat="48.99365" lon="1.91764">
        <ele>27</ele>
        <time>2020-06-21T12:22:33Z</time>
      </trkpt>
      <trkpt lat="48.99382" lon="1.91815">
        <ele>27</ele>
        <time>2020-06-21T12:23:04Z</time>
      </trkpt>
      <trkpt lat="48.99389" lon="1.91837">
        <ele>27</ele>
        <time>2020-06-21T12:23:16Z</time>
      </trkpt>
      <trkpt lat="48.99391" lon="1.91845">
        <ele>27</ele>
        <time>2020-06-21T12:23:21Z</time>
      </trkpt>
      <trkpt lat="48.99389" lon="1.91853">
        <ele>27</ele>
        <time>2020-06-21T12:23:26Z</time>
      </trkpt>
      <trkpt lat="48.99385" lon="1.91859">
        <ele>27</ele>
        <time>2020-06-21T12:23:31Z</time>
      </trkpt>
      <trkpt lat="48.99378" lon="1.9187">
        <ele>29</ele>
        <time>2020-06-21T12:23:38Z</time>
      </trkpt>
      <trkpt lat="48.99376" lon="1.91879">
        <ele>29</ele>
        <time>2020-06-21T12:23:42Z</time>
      </trkpt>
      <trkpt lat="48.99375" lon="1.91886">
        <ele>29</ele>
        <time>2020-06-21T12:23:46Z</time>
      </trkpt>
      <trkpt lat="48.99372" lon="1.91892">
        <ele>28</ele>
        <time>2020-06-21T12:23:49Z</time>
      </trkpt>
      <trkpt lat="48.99368" lon="1.91898">
        <ele>28</ele>
        <time>2020-06-21T12:23:53Z</time>
      </trkpt>
      <trkpt lat="48.9935" lon="1.91933">
        <ele>29</ele>
        <time>2020-06-21T12:24:18Z</time>
      </trkpt>
      <trkpt lat="48.99333" lon="1.91954">
        <ele>29</ele>
        <time>2020-06-21T12:24:34Z</time>
      </trkpt>
      <trkpt lat="48.9933" lon="1.9196">
        <ele>29</ele>
        <time>2020-06-21T12:24:37Z</time>
      </trkpt>
      <trkpt lat="48.99327" lon="1.91964">
        <ele>30</ele>
        <time>2020-06-21T12:24:41Z</time>
      </trkpt>
      <trkpt lat="48.99321" lon="1.91966">
        <ele>30</ele>
        <time>2020-06-21T12:24:44Z</time>
      </trkpt>
      <trkpt lat="48.99318" lon="1.91972">
        <ele>30</ele>
        <time>2020-06-21T12:24:48Z</time>
      </trkpt>
      <trkpt lat="48.99315" lon="1.91979">
        <ele>30</ele>
        <time>2020-06-21T12:24:52Z</time>
      </trkpt>
      <trkpt lat="48.99311" lon="1.91993">
        <ele>30</ele>
        <time>2020-06-21T12:25:01Z</time>
      </trkpt>
      <trkpt lat="48.99302" lon="1.92011">
        <ele>30</ele>
        <time>2020-06-21T12:25:13Z</time>
      </trkpt>
      <trkpt lat="48.99296" lon="1.92021">
        <ele>30</ele>
        <time>2020-06-21T12:25:21Z</time>
      </trkpt>
      <trkpt lat="48.99292" lon="1.92027">
        <ele>30</ele>
        <time>2020-06-21T12:25:25Z</time>
      </trkpt>
      <trkpt lat="48.99283" lon="1.92036">
        <ele>31</ele>
        <time>2020-06-21T12:25:33Z</time>
      </trkpt>
      <trkpt lat="48.99276" lon="1.92046">
        <ele>31</ele>
        <time>2020-06-21T12:25:41Z</time>
      </trkpt>
      <trkpt lat="48.99259" lon="1.92064">
        <ele>31</ele>
        <time>2020-06-21T12:25:57Z</time>
      </trkpt>
      <trkpt lat="48.99252" lon="1.92075">
        <ele>31</ele>
        <time>2020-06-21T12:26:05Z</time>
      </trkpt>
      <trkpt lat="48.99248" lon="1.9208">
        <ele>31</ele>
        <time>2020-06-21T12:26:09Z</time>
      </trkpt>
      <trkpt lat="48.99243" lon="1.92082">
        <ele>32</ele>
        <time>2020-06-21T12:26:13Z</time>
      </trkpt>
      <trkpt lat="48.99232" lon="1.92099">
        <ele>32</ele>
        <time>2020-06-21T12:26:25Z</time>
      </trkpt>
      <trkpt lat="48.9923" lon="1.92106">
        <ele>32</ele>
        <time>2020-06-21T12:26:29Z</time>
      </trkpt>
      <trkpt lat="48.99217" lon="1.9212">
        <ele>33</ele>
        <time>2020-06-21T12:26:40Z</time>
      </trkpt>
      <trkpt lat="48.99213" lon="1.92125">
        <ele>33</ele>
        <time>2020-06-21T12:26:45Z</time>
      </trkpt>
      <trkpt lat="48.99208" lon="1.92129">
        <ele>33</ele>
        <time>2020-06-21T12:26:48Z</time>
      </trkpt>
      <trkpt lat="48.99204" lon="1.92135">
        <ele>33</ele>
        <time>2020-06-21T12:26:52Z</time>
      </trkpt>
      <trkpt lat="48.992" lon="1.9214">
        <ele>33</ele>
        <time>2020-06-21T12:26:57Z</time>
      </trkpt>
      <trkpt lat="48.99196" lon="1.92147">
        <ele>33</ele>
        <time>2020-06-21T12:27:02Z</time>
      </trkpt>
      <trkpt lat="48.99191" lon="1.9216">
        <ele>33</ele>
        <time>2020-06-21T12:27:09Z</time>
      </trkpt>
      <trkpt lat="48.99186" lon="1.92164">
        <ele>33</ele>
        <time>2020-06-21T12:27:13Z</time>
      </trkpt>
      <trkpt lat="48.99183" lon="1.9217">
        <ele>34</ele>
        <time>2020-06-21T12:27:17Z</time>
      </trkpt>
      <trkpt lat="48.99178" lon="1.92173">
        <ele>34</ele>
        <time>2020-06-21T12:27:21Z</time>
      </trkpt>
      <trkpt lat="48.99169" lon="1.92193">
        <ele>34</ele>
        <time>2020-06-21T12:27:34Z</time>
      </trkpt>
      <trkpt lat="48.99156" lon="1.92209">
        <ele>35</ele>
        <time>2020-06-21T12:27:45Z</time>
      </trkpt>
      <trkpt lat="48.9915" lon="1.9222">
        <ele>35</ele>
        <time>2020-06-21T12:27:52Z</time>
      </trkpt>
      <trkpt lat="48.99146" lon="1.92227">
        <ele>34</ele>
        <time>2020-06-21T12:27:56Z</time>
      </trkpt>
      <trkpt lat="48.99136" lon="1.9223">
        <ele>35</ele>
        <time>2020-06-21T12:28:02Z</time>
      </trkpt>
      <trkpt lat="48.99132" lon="1.92234">
        <ele>35</ele>
        <time>2020-06-21T12:28:07Z</time>
      </trkpt>
      <trkpt lat="48.99127" lon="1.92248">
        <ele>35</ele>
        <time>2020-06-21T12:28:15Z</time>
      </trkpt>
      <trkpt lat="48.99099" lon="1.92285">
        <ele>37</ele>
        <time>2020-06-21T12:28:44Z</time>
      </trkpt>
      <trkpt lat="48.99094" lon="1.92288">
        <ele>37</ele>
        <time>2020-06-21T12:28:48Z</time>
      </trkpt>
      <trkpt lat="48.9909" lon="1.92292">
        <ele>37</ele>
        <time>2020-06-21T12:28:52Z</time>
      </trkpt>
      <trkpt lat="48.99085" lon="1.92295">
        <ele>37</ele>
        <time>2020-06-21T12:28:56Z</time>
      </trkpt>
      <trkpt lat="48.99077" lon="1.92303">
        <ele>37</ele>
        <time>2020-06-21T12:29:05Z</time>
      </trkpt>
      <trkpt lat="48.99073" lon="1.92307">
        <ele>37</ele>
        <time>2020-06-21T12:29:09Z</time>
      </trkpt>
      <trkpt lat="48.99068" lon="1.92308">
        <ele>37</ele>
        <time>2020-06-21T12:29:28Z</time>
      </trkpt>
      <trkpt lat="48.99067" lon="1.92316">
        <ele>38</ele>
        <time>2020-06-21T12:29:48Z</time>
      </trkpt>
      <trkpt lat="48.99068" lon="1.92324">
        <ele>38</ele>
        <time>2020-06-21T12:29:52Z</time>
      </trkpt>
      <trkpt lat="48.99069" lon="1.9234">
        <ele>36</ele>
        <time>2020-06-21T12:30:01Z</time>
      </trkpt>
      <trkpt lat="48.99069" lon="1.9236">
        <ele>37</ele>
        <time>2020-06-21T12:30:12Z</time>
      </trkpt>
      <trkpt lat="48.99069" lon="1.92368">
        <ele>37</ele>
        <time>2020-06-21T12:30:16Z</time>
      </trkpt>
      <trkpt lat="48.99069" lon="1.92384">
        <ele>37</ele>
        <time>2020-06-21T12:30:24Z</time>
      </trkpt>
      <trkpt lat="48.99071" lon="1.92441">
        <ele>36</ele>
        <time>2020-06-21T12:30:51Z</time>
      </trkpt>
      <trkpt lat="48.99064" lon="1.92479">
        <ele>36</ele>
        <time>2020-06-21T12:31:12Z</time>
      </trkpt>
      <trkpt lat="48.99061" lon="1.92494">
        <ele>36</ele>
        <time>2020-06-21T12:31:20Z</time>
      </trkpt>
      <trkpt lat="48.9906" lon="1.92502">
        <ele>37</ele>
        <time>2020-06-21T12:31:24Z</time>
      </trkpt>
      <trkpt lat="48.99053" lon="1.92525">
        <ele>36</ele>
        <time>2020-06-21T12:31:36Z</time>
      </trkpt>
      <trkpt lat="48.99051" lon="1.92533">
        <ele>37</ele>
        <time>2020-06-21T12:31:40Z</time>
      </trkpt>
      <trkpt lat="48.99047" lon="1.92541">
        <ele>37</ele>
        <time>2020-06-21T12:31:46Z</time>
      </trkpt>
      <trkpt lat="48.99045" lon="1.92549">
        <ele>36</ele>
        <time>2020-06-21T12:31:50Z</time>
      </trkpt>
      <trkpt lat="48.99041" lon="1.92562">
        <ele>37</ele>
        <time>2020-06-21T12:31:57Z</time>
      </trkpt>
      <trkpt lat="48.99037" lon="1.92568">
        <ele>37</ele>
        <time>2020-06-21T12:32:01Z</time>
      </trkpt>
      <trkpt lat="48.99035" lon="1.92576">
        <ele>37</ele>
        <time>2020-06-21T12:32:06Z</time>
      </trkpt>
      <trkpt lat="48.99033" lon="1.92599">
        <ele>37</ele>
        <time>2020-06-21T12:32:18Z</time>
      </trkpt>
      <trkpt lat="48.99024" lon="1.92625">
        <ele>38</ele>
        <time>2020-06-21T12:32:35Z</time>
      </trkpt>
      <trkpt lat="48.99024" lon="1.92632">
        <ele>38</ele>
        <time>2020-06-21T12:32:38Z</time>
      </trkpt>
      <trkpt lat="48.99026" lon="1.9264">
        <ele>39</ele>
        <time>2020-06-21T12:32:41Z</time>
      </trkpt>
      <trkpt lat="48.99029" lon="1.92632">
        <ele>39</ele>
        <time>2020-06-21T12:32:58Z</time>
      </trkpt>
      <trkpt lat="48.9903" lon="1.92624">
        <ele>39</ele>
        <time>2020-06-21T12:33:10Z</time>
      </trkpt>
      <trkpt lat="48.99031" lon="1.9263">
        <ele>39</ele>
        <time>2020-06-21T12:34:16Z</time>
      </trkpt>
      <trkpt lat="48.99025" lon="1.9263">
        <ele>38</ele>
        <time>2020-06-21T12:39:19Z</time>
      </trkpt>
      <trkpt lat="48.99016" lon="1.92634">
        <ele>39</ele>
        <time>2020-06-21T12:40:26Z</time>
      </trkpt>
      <trkpt lat="48.99009" lon="1.92633">
        <ele>39</ele>
        <time>2020-06-21T12:40:35Z</time>
      </trkpt>
      <trkpt lat="48.98993" lon="1.92629">
        <ele>40</ele>
        <time>2020-06-21T12:40:50Z</time>
      </trkpt>
      <trkpt lat="48.98961" lon="1.92628">
        <ele>41</ele>
        <time>2020-06-21T12:41:22Z</time>
      </trkpt>
      <trkpt lat="48.98956" lon="1.92627">
        <ele>41</ele>
        <time>2020-06-21T12:41:27Z</time>
      </trkpt>
      <trkpt lat="48.98951" lon="1.92624">
        <ele>41</ele>
        <time>2020-06-21T12:41:31Z</time>
      </trkpt>
      <trkpt lat="48.98938" lon="1.92626">
        <ele>41</ele>
        <time>2020-06-21T12:41:45Z</time>
      </trkpt>
      <trkpt lat="48.98918" lon="1.92618">
        <ele>41</ele>
        <time>2020-06-21T12:42:02Z</time>
      </trkpt>
      <trkpt lat="48.98893" lon="1.92625">
        <ele>42</ele>
        <time>2020-06-21T12:42:19Z</time>
      </trkpt>
      <trkpt lat="48.98878" lon="1.92624">
        <ele>42</ele>
        <time>2020-06-21T12:42:29Z</time>
      </trkpt>
      <trkpt lat="48.98874" lon="1.92631">
        <ele>42</ele>
        <time>2020-06-21T12:42:33Z</time>
      </trkpt>
      <trkpt lat="48.9887" lon="1.92646">
        <ele>42</ele>
        <time>2020-06-21T12:42:40Z</time>
      </trkpt>
      <trkpt lat="48.98867" lon="1.92652">
        <ele>42</ele>
        <time>2020-06-21T12:42:44Z</time>
      </trkpt>
      <trkpt lat="48.98861" lon="1.92653">
        <ele>43</ele>
        <time>2020-06-21T12:42:48Z</time>
      </trkpt>
      <trkpt lat="48.98857" lon="1.92656">
        <ele>43</ele>
        <time>2020-06-21T12:42:52Z</time>
      </trkpt>
      <trkpt lat="48.98853" lon="1.92662">
        <ele>43</ele>
        <time>2020-06-21T12:42:56Z</time>
      </trkpt>
      <trkpt lat="48.98843" lon="1.9267">
        <ele>42</ele>
        <time>2020-06-21T12:43:06Z</time>
      </trkpt>
      <trkpt lat="48.98838" lon="1.92671">
        <ele>43</ele>
        <time>2020-06-21T12:43:11Z</time>
      </trkpt>
      <trkpt lat="48.98836" lon="1.92677">
        <ele>43</ele>
        <time>2020-06-21T12:43:15Z</time>
      </trkpt>
      <trkpt lat="48.98823" lon="1.92699">
        <ele>43</ele>
        <time>2020-06-21T12:43:30Z</time>
      </trkpt>
      <trkpt lat="48.98816" lon="1.92709">
        <ele>43</ele>
        <time>2020-06-21T12:43:40Z</time>
      </trkpt>
      <trkpt lat="48.98813" lon="1.92722">
        <ele>43</ele>
        <time>2020-06-21T12:43:51Z</time>
      </trkpt>
      <trkpt lat="48.98811" lon="1.92737">
        <ele>43</ele>
        <time>2020-06-21T12:44:01Z</time>
      </trkpt>
      <trkpt lat="48.98808" lon="1.92744">
        <ele>43</ele>
        <time>2020-06-21T12:44:05Z</time>
      </trkpt>
      <trkpt lat="48.98812" lon="1.92749">
        <ele>44</ele>
        <time>2020-06-21T12:44:13Z</time>
      </trkpt>
      <trkpt lat="48.98811" lon="1.92756">
        <ele>44</ele>
        <time>2020-06-21T12:44:19Z</time>
      </trkpt>
      <trkpt lat="48.98812" lon="1.92777">
        <ele>44</ele>
        <time>2020-06-21T12:44:35Z</time>
      </trkpt>
      <trkpt lat="48.98811" lon="1.92784">
        <ele>44</ele>
        <time>2020-06-21T12:44:39Z</time>
      </trkpt>
      <trkpt lat="48.98811" lon="1.92793">
        <ele>44</ele>
        <time>2020-06-21T12:44:43Z</time>
      </trkpt>
      <trkpt lat="48.98813" lon="1.92801">
        <ele>44</ele>
        <time>2020-06-21T12:44:58Z</time>
      </trkpt>
      <trkpt lat="48.98817" lon="1.92805">
        <ele>45</ele>
        <time>2020-06-21T12:45:22Z</time>
      </trkpt>
      <trkpt lat="48.98819" lon="1.92793">
        <ele>44</ele>
        <time>2020-06-21T12:45:41Z</time>
      </trkpt>
      <trkpt lat="48.9882" lon="1.92781">
        <ele>44</ele>
        <time>2020-06-21T12:45:54Z</time>
      </trkpt>
      <trkpt lat="48.98819" lon="1.92774">
        <ele>44</ele>
        <time>2020-06-21T12:45:57Z</time>
      </trkpt>
      <trkpt lat="48.98816" lon="1.92768">
        <ele>44</ele>
        <time>2020-06-21T12:46:09Z</time>
      </trkpt>
      <trkpt lat="48.98813" lon="1.92764">
        <ele>43</ele>
        <time>2020-06-21T12:46:20Z</time>
      </trkpt>
      <trkpt lat="48.98818" lon="1.92758">
        <ele>45</ele>
        <time>2020-06-21T12:47:03Z</time>
      </trkpt>
      <trkpt lat="48.98817" lon="1.92774">
        <ele>43</ele>
        <time>2020-06-21T12:47:12Z</time>
      </trkpt>
      <trkpt lat="48.98819" lon="1.92785">
        <ele>43</ele>
        <time>2020-06-21T12:47:17Z</time>
      </trkpt>
      <trkpt lat="48.9882" lon="1.92799">
        <ele>44</ele>
        <time>2020-06-21T12:47:25Z</time>
      </trkpt>
      <trkpt lat="48.9882" lon="1.92807">
        <ele>44</ele>
        <time>2020-06-21T12:47:29Z</time>
      </trkpt>
      <trkpt lat="48.98823" lon="1.92815">
        <ele>44</ele>
        <time>2020-06-21T12:48:07Z</time>
      </trkpt>
      <trkpt lat="48.98826" lon="1.9282">
        <ele>43</ele>
        <time>2020-06-21T12:48:41Z</time>
      </trkpt>
      <trkpt lat="48.98826" lon="1.92828">
        <ele>43</ele>
        <time>2020-06-21T12:48:50Z</time>
      </trkpt>
      <trkpt lat="48.98822" lon="1.92844">
        <ele>44</ele>
        <time>2020-06-21T12:49:02Z</time>
      </trkpt>
      <trkpt lat="48.98821" lon="1.92853">
        <ele>44</ele>
        <time>2020-06-21T12:49:07Z</time>
      </trkpt>
      <trkpt lat="48.9882" lon="1.9286">
        <ele>44</ele>
        <time>2020-06-21T12:49:12Z</time>
      </trkpt>
      <trkpt lat="48.98822" lon="1.92868">
        <ele>44</ele>
        <time>2020-06-21T12:49:20Z</time>
      </trkpt>
      <trkpt lat="48.98814" lon="1.92875">
        <ele>45</ele>
        <time>2020-06-21T12:49:31Z</time>
      </trkpt>
      <trkpt lat="48.98808" lon="1.92871">
        <ele>45</ele>
        <time>2020-06-21T12:49:45Z</time>
      </trkpt>
      <trkpt lat="48.988" lon="1.92855">
        <ele>45</ele>
        <time>2020-06-21T12:50:03Z</time>
      </trkpt>
      <trkpt lat="48.98795" lon="1.92852">
        <ele>45</ele>
        <time>2020-06-21T12:50:07Z</time>
      </trkpt>
      <trkpt lat="48.98773" lon="1.92821">
        <ele>46</ele>
        <time>2020-06-21T12:50:37Z</time>
      </trkpt>
      <trkpt lat="48.98768" lon="1.92819">
        <ele>45</ele>
        <time>2020-06-21T12:50:44Z</time>
      </trkpt>
      <trkpt lat="48.98758" lon="1.92809">
        <ele>46</ele>
        <time>2020-06-21T12:50:52Z</time>
      </trkpt>
      <trkpt lat="48.98742" lon="1.92803">
        <ele>46</ele>
        <time>2020-06-21T12:51:03Z</time>
      </trkpt>
      <trkpt lat="48.98726" lon="1.92789">
        <ele>46</ele>
        <time>2020-06-21T12:51:21Z</time>
      </trkpt>
      <trkpt lat="48.98723" lon="1.92783">
        <ele>46</ele>
        <time>2020-06-21T12:51:25Z</time>
      </trkpt>
      <trkpt lat="48.98718" lon="1.9277">
        <ele>45</ele>
        <time>2020-06-21T12:51:33Z</time>
      </trkpt>
      <trkpt lat="48.98713" lon="1.92762">
        <ele>46</ele>
        <time>2020-06-21T12:51:40Z</time>
      </trkpt>
      <trkpt lat="48.9871" lon="1.92755">
        <ele>45</ele>
        <time>2020-06-21T12:51:44Z</time>
      </trkpt>
      <trkpt lat="48.98707" lon="1.92741">
        <ele>45</ele>
        <time>2020-06-21T12:51:53Z</time>
      </trkpt>
      <trkpt lat="48.98708" lon="1.92726">
        <ele>45</ele>
        <time>2020-06-21T12:52:01Z</time>
      </trkpt>
      <trkpt lat="48.98706" lon="1.9272">
        <ele>45</ele>
        <time>2020-06-21T12:52:05Z</time>
      </trkpt>
      <trkpt lat="48.98703" lon="1.92714">
        <ele>45</ele>
        <time>2020-06-21T12:52:09Z</time>
      </trkpt>
      <trkpt lat="48.98698" lon="1.92712">
        <ele>45</ele>
        <time>2020-06-21T12:52:13Z</time>
      </trkpt>
      <trkpt lat="48.98693" lon="1.92713">
        <ele>45</ele>
        <time>2020-06-21T12:52:17Z</time>
      </trkpt>
      <trkpt lat="48.98688" lon="1.92716">
        <ele>45</ele>
        <time>2020-06-21T12:52:21Z</time>
      </trkpt>
      <trkpt lat="48.98681" lon="1.92719">
        <ele>46</ele>
        <time>2020-06-21T12:52:27Z</time>
      </trkpt>
      <trkpt lat="48.98673" lon="1.92727">
        <ele>46</ele>
        <time>2020-06-21T12:52:34Z</time>
      </trkpt>
      <trkpt lat="48.98664" lon="1.92732">
        <ele>46</ele>
        <time>2020-06-21T12:52:42Z</time>
      </trkpt>
      <trkpt lat="48.9866" lon="1.92737">
        <ele>46</ele>
        <time>2020-06-21T12:52:46Z</time>
      </trkpt>
      <trkpt lat="48.98652" lon="1.92743">
        <ele>46</ele>
        <time>2020-06-21T12:52:55Z</time>
      </trkpt>
      <trkpt lat="48.98646" lon="1.92743">
        <ele>47</ele>
        <time>2020-06-21T12:53:00Z</time>
      </trkpt>
      <trkpt lat="48.9864" lon="1.92746">
        <ele>47</ele>
        <time>2020-06-21T12:53:04Z</time>
      </trkpt>
      <trkpt lat="48.98637" lon="1.92753">
        <ele>47</ele>
        <time>2020-06-21T12:53:08Z</time>
      </trkpt>
      <trkpt lat="48.98634" lon="1.92758">
        <ele>48</ele>
        <time>2020-06-21T12:53:12Z</time>
      </trkpt>
      <trkpt lat="48.9863" lon="1.92762">
        <ele>48</ele>
        <time>2020-06-21T12:53:16Z</time>
      </trkpt>
      <trkpt lat="48.98627" lon="1.92768">
        <ele>48</ele>
        <time>2020-06-21T12:53:20Z</time>
      </trkpt>
      <trkpt lat="48.98622" lon="1.92773">
        <ele>48</ele>
        <time>2020-06-21T12:53:24Z</time>
      </trkpt>
      <trkpt lat="48.98617" lon="1.92774">
        <ele>48</ele>
        <time>2020-06-21T12:53:27Z</time>
      </trkpt>
      <trkpt lat="48.98614" lon="1.92778">
        <ele>48</ele>
        <time>2020-06-21T12:53:31Z</time>
      </trkpt>
      <trkpt lat="48.98612" lon="1.92785">
        <ele>48</ele>
        <time>2020-06-21T12:53:35Z</time>
      </trkpt>
      <trkpt lat="48.98602" lon="1.92801">
        <ele>48</ele>
        <time>2020-06-21T12:53:47Z</time>
      </trkpt>
      <trkpt lat="48.98589" lon="1.92814">
        <ele>49</ele>
        <time>2020-06-21T12:53:58Z</time>
      </trkpt>
      <trkpt lat="48.98587" lon="1.92823">
        <ele>49</ele>
        <time>2020-06-21T12:54:02Z</time>
      </trkpt>
      <trkpt lat="48.98577" lon="1.9283">
        <ele>49</ele>
        <time>2020-06-21T12:54:10Z</time>
      </trkpt>
      <trkpt lat="48.98572" lon="1.92831">
        <ele>49</ele>
        <time>2020-06-21T12:54:13Z</time>
      </trkpt>
      <trkpt lat="48.98564" lon="1.92838">
        <ele>50</ele>
        <time>2020-06-21T12:54:20Z</time>
      </trkpt>
      <trkpt lat="48.98559" lon="1.92842">
        <ele>50</ele>
        <time>2020-06-21T12:54:24Z</time>
      </trkpt>
      <trkpt lat="48.98554" lon="1.92847">
        <ele>50</ele>
        <time>2020-06-21T12:54:28Z</time>
      </trkpt>
      <trkpt lat="48.98552" lon="1.92855">
        <ele>49</ele>
        <time>2020-06-21T12:54:32Z</time>
      </trkpt>
      <trkpt lat="48.98549" lon="1.92862">
        <ele>49</ele>
        <time>2020-06-21T12:54:36Z</time>
      </trkpt>
      <trkpt lat="48.98544" lon="1.92865">
        <ele>50</ele>
        <time>2020-06-21T12:54:41Z</time>
      </trkpt>
      <trkpt lat="48.98537" lon="1.92876">
        <ele>50</ele>
        <time>2020-06-21T12:54:49Z</time>
      </trkpt>
      <trkpt lat="48.98535" lon="1.92896">
        <ele>50</ele>
        <time>2020-06-21T12:55:01Z</time>
      </trkpt>
      <trkpt lat="48.98533" lon="1.92903">
        <ele>50</ele>
        <time>2020-06-21T12:55:05Z</time>
      </trkpt>
      <trkpt lat="48.98526" lon="1.92908">
        <ele>50</ele>
        <time>2020-06-21T12:55:11Z</time>
      </trkpt>
      <trkpt lat="48.98519" lon="1.92919">
        <ele>50</ele>
        <time>2020-06-21T12:55:17Z</time>
      </trkpt>
      <trkpt lat="48.98521" lon="1.92927">
        <ele>50</ele>
        <time>2020-06-21T12:55:24Z</time>
      </trkpt>
      <trkpt lat="48.98514" lon="1.92937">
        <ele>50</ele>
        <time>2020-06-21T12:55:30Z</time>
      </trkpt>
      <trkpt lat="48.98501" lon="1.92951">
        <ele>50</ele>
        <time>2020-06-21T12:55:42Z</time>
      </trkpt>
      <trkpt lat="48.98492" lon="1.92963">
        <ele>51</ele>
        <time>2020-06-21T12:55:51Z</time>
      </trkpt>
      <trkpt lat="48.98489" lon="1.92969">
        <ele>51</ele>
        <time>2020-06-21T12:55:54Z</time>
      </trkpt>
      <trkpt lat="48.98486" lon="1.92976">
        <ele>51</ele>
        <time>2020-06-21T12:55:58Z</time>
      </trkpt>
      <trkpt lat="48.98477" lon="1.92982">
        <ele>51</ele>
        <time>2020-06-21T12:56:04Z</time>
      </trkpt>
      <trkpt lat="48.98473" lon="1.92988">
        <ele>51</ele>
        <time>2020-06-21T12:56:08Z</time>
      </trkpt>
      <trkpt lat="48.98465" lon="1.92994">
        <ele>51</ele>
        <time>2020-06-21T12:56:16Z</time>
      </trkpt>
      <trkpt lat="48.98456" lon="1.93006">
        <ele>51</ele>
        <time>2020-06-21T12:56:24Z</time>
      </trkpt>
      <trkpt lat="48.98454" lon="1.93013">
        <ele>52</ele>
        <time>2020-06-21T12:56:28Z</time>
      </trkpt>
      <trkpt lat="48.98449" lon="1.93017">
        <ele>52</ele>
        <time>2020-06-21T12:56:31Z</time>
      </trkpt>
      <trkpt lat="48.98446" lon="1.93021">
        <ele>52</ele>
        <time>2020-06-21T12:56:35Z</time>
      </trkpt>
      <trkpt lat="48.9844" lon="1.93024">
        <ele>52</ele>
        <time>2020-06-21T12:56:43Z</time>
      </trkpt>
      <trkpt lat="48.98436" lon="1.9303">
        <ele>52</ele>
        <time>2020-06-21T12:56:47Z</time>
      </trkpt>
      <trkpt lat="48.98432" lon="1.93038">
        <ele>52</ele>
        <time>2020-06-21T12:56:53Z</time>
      </trkpt>
      <trkpt lat="48.98424" lon="1.93048">
        <ele>52</ele>
        <time>2020-06-21T12:57:01Z</time>
      </trkpt>
      <trkpt lat="48.9841" lon="1.93058">
        <ele>52</ele>
        <time>2020-06-21T12:57:12Z</time>
      </trkpt>
      <trkpt lat="48.98407" lon="1.93064">
        <ele>52</ele>
        <time>2020-06-21T12:57:16Z</time>
      </trkpt>
      <trkpt lat="48.98407" lon="1.93071">
        <ele>52</ele>
        <time>2020-06-21T12:57:20Z</time>
      </trkpt>
      <trkpt lat="48.98403" lon="1.93076">
        <ele>53</ele>
        <time>2020-06-21T12:57:25Z</time>
      </trkpt>
      <trkpt lat="48.98399" lon="1.93082">
        <ele>53</ele>
        <time>2020-06-21T12:57:30Z</time>
      </trkpt>
      <trkpt lat="48.9839" lon="1.93088">
        <ele>53</ele>
        <time>2020-06-21T12:57:38Z</time>
      </trkpt>
      <trkpt lat="48.98375" lon="1.93113">
        <ele>53</ele>
        <time>2020-06-21T12:57:54Z</time>
      </trkpt>
      <trkpt lat="48.98367" lon="1.93122">
        <ele>53</ele>
        <time>2020-06-21T12:58:02Z</time>
      </trkpt>
      <trkpt lat="48.98363" lon="1.93137">
        <ele>53</ele>
        <time>2020-06-21T12:58:12Z</time>
      </trkpt>
      <trkpt lat="48.98359" lon="1.9314">
        <ele>53</ele>
        <time>2020-06-21T12:58:16Z</time>
      </trkpt>
      <trkpt lat="48.98356" lon="1.93146">
        <ele>53</ele>
        <time>2020-06-21T12:58:20Z</time>
      </trkpt>
      <trkpt lat="48.98351" lon="1.9316">
        <ele>52</ele>
        <time>2020-06-21T12:58:27Z</time>
      </trkpt>
      <trkpt lat="48.98346" lon="1.93162">
        <ele>52</ele>
        <time>2020-06-21T12:58:31Z</time>
      </trkpt>
      <trkpt lat="48.9834" lon="1.93174">
        <ele>52</ele>
        <time>2020-06-21T12:58:40Z</time>
      </trkpt>
      <trkpt lat="48.98332" lon="1.93203">
        <ele>52</ele>
        <time>2020-06-21T12:58:58Z</time>
      </trkpt>
      <trkpt lat="48.98327" lon="1.93217">
        <ele>52</ele>
        <time>2020-06-21T12:59:06Z</time>
      </trkpt>
      <trkpt lat="48.98315" lon="1.93273">
        <ele>51</ele>
        <time>2020-06-21T12:59:37Z</time>
      </trkpt>
      <trkpt lat="48.98307" lon="1.93283">
        <ele>51</ele>
        <time>2020-06-21T12:59:45Z</time>
      </trkpt>
      <trkpt lat="48.983" lon="1.93325">
        <ele>50</ele>
        <time>2020-06-21T13:00:06Z</time>
      </trkpt>
      <trkpt lat="48.98287" lon="1.93347">
        <ele>50</ele>
        <time>2020-06-21T13:00:20Z</time>
      </trkpt>
      <trkpt lat="48.98285" lon="1.93359">
        <ele>50</ele>
        <time>2020-06-21T13:00:28Z</time>
      </trkpt>
      <trkpt lat="48.98284" lon="1.93374">
        <ele>51</ele>
        <time>2020-06-21T13:00:36Z</time>
      </trkpt>
      <trkpt lat="48.98272" lon="1.93398">
        <ele>50</ele>
        <time>2020-06-21T13:00:49Z</time>
      </trkpt>
      <trkpt lat="48.98268" lon="1.93411">
        <ele>50</ele>
        <time>2020-06-21T13:00:55Z</time>
      </trkpt>
      <trkpt lat="48.98257" lon="1.93436">
        <ele>50</ele>
        <time>2020-06-21T13:01:10Z</time>
      </trkpt>
      <trkpt lat="48.98253" lon="1.93449">
        <ele>50</ele>
        <time>2020-06-21T13:01:18Z</time>
      </trkpt>
      <trkpt lat="48.98224" lon="1.93507">
        <ele>50</ele>
        <time>2020-06-21T13:01:53Z</time>
      </trkpt>
      <trkpt lat="48.98219" lon="1.9352">
        <ele>50</ele>
        <time>2020-06-21T13:02:01Z</time>
      </trkpt>
      <trkpt lat="48.98194" lon="1.93581">
        <ele>50</ele>
        <time>2020-06-21T13:02:36Z</time>
      </trkpt>
      <trkpt lat="48.98188" lon="1.93596">
        <ele>50</ele>
        <time>2020-06-21T13:02:45Z</time>
      </trkpt>
      <trkpt lat="48.9819" lon="1.9361">
        <ele>50</ele>
        <time>2020-06-21T13:02:58Z</time>
      </trkpt>
      <trkpt lat="48.98183" lon="1.93631">
        <ele>50</ele>
        <time>2020-06-21T13:03:18Z</time>
      </trkpt>
      <trkpt lat="48.98176" lon="1.93658">
        <ele>50</ele>
        <time>2020-06-21T13:03:35Z</time>
      </trkpt>
      <trkpt lat="48.98162" lon="1.93678">
        <ele>50</ele>
        <time>2020-06-21T13:03:52Z</time>
      </trkpt>
      <trkpt lat="48.9816" lon="1.93694">
        <ele>50</ele>
        <time>2020-06-21T13:04:00Z</time>
      </trkpt>
      <trkpt lat="48.98148" lon="1.93717">
        <ele>49</ele>
        <time>2020-06-21T13:04:16Z</time>
      </trkpt>
      <trkpt lat="48.9814" lon="1.93728">
        <ele>49</ele>
        <time>2020-06-21T13:04:23Z</time>
      </trkpt>
      <trkpt lat="48.98132" lon="1.93736">
        <ele>49</ele>
        <time>2020-06-21T13:04:29Z</time>
      </trkpt>
      <trkpt lat="48.98122" lon="1.9377">
        <ele>48</ele>
        <time>2020-06-21T13:04:53Z</time>
      </trkpt>
      <trkpt lat="48.98119" lon="1.93783">
        <ele>48</ele>
        <time>2020-06-21T13:05:00Z</time>
      </trkpt>
      <trkpt lat="48.98104" lon="1.93838">
        <ele>46</ele>
        <time>2020-06-21T13:05:30Z</time>
      </trkpt>
      <trkpt lat="48.981" lon="1.93853">
        <ele>46</ele>
        <time>2020-06-21T13:05:38Z</time>
      </trkpt>
      <trkpt lat="48.98092" lon="1.93864">
        <ele>46</ele>
        <time>2020-06-21T13:05:45Z</time>
      </trkpt>
      <trkpt lat="48.98099" lon="1.93879">
        <ele>46</ele>
        <time>2020-06-21T13:06:10Z</time>
      </trkpt>
      <trkpt lat="48.98094" lon="1.93882">
        <ele>47</ele>
        <time>2020-06-21T13:06:34Z</time>
      </trkpt>
      <trkpt lat="48.98087" lon="1.93886">
        <ele>47</ele>
        <time>2020-06-21T13:06:46Z</time>
      </trkpt>
      <trkpt lat="48.98078" lon="1.93901">
        <ele>47</ele>
        <time>2020-06-21T13:07:11Z</time>
      </trkpt>
      <trkpt lat="48.98078" lon="1.93909">
        <ele>47</ele>
        <time>2020-06-21T13:07:18Z</time>
      </trkpt>
      <trkpt lat="48.9808" lon="1.93922">
        <ele>46</ele>
        <time>2020-06-21T13:07:25Z</time>
      </trkpt>
      <trkpt lat="48.98082" lon="1.93938">
        <ele>46</ele>
        <time>2020-06-21T13:07:33Z</time>
      </trkpt>
      <trkpt lat="48.98085" lon="1.93953">
        <ele>48</ele>
        <time>2020-06-21T13:07:49Z</time>
      </trkpt>
      <trkpt lat="48.98086" lon="1.9398">
        <ele>49</ele>
        <time>2020-06-21T13:08:05Z</time>
      </trkpt>
      <trkpt lat="48.98081" lon="1.93992">
        <ele>49</ele>
        <time>2020-06-21T13:08:14Z</time>
      </trkpt>
      <trkpt lat="48.98084" lon="1.94009">
        <ele>50</ele>
        <time>2020-06-21T13:08:26Z</time>
      </trkpt>
      <trkpt lat="48.98082" lon="1.94022">
        <ele>51</ele>
        <time>2020-06-21T13:08:35Z</time>
      </trkpt>
      <trkpt lat="48.98078" lon="1.94036">
        <ele>51</ele>
        <time>2020-06-21T13:08:42Z</time>
      </trkpt>
      <trkpt lat="48.98078" lon="1.94079">
        <ele>52</ele>
        <time>2020-06-21T13:09:04Z</time>
      </trkpt>
      <trkpt lat="48.98074" lon="1.94091">
        <ele>53</ele>
        <time>2020-06-21T13:09:13Z</time>
      </trkpt>
      <trkpt lat="48.98068" lon="1.94105">
        <ele>53</ele>
        <time>2020-06-21T13:09:20Z</time>
      </trkpt>
      <trkpt lat="48.98068" lon="1.94119">
        <ele>52</ele>
        <time>2020-06-21T13:09:33Z</time>
      </trkpt>
      <trkpt lat="48.98065" lon="1.94134">
        <ele>53</ele>
        <time>2020-06-21T13:09:41Z</time>
      </trkpt>
      <trkpt lat="48.98059" lon="1.94161">
        <ele>52</ele>
        <time>2020-06-21T13:09:58Z</time>
      </trkpt>
      <trkpt lat="48.98054" lon="1.94176">
        <ele>51</ele>
        <time>2020-06-21T13:10:05Z</time>
      </trkpt>
      <trkpt lat="48.98052" lon="1.94205">
        <ele>50</ele>
        <time>2020-06-21T13:10:21Z</time>
      </trkpt>
      <trkpt lat="48.98054" lon="1.94222">
        <ele>50</ele>
        <time>2020-06-21T13:10:30Z</time>
      </trkpt>
      <trkpt lat="48.98048" lon="1.94234">
        <ele>50</ele>
        <time>2020-06-21T13:10:38Z</time>
      </trkpt>
      <trkpt lat="48.98046" lon="1.94247">
        <ele>49</ele>
        <time>2020-06-21T13:10:45Z</time>
      </trkpt>
      <trkpt lat="48.98034" lon="1.94269">
        <ele>48</ele>
        <time>2020-06-21T13:10:59Z</time>
      </trkpt>
      <trkpt lat="48.98035" lon="1.94327">
        <ele>48</ele>
        <time>2020-06-21T13:11:30Z</time>
      </trkpt>
      <trkpt lat="48.98038" lon="1.94341">
        <ele>48</ele>
        <time>2020-06-21T13:11:36Z</time>
      </trkpt>
      <trkpt lat="48.98039" lon="1.94356">
        <ele>48</ele>
        <time>2020-06-21T13:11:43Z</time>
      </trkpt>
      <trkpt lat="48.98044" lon="1.94387">
        <ele>48</ele>
        <time>2020-06-21T13:12:02Z</time>
      </trkpt>
      <trkpt lat="48.98044" lon="1.94402">
        <ele>48</ele>
        <time>2020-06-21T13:12:08Z</time>
      </trkpt>
      <trkpt lat="48.98041" lon="1.94415">
        <ele>47</ele>
        <time>2020-06-21T13:12:17Z</time>
      </trkpt>
      <trkpt lat="48.98042" lon="1.94432">
        <ele>47</ele>
        <time>2020-06-21T13:12:29Z</time>
      </trkpt>
      <trkpt lat="48.98043" lon="1.94446">
        <ele>47</ele>
        <time>2020-06-21T13:12:37Z</time>
      </trkpt>
      <trkpt lat="48.9804" lon="1.9446">
        <ele>47</ele>
        <time>2020-06-21T13:12:44Z</time>
      </trkpt>
      <trkpt lat="48.98039" lon="1.94466">
        <ele>47</ele>
        <time>2020-06-21T13:12:47Z</time>
      </trkpt>
      <trkpt lat="48.98033" lon="1.94477">
        <ele>47</ele>
        <time>2020-06-21T13:12:55Z</time>
      </trkpt>
      <trkpt lat="48.98031" lon="1.94495">
        <ele>46</ele>
        <time>2020-06-21T13:13:05Z</time>
      </trkpt>
      <trkpt lat="48.98027" lon="1.94556">
        <ele>46</ele>
        <time>2020-06-21T13:13:38Z</time>
      </trkpt>
      <trkpt lat="48.98023" lon="1.94584">
        <ele>46</ele>
        <time>2020-06-21T13:13:55Z</time>
      </trkpt>
      <trkpt lat="48.98023" lon="1.94599">
        <ele>45</ele>
        <time>2020-06-21T13:14:01Z</time>
      </trkpt>
      <trkpt lat="48.9802" lon="1.94615">
        <ele>45</ele>
        <time>2020-06-21T13:14:08Z</time>
      </trkpt>
      <trkpt lat="48.98024" lon="1.94642">
        <ele>45</ele>
        <time>2020-06-21T13:14:20Z</time>
      </trkpt>
      <trkpt lat="48.98018" lon="1.94653">
        <ele>45</ele>
        <time>2020-06-21T13:14:29Z</time>
      </trkpt>
      <trkpt lat="48.98012" lon="1.9467">
        <ele>44</ele>
        <time>2020-06-21T13:14:44Z</time>
      </trkpt>
      <trkpt lat="48.98013" lon="1.94688">
        <ele>44</ele>
        <time>2020-06-21T13:14:51Z</time>
      </trkpt>
      <trkpt lat="48.98011" lon="1.94701">
        <ele>44</ele>
        <time>2020-06-21T13:14:57Z</time>
      </trkpt>
      <trkpt lat="48.98007" lon="1.94714">
        <ele>43</ele>
        <time>2020-06-21T13:15:05Z</time>
      </trkpt>
      <trkpt lat="48.98007" lon="1.94729">
        <ele>43</ele>
        <time>2020-06-21T13:15:13Z</time>
      </trkpt>
      <trkpt lat="48.98004" lon="1.94744">
        <ele>43</ele>
        <time>2020-06-21T13:15:20Z</time>
      </trkpt>
      <trkpt lat="48.97992" lon="1.94768">
        <ele>42</ele>
        <time>2020-06-21T13:15:34Z</time>
      </trkpt>
      <trkpt lat="48.97987" lon="1.94821">
        <ele>41</ele>
        <time>2020-06-21T13:16:00Z</time>
      </trkpt>
      <trkpt lat="48.97984" lon="1.94827">
        <ele>42</ele>
        <time>2020-06-21T13:16:05Z</time>
      </trkpt>
      <trkpt lat="48.97981" lon="1.94851">
        <ele>42</ele>
        <time>2020-06-21T13:16:18Z</time>
      </trkpt>
      <trkpt lat="48.97982" lon="1.94859">
        <ele>41</ele>
        <time>2020-06-21T13:16:23Z</time>
      </trkpt>
      <trkpt lat="48.97985" lon="1.94865">
        <ele>41</ele>
        <time>2020-06-21T13:16:27Z</time>
      </trkpt>
      <trkpt lat="48.97983" lon="1.94892">
        <ele>41</ele>
        <time>2020-06-21T13:16:42Z</time>
      </trkpt>
      <trkpt lat="48.9798" lon="1.949">
        <ele>42</ele>
        <time>2020-06-21T13:16:50Z</time>
      </trkpt>
      <trkpt lat="48.97977" lon="1.94921">
        <ele>42</ele>
        <time>2020-06-21T13:17:05Z</time>
      </trkpt>
      <trkpt lat="48.97981" lon="1.94943">
        <ele>43</ele>
        <time>2020-06-21T13:17:22Z</time>
      </trkpt>
      <trkpt lat="48.97983" lon="1.94956">
        <ele>43</ele>
        <time>2020-06-21T13:17:41Z</time>
      </trkpt>
      <trkpt lat="48.97977" lon="1.94968">
        <ele>43</ele>
        <time>2020-06-21T13:18:18Z</time>
      </trkpt>
      <trkpt lat="48.97974" lon="1.94973">
        <ele>42</ele>
        <time>2020-06-21T13:18:21Z</time>
      </trkpt>
      <trkpt lat="48.97963" lon="1.95001">
        <ele>43</ele>
        <time>2020-06-21T13:18:38Z</time>
      </trkpt>
      <trkpt lat="48.97959" lon="1.95016">
        <ele>44</ele>
        <time>2020-06-21T13:18:47Z</time>
      </trkpt>
      <trkpt lat="48.97956" lon="1.95038">
        <ele>45</ele>
        <time>2020-06-21T13:19:00Z</time>
      </trkpt>
      <trkpt lat="48.97956" lon="1.95055">
        <ele>45</ele>
        <time>2020-06-21T13:19:07Z</time>
      </trkpt>
      <trkpt lat="48.97948" lon="1.95102">
        <ele>48</ele>
        <time>2020-06-21T13:19:34Z</time>
      </trkpt>
      <trkpt lat="48.97948" lon="1.95118">
        <ele>48</ele>
        <time>2020-06-21T13:19:42Z</time>
      </trkpt>
      <trkpt lat="48.97946" lon="1.95125">
        <ele>49</ele>
        <time>2020-06-21T13:19:46Z</time>
      </trkpt>
      <trkpt lat="48.97943" lon="1.9513">
        <ele>49</ele>
        <time>2020-06-21T13:19:51Z</time>
      </trkpt>
      <trkpt lat="48.9794" lon="1.95153">
        <ele>49</ele>
        <time>2020-06-21T13:20:04Z</time>
      </trkpt>
      <trkpt lat="48.97941" lon="1.95169">
        <ele>49</ele>
        <time>2020-06-21T13:20:11Z</time>
      </trkpt>
      <trkpt lat="48.97935" lon="1.95242">
        <ele>49</ele>
        <time>2020-06-21T13:20:45Z</time>
      </trkpt>
      <trkpt lat="48.97934" lon="1.9525">
        <ele>49</ele>
        <time>2020-06-21T13:20:49Z</time>
      </trkpt>
      <trkpt lat="48.97936" lon="1.95266">
        <ele>49</ele>
        <time>2020-06-21T13:20:54Z</time>
      </trkpt>
      <trkpt lat="48.97935" lon="1.95273">
        <ele>48</ele>
        <time>2020-06-21T13:20:58Z</time>
      </trkpt>
      <trkpt lat="48.9793" lon="1.95287">
        <ele>48</ele>
        <time>2020-06-21T13:21:06Z</time>
      </trkpt>
      <trkpt lat="48.97927" lon="1.95292">
        <ele>48</ele>
        <time>2020-06-21T13:21:10Z</time>
      </trkpt>
      <trkpt lat="48.97925" lon="1.95301">
        <ele>48</ele>
        <time>2020-06-21T13:21:14Z</time>
      </trkpt>
      <trkpt lat="48.97925" lon="1.95308">
        <ele>48</ele>
        <time>2020-06-21T13:21:18Z</time>
      </trkpt>
      <trkpt lat="48.97925" lon="1.95317">
        <ele>48</ele>
        <time>2020-06-21T13:21:22Z</time>
      </trkpt>
      <trkpt lat="48.97922" lon="1.95331">
        <ele>47</ele>
        <time>2020-06-21T13:21:30Z</time>
      </trkpt>
      <trkpt lat="48.97923" lon="1.95339">
        <ele>47</ele>
        <time>2020-06-21T13:21:34Z</time>
      </trkpt>
      <trkpt lat="48.97923" lon="1.95347">
        <ele>47</ele>
        <time>2020-06-21T13:21:39Z</time>
      </trkpt>
      <trkpt lat="48.97926" lon="1.95365">
        <ele>45</ele>
        <time>2020-06-21T13:21:50Z</time>
      </trkpt>
      <trkpt lat="48.97927" lon="1.95373">
        <ele>45</ele>
        <time>2020-06-21T13:21:53Z</time>
      </trkpt>
      <trkpt lat="48.97933" lon="1.95394">
        <ele>44</ele>
        <time>2020-06-21T13:22:01Z</time>
      </trkpt>
      <trkpt lat="48.97933" lon="1.95401">
        <ele>44</ele>
        <time>2020-06-21T13:22:03Z</time>
      </trkpt>
      <trkpt lat="48.97936" lon="1.95416">
        <ele>43</ele>
        <time>2020-06-21T13:22:10Z</time>
      </trkpt>
      <trkpt lat="48.9794" lon="1.95421">
        <ele>43</ele>
        <time>2020-06-21T13:22:15Z</time>
      </trkpt>
      <trkpt lat="48.97941" lon="1.95428">
        <ele>43</ele>
        <time>2020-06-21T13:22:19Z</time>
      </trkpt>
      <trkpt lat="48.97933" lon="1.95447">
        <ele>42</ele>
        <time>2020-06-21T13:22:36Z</time>
      </trkpt>
      <trkpt lat="48.9793" lon="1.95463">
        <ele>42</ele>
        <time>2020-06-21T13:22:42Z</time>
      </trkpt>
      <trkpt lat="48.97935" lon="1.95475">
        <ele>41</ele>
        <time>2020-06-21T13:22:48Z</time>
      </trkpt>
      <trkpt lat="48.97936" lon="1.95491">
        <ele>40</ele>
        <time>2020-06-21T13:22:56Z</time>
      </trkpt>
      <trkpt lat="48.9794" lon="1.95502">
        <ele>39</ele>
        <time>2020-06-21T13:23:03Z</time>
      </trkpt>
      <trkpt lat="48.97941" lon="1.95529">
        <ele>38</ele>
        <time>2020-06-21T13:23:21Z</time>
      </trkpt>
      <trkpt lat="48.97943" lon="1.95542">
        <ele>38</ele>
        <time>2020-06-21T13:23:27Z</time>
      </trkpt>
      <trkpt lat="48.97944" lon="1.95548">
        <ele>38</ele>
        <time>2020-06-21T13:23:30Z</time>
      </trkpt>
      <trkpt lat="48.97953" lon="1.95553">
        <ele>39</ele>
        <time>2020-06-21T13:23:44Z</time>
      </trkpt>
      <trkpt lat="48.97957" lon="1.95558">
        <ele>39</ele>
        <time>2020-06-21T13:24:14Z</time>
      </trkpt>
      <trkpt lat="48.97958" lon="1.95566">
        <ele>38</ele>
        <time>2020-06-21T13:24:26Z</time>
      </trkpt>
      <trkpt lat="48.9795" lon="1.95572">
        <ele>37</ele>
        <time>2020-06-21T13:24:40Z</time>
      </trkpt>
      <trkpt lat="48.97945" lon="1.95571">
        <ele>37</ele>
        <time>2020-06-21T13:24:45Z</time>
      </trkpt>
      <trkpt lat="48.97942" lon="1.95563">
        <ele>37</ele>
        <time>2020-06-21T13:24:52Z</time>
      </trkpt>
      <trkpt lat="48.97936" lon="1.9556">
        <ele>38</ele>
        <time>2020-06-21T13:24:59Z</time>
      </trkpt>
      <trkpt lat="48.97932" lon="1.95558">
        <ele>38</ele>
        <time>2020-06-21T13:25:03Z</time>
      </trkpt>
      <trkpt lat="48.97927" lon="1.9556">
        <ele>38</ele>
        <time>2020-06-21T13:25:08Z</time>
      </trkpt>
      <trkpt lat="48.97913" lon="1.95562">
        <ele>38</ele>
        <time>2020-06-21T13:25:21Z</time>
      </trkpt>
      <trkpt lat="48.97907" lon="1.95561">
        <ele>38</ele>
        <time>2020-06-21T13:25:29Z</time>
      </trkpt>
      <trkpt lat="48.97903" lon="1.95558">
        <ele>38</ele>
        <time>2020-06-21T13:25:33Z</time>
      </trkpt>
      <trkpt lat="48.97886" lon="1.95558">
        <ele>38</ele>
        <time>2020-06-21T13:25:53Z</time>
      </trkpt>
      <trkpt lat="48.97849" lon="1.95541">
        <ele>39</ele>
        <time>2020-06-21T13:26:23Z</time>
      </trkpt>
      <trkpt lat="48.97839" lon="1.9554">
        <ele>38</ele>
        <time>2020-06-21T13:26:29Z</time>
      </trkpt>
      <trkpt lat="48.97829" lon="1.95536">
        <ele>38</ele>
        <time>2020-06-21T13:26:36Z</time>
      </trkpt>
      <trkpt lat="48.97818" lon="1.95526">
        <ele>39</ele>
        <time>2020-06-21T13:26:52Z</time>
      </trkpt>
      <trkpt lat="48.97781" lon="1.95513">
        <ele>39</ele>
        <time>2020-06-21T13:27:20Z</time>
      </trkpt>
      <trkpt lat="48.97774" lon="1.95512">
        <ele>40</ele>
        <time>2020-06-21T13:27:42Z</time>
      </trkpt>
      <trkpt lat="48.97766" lon="1.95519">
        <ele>40</ele>
        <time>2020-06-21T13:28:17Z</time>
      </trkpt>
      <trkpt lat="48.97761" lon="1.9552">
        <ele>40</ele>
        <time>2020-06-21T13:28:22Z</time>
      </trkpt>
      <trkpt lat="48.97751" lon="1.95524">
        <ele>40</ele>
        <time>2020-06-21T13:28:30Z</time>
      </trkpt>
      <trkpt lat="48.9774" lon="1.9552">
        <ele>40</ele>
        <time>2020-06-21T13:28:36Z</time>
      </trkpt>
      <trkpt lat="48.97734" lon="1.95533">
        <ele>40</ele>
        <time>2020-06-21T13:29:01Z</time>
      </trkpt>
      <trkpt lat="48.97739" lon="1.95534">
        <ele>39</ele>
        <time>2020-06-21T13:29:06Z</time>
      </trkpt>
      <trkpt lat="48.97762" lon="1.95522">
        <ele>39</ele>
        <time>2020-06-21T13:29:24Z</time>
      </trkpt>
      <trkpt lat="48.97767" lon="1.95523">
        <ele>39</ele>
        <time>2020-06-21T13:29:28Z</time>
      </trkpt>
      <trkpt lat="48.97769" lon="1.95532">
        <ele>39</ele>
        <time>2020-06-21T13:29:33Z</time>
      </trkpt>
      <trkpt lat="48.97766" lon="1.9554">
        <ele>38</ele>
        <time>2020-06-21T13:29:42Z</time>
      </trkpt>
      <trkpt lat="48.97761" lon="1.95544">
        <ele>38</ele>
        <time>2020-06-21T13:29:47Z</time>
      </trkpt>
      <trkpt lat="48.97754" lon="1.95554">
        <ele>38</ele>
        <time>2020-06-21T13:29:54Z</time>
      </trkpt>
      <trkpt lat="48.97752" lon="1.95568">
        <ele>38</ele>
        <time>2020-06-21T13:30:03Z</time>
      </trkpt>
      <trkpt lat="48.97752" lon="1.95577">
        <ele>37</ele>
        <time>2020-06-21T13:30:07Z</time>
      </trkpt>
      <trkpt lat="48.97746" lon="1.95598">
        <ele>37</ele>
        <time>2020-06-21T13:30:19Z</time>
      </trkpt>
      <trkpt lat="48.97737" lon="1.95616">
        <ele>36</ele>
        <time>2020-06-21T13:30:32Z</time>
      </trkpt>
      <trkpt lat="48.97734" lon="1.9565">
        <ele>36</ele>
        <time>2020-06-21T13:30:47Z</time>
      </trkpt>
      <trkpt lat="48.97723" lon="1.95705">
        <ele>36</ele>
        <time>2020-06-21T13:31:18Z</time>
      </trkpt>
      <trkpt lat="48.97722" lon="1.95711">
        <ele>36</ele>
        <time>2020-06-21T13:31:22Z</time>
      </trkpt>
      <trkpt lat="48.97718" lon="1.95727">
        <ele>36</ele>
        <time>2020-06-21T13:31:31Z</time>
      </trkpt>
      <trkpt lat="48.97711" lon="1.95746">
        <ele>36</ele>
        <time>2020-06-21T13:31:42Z</time>
      </trkpt>
      <trkpt lat="48.97709" lon="1.95761">
        <ele>36</ele>
        <time>2020-06-21T13:31:51Z</time>
      </trkpt>
      <trkpt lat="48.97708" lon="1.95769">
        <ele>37</ele>
        <time>2020-06-21T13:31:56Z</time>
      </trkpt>
      <trkpt lat="48.97705" lon="1.95777">
        <ele>37</ele>
        <time>2020-06-21T13:32:01Z</time>
      </trkpt>
      <trkpt lat="48.97697" lon="1.95786">
        <ele>38</ele>
        <time>2020-06-21T13:32:11Z</time>
      </trkpt>
      <trkpt lat="48.97694" lon="1.95799">
        <ele>39</ele>
        <time>2020-06-21T13:32:19Z</time>
      </trkpt>
      <trkpt lat="48.97692" lon="1.95807">
        <ele>40</ele>
        <time>2020-06-21T13:32:24Z</time>
      </trkpt>
      <trkpt lat="48.97692" lon="1.95814">
        <ele>40</ele>
        <time>2020-06-21T13:32:28Z</time>
      </trkpt>
      <trkpt lat="48.97689" lon="1.95828">
        <ele>40</ele>
        <time>2020-06-21T13:32:36Z</time>
      </trkpt>
      <trkpt lat="48.97685" lon="1.95834">
        <ele>41</ele>
        <time>2020-06-21T13:32:40Z</time>
      </trkpt>
      <trkpt lat="48.97683" lon="1.95841">
        <ele>42</ele>
        <time>2020-06-21T13:32:44Z</time>
      </trkpt>
      <trkpt lat="48.97683" lon="1.95848">
        <ele>42</ele>
        <time>2020-06-21T13:32:48Z</time>
      </trkpt>
      <trkpt lat="48.97688" lon="1.95853">
        <ele>42</ele>
        <time>2020-06-21T13:32:52Z</time>
      </trkpt>
      <trkpt lat="48.97698" lon="1.95856">
        <ele>42</ele>
        <time>2020-06-21T13:32:59Z</time>
      </trkpt>
      <trkpt lat="48.97703" lon="1.95856">
        <ele>41</ele>
        <time>2020-06-21T13:33:03Z</time>
      </trkpt>
      <trkpt lat="48.97713" lon="1.95862">
        <ele>40</ele>
        <time>2020-06-21T13:33:11Z</time>
      </trkpt>
      <trkpt lat="48.97721" lon="1.95872">
        <ele>39</ele>
        <time>2020-06-21T13:33:19Z</time>
      </trkpt>
      <trkpt lat="48.97725" lon="1.95877">
        <ele>40</ele>
        <time>2020-06-21T13:33:23Z</time>
      </trkpt>
      <trkpt lat="48.97731" lon="1.95889">
        <ele>40</ele>
        <time>2020-06-21T13:33:31Z</time>
      </trkpt>
      <trkpt lat="48.97738" lon="1.95901">
        <ele>40</ele>
        <time>2020-06-21T13:33:39Z</time>
      </trkpt>
      <trkpt lat="48.97745" lon="1.95911">
        <ele>40</ele>
        <time>2020-06-21T13:33:47Z</time>
      </trkpt>
      <trkpt lat="48.97751" lon="1.95916">
        <ele>40</ele>
        <time>2020-06-21T13:33:53Z</time>
      </trkpt>
      <trkpt lat="48.97769" lon="1.95954">
        <ele>41</ele>
        <time>2020-06-21T13:34:15Z</time>
      </trkpt>
      <trkpt lat="48.97778" lon="1.95965">
        <ele>40</ele>
        <time>2020-06-21T13:34:23Z</time>
      </trkpt>
      <trkpt lat="48.97779" lon="1.95973">
        <ele>40</ele>
        <time>2020-06-21T13:34:27Z</time>
      </trkpt>
      <trkpt lat="48.97779" lon="1.9598">
        <ele>40</ele>
        <time>2020-06-21T13:34:30Z</time>
      </trkpt>
      <trkpt lat="48.97782" lon="1.95987">
        <ele>41</ele>
        <time>2020-06-21T13:34:34Z</time>
      </trkpt>
      <trkpt lat="48.9779" lon="1.95998">
        <ele>41</ele>
        <time>2020-06-21T13:34:42Z</time>
      </trkpt>
      <trkpt lat="48.97795" lon="1.96004">
        <ele>41</ele>
        <time>2020-06-21T13:34:51Z</time>
      </trkpt>
      <trkpt lat="48.97791" lon="1.9601">
        <ele>42</ele>
        <time>2020-06-21T13:34:56Z</time>
      </trkpt>
      <trkpt lat="48.97786" lon="1.96009">
        <ele>42</ele>
        <time>2020-06-21T13:35:00Z</time>
      </trkpt>
      <trkpt lat="48.97776" lon="1.96014">
        <ele>44</ele>
        <time>2020-06-21T13:35:09Z</time>
      </trkpt>
      <trkpt lat="48.97774" lon="1.96021">
        <ele>44</ele>
        <time>2020-06-21T13:35:14Z</time>
      </trkpt>
      <trkpt lat="48.9777" lon="1.9603">
        <ele>45</ele>
        <time>2020-06-21T13:35:23Z</time>
      </trkpt>
      <trkpt lat="48.97743" lon="1.96053">
        <ele>47</ele>
        <time>2020-06-21T13:35:44Z</time>
      </trkpt>
      <trkpt lat="48.97736" lon="1.96065">
        <ele>48</ele>
        <time>2020-06-21T13:35:52Z</time>
      </trkpt>
      <trkpt lat="48.97731" lon="1.96069">
        <ele>48</ele>
        <time>2020-06-21T13:35:56Z</time>
      </trkpt>
      <trkpt lat="48.97715" lon="1.96097">
        <ele>51</ele>
        <time>2020-06-21T13:36:17Z</time>
      </trkpt>
      <trkpt lat="48.97707" lon="1.96108">
        <ele>52</ele>
        <time>2020-06-21T13:36:28Z</time>
      </trkpt>
      <trkpt lat="48.97702" lon="1.96121">
        <ele>52</ele>
        <time>2020-06-21T13:36:36Z</time>
      </trkpt>
      <trkpt lat="48.97675" lon="1.96164">
        <ele>55</ele>
        <time>2020-06-21T13:37:08Z</time>
      </trkpt>
      <trkpt lat="48.97672" lon="1.9617">
        <ele>55</ele>
        <time>2020-06-21T13:37:12Z</time>
      </trkpt>
      <trkpt lat="48.97665" lon="1.96179">
        <ele>56</ele>
        <time>2020-06-21T13:37:20Z</time>
      </trkpt>
      <trkpt lat="48.97661" lon="1.96184">
        <ele>56</ele>
        <time>2020-06-21T13:37:24Z</time>
      </trkpt>
      <trkpt lat="48.97659" lon="1.96191">
        <ele>56</ele>
        <time>2020-06-21T13:37:28Z</time>
      </trkpt>
      <trkpt lat="48.97652" lon="1.96204">
        <ele>56</ele>
        <time>2020-06-21T13:37:36Z</time>
      </trkpt>
      <trkpt lat="48.97643" lon="1.96214">
        <ele>56</ele>
        <time>2020-06-21T13:37:44Z</time>
      </trkpt>
      <trkpt lat="48.9763" lon="1.96239">
        <ele>57</ele>
        <time>2020-06-21T13:38:00Z</time>
      </trkpt>
      <trkpt lat="48.97625" lon="1.96244">
        <ele>57</ele>
        <time>2020-06-21T13:38:04Z</time>
      </trkpt>
      <trkpt lat="48.97611" lon="1.96266">
        <ele>58</ele>
        <time>2020-06-21T13:38:20Z</time>
      </trkpt>
      <trkpt lat="48.97603" lon="1.96287">
        <ele>58</ele>
        <time>2020-06-21T13:38:32Z</time>
      </trkpt>
      <trkpt lat="48.97592" lon="1.96304">
        <ele>59</ele>
        <time>2020-06-21T13:38:44Z</time>
      </trkpt>
      <trkpt lat="48.97589" lon="1.9631">
        <ele>58</ele>
        <time>2020-06-21T13:38:48Z</time>
      </trkpt>
      <trkpt lat="48.97581" lon="1.9632">
        <ele>58</ele>
        <time>2020-06-21T13:38:56Z</time>
      </trkpt>
      <trkpt lat="48.97575" lon="1.96331">
        <ele>59</ele>
        <time>2020-06-21T13:39:04Z</time>
      </trkpt>
      <trkpt lat="48.97566" lon="1.96338">
        <ele>59</ele>
        <time>2020-06-21T13:39:13Z</time>
      </trkpt>
      <trkpt lat="48.97544" lon="1.96383">
        <ele>60</ele>
        <time>2020-06-21T13:39:45Z</time>
      </trkpt>
      <trkpt lat="48.97538" lon="1.96396">
        <ele>60</ele>
        <time>2020-06-21T13:39:53Z</time>
      </trkpt>
      <trkpt lat="48.97512" lon="1.96445">
        <ele>60</ele>
        <time>2020-06-21T13:40:25Z</time>
      </trkpt>
      <trkpt lat="48.97506" lon="1.96458">
        <ele>60</ele>
        <time>2020-06-21T13:40:33Z</time>
      </trkpt>
      <trkpt lat="48.97503" lon="1.96478">
        <ele>60</ele>
        <time>2020-06-21T13:40:44Z</time>
      </trkpt>
      <trkpt lat="48.975" lon="1.96492">
        <ele>60</ele>
        <time>2020-06-21T13:40:52Z</time>
      </trkpt>
      <trkpt lat="48.97497" lon="1.96498">
        <ele>60</ele>
        <time>2020-06-21T13:40:56Z</time>
      </trkpt>
      <trkpt lat="48.97485" lon="1.96515">
        <ele>60</ele>
        <time>2020-06-21T13:41:07Z</time>
      </trkpt>
      <trkpt lat="48.97477" lon="1.96522">
        <ele>60</ele>
        <time>2020-06-21T13:41:14Z</time>
      </trkpt>
      <trkpt lat="48.97471" lon="1.96535">
        <ele>61</ele>
        <time>2020-06-21T13:41:23Z</time>
      </trkpt>
      <trkpt lat="48.97474" lon="1.96546">
        <ele>62</ele>
        <time>2020-06-21T13:42:32Z</time>
      </trkpt>
      <trkpt lat="48.97482" lon="1.96565">
        <ele>62</ele>
        <time>2020-06-21T13:42:48Z</time>
      </trkpt>
      <trkpt lat="48.97494" lon="1.96583">
        <ele>62</ele>
        <time>2020-06-21T13:43:00Z</time>
      </trkpt>
      <trkpt lat="48.97485" lon="1.96591">
        <ele>62</ele>
        <time>2020-06-21T13:43:21Z</time>
      </trkpt>
      <trkpt lat="48.97478" lon="1.96602">
        <ele>62</ele>
        <time>2020-06-21T13:43:30Z</time>
      </trkpt>
      <trkpt lat="48.97469" lon="1.96623">
        <ele>61</ele>
        <time>2020-06-21T13:43:42Z</time>
      </trkpt>
      <trkpt lat="48.97467" lon="1.96631">
        <ele>61</ele>
        <time>2020-06-21T13:43:46Z</time>
      </trkpt>
      <trkpt lat="48.97473" lon="1.9663">
        <ele>61</ele>
        <time>2020-06-21T13:44:13Z</time>
      </trkpt>
      <trkpt lat="48.9748" lon="1.96643">
        <ele>61</ele>
        <time>2020-06-21T13:44:22Z</time>
      </trkpt>
      <trkpt lat="48.97483" lon="1.96647">
        <ele>61</ele>
        <time>2020-06-21T13:44:25Z</time>
      </trkpt>
      <trkpt lat="48.97493" lon="1.96655">
        <ele>61</ele>
        <time>2020-06-21T13:44:33Z</time>
      </trkpt>
      <trkpt lat="48.97503" lon="1.9666">
        <ele>61</ele>
        <time>2020-06-21T13:44:41Z</time>
      </trkpt>
      <trkpt lat="48.97507" lon="1.96663">
        <ele>61</ele>
        <time>2020-06-21T13:44:45Z</time>
      </trkpt>
      <trkpt lat="48.97511" lon="1.96667">
        <ele>61</ele>
        <time>2020-06-21T13:44:49Z</time>
      </trkpt>
      <trkpt lat="48.97518" lon="1.96679">
        <ele>61</ele>
        <time>2020-06-21T13:44:58Z</time>
      </trkpt>
      <trkpt lat="48.97521" lon="1.96687">
        <ele>61</ele>
        <time>2020-06-21T13:45:02Z</time>
      </trkpt>
      <trkpt lat="48.97531" lon="1.96704">
        <ele>61</ele>
        <time>2020-06-21T13:45:16Z</time>
      </trkpt>
      <trkpt lat="48.97536" lon="1.96709">
        <ele>61</ele>
        <time>2020-06-21T13:45:21Z</time>
      </trkpt>
      <trkpt lat="48.97547" lon="1.96698">
        <ele>61</ele>
        <time>2020-06-21T13:45:45Z</time>
      </trkpt>
      <trkpt lat="48.9755" lon="1.96692">
        <ele>61</ele>
        <time>2020-06-21T13:45:50Z</time>
      </trkpt>
      <trkpt lat="48.97554" lon="1.96686">
        <ele>61</ele>
        <time>2020-06-21T13:45:55Z</time>
      </trkpt>
      <trkpt lat="48.97561" lon="1.96678">
        <ele>61</ele>
        <time>2020-06-21T13:46:03Z</time>
      </trkpt>
      <trkpt lat="48.97566" lon="1.96677">
        <ele>61</ele>
        <time>2020-06-21T13:46:07Z</time>
      </trkpt>
      <trkpt lat="48.97571" lon="1.9668">
        <ele>61</ele>
        <time>2020-06-21T13:46:11Z</time>
      </trkpt>
      <trkpt lat="48.97579" lon="1.9669">
        <ele>61</ele>
        <time>2020-06-21T13:46:20Z</time>
      </trkpt>
      <trkpt lat="48.97592" lon="1.96702">
        <ele>61</ele>
        <time>2020-06-21T13:46:32Z</time>
      </trkpt>
      <trkpt lat="48.97614" lon="1.96727">
        <ele>60</ele>
        <time>2020-06-21T13:46:52Z</time>
      </trkpt>
      <trkpt lat="48.97625" lon="1.96749">
        <ele>60</ele>
        <time>2020-06-21T13:47:07Z</time>
      </trkpt>
      <trkpt lat="48.97653" lon="1.96788">
        <ele>59</ele>
        <time>2020-06-21T13:47:34Z</time>
      </trkpt>
      <trkpt lat="48.9766" lon="1.968">
        <ele>59</ele>
        <time>2020-06-21T13:47:42Z</time>
      </trkpt>
      <trkpt lat="48.97669" lon="1.96809">
        <ele>59</ele>
        <time>2020-06-21T13:47:50Z</time>
      </trkpt>
      <trkpt lat="48.977" lon="1.96855">
        <ele>57</ele>
        <time>2020-06-21T13:48:22Z</time>
      </trkpt>
      <trkpt lat="48.97707" lon="1.96864">
        <ele>57</ele>
        <time>2020-06-21T13:48:32Z</time>
      </trkpt>
      <trkpt lat="48.97717" lon="1.96882">
        <ele>56</ele>
        <time>2020-06-21T13:48:44Z</time>
      </trkpt>
      <trkpt lat="48.9772" lon="1.96892">
        <ele>56</ele>
        <time>2020-06-21T13:48:53Z</time>
      </trkpt>
      <trkpt lat="48.97725" lon="1.96894">
        <ele>56</ele>
        <time>2020-06-21T13:48:59Z</time>
      </trkpt>
      <trkpt lat="48.97744" lon="1.96919">
        <ele>55</ele>
        <time>2020-06-21T13:49:22Z</time>
      </trkpt>
      <trkpt lat="48.97741" lon="1.9693">
        <ele>55</ele>
        <time>2020-06-21T13:50:02Z</time>
      </trkpt>
      <trkpt lat="48.97737" lon="1.96936">
        <ele>54</ele>
        <time>2020-06-21T13:50:05Z</time>
      </trkpt>
      <trkpt lat="48.97735" lon="1.96943">
        <ele>54</ele>
        <time>2020-06-21T13:50:09Z</time>
      </trkpt>
      <trkpt lat="48.97728" lon="1.96956">
        <ele>53</ele>
        <time>2020-06-21T13:50:16Z</time>
      </trkpt>
      <trkpt lat="48.97726" lon="1.96963">
        <ele>53</ele>
        <time>2020-06-21T13:50:20Z</time>
      </trkpt>
      <trkpt lat="48.97699" lon="1.97017">
        <ele>51</ele>
        <time>2020-06-21T13:50:51Z</time>
      </trkpt>
      <trkpt lat="48.97696" lon="1.97022">
        <ele>51</ele>
        <time>2020-06-21T13:50:55Z</time>
      </trkpt>
      <trkpt lat="48.97676" lon="1.97057">
        <ele>50</ele>
        <time>2020-06-21T13:51:19Z</time>
      </trkpt>
      <trkpt lat="48.97665" lon="1.97085">
        <ele>50</ele>
        <time>2020-06-21T13:51:35Z</time>
      </trkpt>
      <trkpt lat="48.97664" lon="1.97094">
        <ele>49</ele>
        <time>2020-06-21T13:51:40Z</time>
      </trkpt>
      <trkpt lat="48.97666" lon="1.971">
        <ele>49</ele>
        <time>2020-06-21T13:51:43Z</time>
      </trkpt>
      <trkpt lat="48.97678" lon="1.97124">
        <ele>48</ele>
        <time>2020-06-21T13:51:57Z</time>
      </trkpt>
      <trkpt lat="48.9768" lon="1.9713">
        <ele>48</ele>
        <time>2020-06-21T13:52:00Z</time>
      </trkpt>
      <trkpt lat="48.97683" lon="1.97136">
        <ele>48</ele>
        <time>2020-06-21T13:52:04Z</time>
      </trkpt>
      <trkpt lat="48.9769" lon="1.97148">
        <ele>48</ele>
        <time>2020-06-21T13:52:12Z</time>
      </trkpt>
      <trkpt lat="48.97698" lon="1.97168">
        <ele>47</ele>
        <time>2020-06-21T13:52:23Z</time>
      </trkpt>
      <trkpt lat="48.97702" lon="1.97183">
        <ele>47</ele>
        <time>2020-06-21T13:52:31Z</time>
      </trkpt>
      <trkpt lat="48.97704" lon="1.97189">
        <ele>47</ele>
        <time>2020-06-21T13:52:35Z</time>
      </trkpt>
      <trkpt lat="48.97715" lon="1.97226">
        <ele>45</ele>
        <time>2020-06-21T13:52:53Z</time>
      </trkpt>
      <trkpt lat="48.97721" lon="1.9724">
        <ele>45</ele>
        <time>2020-06-21T13:53:01Z</time>
      </trkpt>
      <trkpt lat="48.97725" lon="1.97245">
        <ele>45</ele>
        <time>2020-06-21T13:53:05Z</time>
      </trkpt>
      <trkpt lat="48.97729" lon="1.97259">
        <ele>44</ele>
        <time>2020-06-21T13:53:13Z</time>
      </trkpt>
      <trkpt lat="48.9773" lon="1.97267">
        <ele>44</ele>
        <time>2020-06-21T13:53:17Z</time>
      </trkpt>
      <trkpt lat="48.97739" lon="1.97285">
        <ele>44</ele>
        <time>2020-06-21T13:53:29Z</time>
      </trkpt>
      <trkpt lat="48.97746" lon="1.97298">
        <ele>44</ele>
        <time>2020-06-21T13:53:37Z</time>
      </trkpt>
      <trkpt lat="48.97748" lon="1.97307">
        <ele>44</ele>
        <time>2020-06-21T13:53:41Z</time>
      </trkpt>
      <trkpt lat="48.97751" lon="1.97314">
        <ele>44</ele>
        <time>2020-06-21T13:53:45Z</time>
      </trkpt>
      <trkpt lat="48.97783" lon="1.97355">
        <ele>43</ele>
        <time>2020-06-21T13:54:16Z</time>
      </trkpt>
      <trkpt lat="48.97806" lon="1.97388">
        <ele>43</ele>
        <time>2020-06-21T13:54:40Z</time>
      </trkpt>
      <trkpt lat="48.9781" lon="1.97392">
        <ele>43</ele>
        <time>2020-06-21T13:55:15Z</time>
      </trkpt>
      <trkpt lat="48.97808" lon="1.97401">
        <ele>42</ele>
        <time>2020-06-21T13:55:20Z</time>
      </trkpt>
      <trkpt lat="48.97805" lon="1.97407">
        <ele>42</ele>
        <time>2020-06-21T13:55:24Z</time>
      </trkpt>
      <trkpt lat="48.97801" lon="1.97412">
        <ele>42</ele>
        <time>2020-06-21T13:55:28Z</time>
      </trkpt>
      <trkpt lat="48.97797" lon="1.97411">
        <ele>42</ele>
        <time>2020-06-21T13:55:31Z</time>
      </trkpt>
      <trkpt lat="48.97791" lon="1.97418">
        <ele>41</ele>
        <time>2020-06-21T13:55:39Z</time>
      </trkpt>
      <trkpt lat="48.97777" lon="1.97426">
        <ele>41</ele>
        <time>2020-06-21T13:55:49Z</time>
      </trkpt>
      <trkpt lat="48.97766" lon="1.97428">
        <ele>40</ele>
        <time>2020-06-21T13:55:57Z</time>
      </trkpt>
      <trkpt lat="48.9776" lon="1.97429">
        <ele>40</ele>
        <time>2020-06-21T13:56:01Z</time>
      </trkpt>
      <trkpt lat="48.9772" lon="1.97449">
        <ele>38</ele>
        <time>2020-06-21T13:56:33Z</time>
      </trkpt>
      <trkpt lat="48.97715" lon="1.97452">
        <ele>37</ele>
        <time>2020-06-21T13:56:37Z</time>
      </trkpt>
      <trkpt lat="48.977" lon="1.97471">
        <ele>35</ele>
        <time>2020-06-21T13:56:52Z</time>
      </trkpt>
      <trkpt lat="48.97664" lon="1.97491">
        <ele>33</ele>
        <time>2020-06-21T13:57:24Z</time>
      </trkpt>
      <trkpt lat="48.97648" lon="1.97485">
        <ele>36</ele>
        <time>2020-06-21T13:58:04Z</time>
      </trkpt>
      <trkpt lat="48.97619" lon="1.97489">
        <ele>37</ele>
        <time>2020-06-21T13:58:26Z</time>
      </trkpt>
      <trkpt lat="48.9761" lon="1.97493">
        <ele>37</ele>
        <time>2020-06-21T13:58:33Z</time>
      </trkpt>
      <trkpt lat="48.97601" lon="1.975">
        <ele>38</ele>
        <time>2020-06-21T13:58:39Z</time>
      </trkpt>
      <trkpt lat="48.97586" lon="1.9751">
        <ele>38</ele>
        <time>2020-06-21T13:58:52Z</time>
      </trkpt>
      <trkpt lat="48.97578" lon="1.9752">
        <ele>40</ele>
        <time>2020-06-21T13:59:00Z</time>
      </trkpt>
      <trkpt lat="48.97577" lon="1.97528">
        <ele>40</ele>
        <time>2020-06-21T13:59:04Z</time>
      </trkpt>
      <trkpt lat="48.97579" lon="1.97535">
        <ele>40</ele>
        <time>2020-06-21T13:59:07Z</time>
      </trkpt>
      <trkpt lat="48.97585" lon="1.97558">
        <ele>39</ele>
        <time>2020-06-21T13:59:20Z</time>
      </trkpt>
      <trkpt lat="48.97586" lon="1.97566">
        <ele>39</ele>
        <time>2020-06-21T13:59:24Z</time>
      </trkpt>
      <trkpt lat="48.97589" lon="1.97572">
        <ele>39</ele>
        <time>2020-06-21T13:59:28Z</time>
      </trkpt>
      <trkpt lat="48.9759" lon="1.9758">
        <ele>39</ele>
        <time>2020-06-21T13:59:32Z</time>
      </trkpt>
      <trkpt lat="48.97591" lon="1.97596">
        <ele>39</ele>
        <time>2020-06-21T13:59:39Z</time>
      </trkpt>
      <trkpt lat="48.97592" lon="1.97603">
        <ele>39</ele>
        <time>2020-06-21T13:59:42Z</time>
      </trkpt>
      <trkpt lat="48.97595" lon="1.9761">
        <ele>39</ele>
        <time>2020-06-21T13:59:46Z</time>
      </trkpt>
      <trkpt lat="48.97598" lon="1.97616">
        <ele>39</ele>
        <time>2020-06-21T13:59:50Z</time>
      </trkpt>
      <trkpt lat="48.97603" lon="1.97632">
        <ele>39</ele>
        <time>2020-06-21T13:59:58Z</time>
      </trkpt>
      <trkpt lat="48.97614" lon="1.97651">
        <ele>39</ele>
        <time>2020-06-21T14:00:10Z</time>
      </trkpt>
      <trkpt lat="48.97618" lon="1.97664">
        <ele>39</ele>
        <time>2020-06-21T14:00:17Z</time>
      </trkpt>
      <trkpt lat="48.9762" lon="1.9768">
        <ele>39</ele>
        <time>2020-06-21T14:00:25Z</time>
      </trkpt>
      <trkpt lat="48.97622" lon="1.97686">
        <ele>39</ele>
        <time>2020-06-21T14:00:29Z</time>
      </trkpt>
      <trkpt lat="48.97625" lon="1.97693">
        <ele>39</ele>
        <time>2020-06-21T14:00:33Z</time>
      </trkpt>
      <trkpt lat="48.97624" lon="1.97723">
        <ele>39</ele>
        <time>2020-06-21T14:00:47Z</time>
      </trkpt>
      <trkpt lat="48.9762" lon="1.9774">
        <ele>40</ele>
        <time>2020-06-21T14:00:55Z</time>
      </trkpt>
      <trkpt lat="48.97619" lon="1.97747">
        <ele>40</ele>
        <time>2020-06-21T14:00:58Z</time>
      </trkpt>
      <trkpt lat="48.97599" lon="1.97784">
        <ele>41</ele>
        <time>2020-06-21T14:01:21Z</time>
      </trkpt>
      <trkpt lat="48.97596" lon="1.97791">
        <ele>41</ele>
        <time>2020-06-21T14:01:25Z</time>
      </trkpt>
      <trkpt lat="48.97593" lon="1.97797">
        <ele>41</ele>
        <time>2020-06-21T14:01:29Z</time>
      </trkpt>
      <trkpt lat="48.97589" lon="1.97801">
        <ele>40</ele>
        <time>2020-06-21T14:01:34Z</time>
      </trkpt>
      <trkpt lat="48.97586" lon="1.97808">
        <ele>40</ele>
        <time>2020-06-21T14:01:38Z</time>
      </trkpt>
      <trkpt lat="48.97583" lon="1.97814">
        <ele>40</ele>
        <time>2020-06-21T14:01:43Z</time>
      </trkpt>
      <trkpt lat="48.97573" lon="1.97821">
        <ele>39</ele>
        <time>2020-06-21T14:01:54Z</time>
      </trkpt>
      <trkpt lat="48.97562" lon="1.9783">
        <ele>38</ele>
        <time>2020-06-21T14:02:07Z</time>
      </trkpt>
      <trkpt lat="48.97533" lon="1.97847">
        <ele>39</ele>
        <time>2020-06-21T14:02:29Z</time>
      </trkpt>
      <trkpt lat="48.97531" lon="1.9787">
        <ele>39</ele>
        <time>2020-06-21T14:02:47Z</time>
      </trkpt>
      <trkpt lat="48.9756" lon="1.97909">
        <ele>37</ele>
        <time>2020-06-21T14:03:16Z</time>
      </trkpt>
      <trkpt lat="48.97564" lon="1.97912">
        <ele>37</ele>
        <time>2020-06-21T14:03:20Z</time>
      </trkpt>
      <trkpt lat="48.97566" lon="1.97919">
        <ele>37</ele>
        <time>2020-06-21T14:03:25Z</time>
      </trkpt>
      <trkpt lat="48.9757" lon="1.97933">
        <ele>37</ele>
        <time>2020-06-21T14:03:33Z</time>
      </trkpt>
      <trkpt lat="48.97571" lon="1.97965">
        <ele>40</ele>
        <time>2020-06-21T14:03:50Z</time>
      </trkpt>
      <trkpt lat="48.97574" lon="1.97988">
        <ele>41</ele>
        <time>2020-06-21T14:04:02Z</time>
      </trkpt>
      <trkpt lat="48.97567" lon="1.98">
        <ele>42</ele>
        <time>2020-06-21T14:04:10Z</time>
      </trkpt>
      <trkpt lat="48.97558" lon="1.9801">
        <ele>42</ele>
        <time>2020-06-21T14:04:18Z</time>
      </trkpt>
      <trkpt lat="48.97554" lon="1.98011">
        <ele>42</ele>
        <time>2020-06-21T14:04:22Z</time>
      </trkpt>
      <trkpt lat="48.97539" lon="1.9799">
        <ele>44</ele>
        <time>2020-06-21T14:04:55Z</time>
      </trkpt>
      <trkpt lat="48.97527" lon="1.97977">
        <ele>45</ele>
        <time>2020-06-21T14:05:05Z</time>
      </trkpt>
      <trkpt lat="48.97524" lon="1.97971">
        <ele>45</ele>
        <time>2020-06-21T14:05:09Z</time>
      </trkpt>
      <trkpt lat="48.97516" lon="1.97958">
        <ele>46</ele>
        <time>2020-06-21T14:06:27Z</time>
      </trkpt>
      <trkpt lat="48.9751" lon="1.9795">
        <ele>46</ele>
        <time>2020-06-21T14:06:35Z</time>
      </trkpt>
      <trkpt lat="48.97505" lon="1.97949">
        <ele>46</ele>
        <time>2020-06-21T14:06:38Z</time>
      </trkpt>
      <trkpt lat="48.97492" lon="1.97939">
        <ele>48</ele>
        <time>2020-06-21T14:06:49Z</time>
      </trkpt>
      <trkpt lat="48.97487" lon="1.97934">
        <ele>48</ele>
        <time>2020-06-21T14:06:53Z</time>
      </trkpt>
      <trkpt lat="48.97483" lon="1.9793">
        <ele>48</ele>
        <time>2020-06-21T14:06:57Z</time>
      </trkpt>
      <trkpt lat="48.97478" lon="1.97931">
        <ele>48</ele>
        <time>2020-06-21T14:07:01Z</time>
      </trkpt>
      <trkpt lat="48.97474" lon="1.97937">
        <ele>48</ele>
        <time>2020-06-21T14:07:05Z</time>
      </trkpt>
      <trkpt lat="48.9747" lon="1.9794">
        <ele>48</ele>
        <time>2020-06-21T14:07:09Z</time>
      </trkpt>
      <trkpt lat="48.97465" lon="1.97937">
        <ele>48</ele>
        <time>2020-06-21T14:07:13Z</time>
      </trkpt>
      <trkpt lat="48.9746" lon="1.9794">
        <ele>48</ele>
        <time>2020-06-21T14:07:18Z</time>
      </trkpt>
      <trkpt lat="48.97458" lon="1.97946">
        <ele>48</ele>
        <time>2020-06-21T14:07:22Z</time>
      </trkpt>
      <trkpt lat="48.97456" lon="1.97954">
        <ele>49</ele>
        <time>2020-06-21T14:07:26Z</time>
      </trkpt>
      <trkpt lat="48.97455" lon="1.97961">
        <ele>49</ele>
        <time>2020-06-21T14:07:30Z</time>
      </trkpt>
      <trkpt lat="48.97448" lon="1.97982">
        <ele>49</ele>
        <time>2020-06-21T14:07:42Z</time>
      </trkpt>
      <trkpt lat="48.97445" lon="1.97988">
        <ele>48</ele>
        <time>2020-06-21T14:07:46Z</time>
      </trkpt>
      <trkpt lat="48.97441" lon="1.98003">
        <ele>48</ele>
        <time>2020-06-21T14:07:54Z</time>
      </trkpt>
      <trkpt lat="48.97422" lon="1.9805">
        <ele>48</ele>
        <time>2020-06-21T14:08:21Z</time>
      </trkpt>
      <trkpt lat="48.97415" lon="1.9806">
        <ele>48</ele>
        <time>2020-06-21T14:08:27Z</time>
      </trkpt>
      <trkpt lat="48.97412" lon="1.98067">
        <ele>48</ele>
        <time>2020-06-21T14:08:31Z</time>
      </trkpt>
      <trkpt lat="48.97405" lon="1.9808">
        <ele>48</ele>
        <time>2020-06-21T14:08:39Z</time>
      </trkpt>
      <trkpt lat="48.97399" lon="1.98092">
        <ele>48</ele>
        <time>2020-06-21T14:08:47Z</time>
      </trkpt>
      <trkpt lat="48.97386" lon="1.98117">
        <ele>47</ele>
        <time>2020-06-21T14:09:03Z</time>
      </trkpt>
      <trkpt lat="48.97383" lon="1.98123">
        <ele>47</ele>
        <time>2020-06-21T14:09:07Z</time>
      </trkpt>
      <trkpt lat="48.97353" lon="1.98171">
        <ele>46</ele>
        <time>2020-06-21T14:09:40Z</time>
      </trkpt>
      <trkpt lat="48.97348" lon="1.98177">
        <ele>46</ele>
        <time>2020-06-21T14:09:44Z</time>
      </trkpt>
      <trkpt lat="48.97325" lon="1.98207">
        <ele>46</ele>
        <time>2020-06-21T14:10:08Z</time>
      </trkpt>
      <trkpt lat="48.97315" lon="1.98212">
        <ele>46</ele>
        <time>2020-06-21T14:10:16Z</time>
      </trkpt>
      <trkpt lat="48.973" lon="1.98223">
        <ele>46</ele>
        <time>2020-06-21T14:10:28Z</time>
      </trkpt>
      <trkpt lat="48.97295" lon="1.98226">
        <ele>46</ele>
        <time>2020-06-21T14:10:32Z</time>
      </trkpt>
      <trkpt lat="48.97288" lon="1.98235">
        <ele>46</ele>
        <time>2020-06-21T14:10:40Z</time>
      </trkpt>
      <trkpt lat="48.97256" lon="1.98261">
        <ele>46</ele>
        <time>2020-06-21T14:11:08Z</time>
      </trkpt>
      <trkpt lat="48.97247" lon="1.98271">
        <ele>46</ele>
        <time>2020-06-21T14:11:16Z</time>
      </trkpt>
      <trkpt lat="48.97247" lon="1.98278">
        <ele>45</ele>
        <time>2020-06-21T14:11:21Z</time>
      </trkpt>
      <trkpt lat="48.97242" lon="1.98283">
        <ele>45</ele>
        <time>2020-06-21T14:11:26Z</time>
      </trkpt>
      <trkpt lat="48.97234" lon="1.98288">
        <ele>45</ele>
        <time>2020-06-21T14:11:32Z</time>
      </trkpt>
      <trkpt lat="48.9722" lon="1.98299">
        <ele>44</ele>
        <time>2020-06-21T14:11:44Z</time>
      </trkpt>
      <trkpt lat="48.97224" lon="1.98314">
        <ele>43</ele>
        <time>2020-06-21T14:11:56Z</time>
      </trkpt>
      <trkpt lat="48.97233" lon="1.98336">
        <ele>42</ele>
        <time>2020-06-21T14:12:08Z</time>
      </trkpt>
      <trkpt lat="48.97236" lon="1.98341">
        <ele>41</ele>
        <time>2020-06-21T14:12:13Z</time>
      </trkpt>
      <trkpt lat="48.97239" lon="1.98364">
        <ele>39</ele>
        <time>2020-06-21T14:12:26Z</time>
      </trkpt>
      <trkpt lat="48.97252" lon="1.98379">
        <ele>38</ele>
        <time>2020-06-21T14:12:39Z</time>
      </trkpt>
      <trkpt lat="48.97254" lon="1.98387">
        <ele>38</ele>
        <time>2020-06-21T14:12:43Z</time>
      </trkpt>
      <trkpt lat="48.97254" lon="1.98395">
        <ele>39</ele>
        <time>2020-06-21T14:12:55Z</time>
      </trkpt>
      <trkpt lat="48.97263" lon="1.98416">
        <ele>37</ele>
        <time>2020-06-21T14:13:08Z</time>
      </trkpt>
      <trkpt lat="48.97271" lon="1.98428">
        <ele>36</ele>
        <time>2020-06-21T14:13:16Z</time>
      </trkpt>
      <trkpt lat="48.97278" lon="1.98449">
        <ele>35</ele>
        <time>2020-06-21T14:13:27Z</time>
      </trkpt>
      <trkpt lat="48.97282" lon="1.98452">
        <ele>35</ele>
        <time>2020-06-21T14:13:31Z</time>
      </trkpt>
      <trkpt lat="48.97286" lon="1.98457">
        <ele>35</ele>
        <time>2020-06-21T14:13:35Z</time>
      </trkpt>
      <trkpt lat="48.97289" lon="1.98463">
        <ele>34</ele>
        <time>2020-06-21T14:13:40Z</time>
      </trkpt>
      <trkpt lat="48.97307" lon="1.98483">
        <ele>32</ele>
        <time>2020-06-21T14:13:58Z</time>
      </trkpt>
      <trkpt lat="48.97316" lon="1.98505">
        <ele>30</ele>
        <time>2020-06-21T14:14:10Z</time>
      </trkpt>
      <trkpt lat="48.97322" lon="1.98527">
        <ele>29</ele>
        <time>2020-06-21T14:14:22Z</time>
      </trkpt>
      <trkpt lat="48.97326" lon="1.98532">
        <ele>29</ele>
        <time>2020-06-21T14:14:26Z</time>
      </trkpt>
      <trkpt lat="48.97331" lon="1.98534">
        <ele>28</ele>
        <time>2020-06-21T14:14:30Z</time>
      </trkpt>
      <trkpt lat="48.97336" lon="1.98547">
        <ele>28</ele>
        <time>2020-06-21T14:14:37Z</time>
      </trkpt>
      <trkpt lat="48.9734" lon="1.98552">
        <ele>27</ele>
        <time>2020-06-21T14:14:40Z</time>
      </trkpt>
      <trkpt lat="48.97341" lon="1.98568">
        <ele>27</ele>
        <time>2020-06-21T14:14:47Z</time>
      </trkpt>
      <trkpt lat="48.97353" lon="1.98598">
        <ele>26</ele>
        <time>2020-06-21T14:15:03Z</time>
      </trkpt>
      <trkpt lat="48.9736" lon="1.9861">
        <ele>26</ele>
        <time>2020-06-21T14:15:11Z</time>
      </trkpt>
      <trkpt lat="48.97365" lon="1.98624">
        <ele>25</ele>
        <time>2020-06-21T14:15:19Z</time>
      </trkpt>
      <trkpt lat="48.97373" lon="1.98635">
        <ele>25</ele>
        <time>2020-06-21T14:15:27Z</time>
      </trkpt>
      <trkpt lat="48.97378" lon="1.98638">
        <ele>25</ele>
        <time>2020-06-21T14:15:31Z</time>
      </trkpt>
      <trkpt lat="48.97382" lon="1.98644">
        <ele>25</ele>
        <time>2020-06-21T14:15:35Z</time>
      </trkpt>
      <trkpt lat="48.97382" lon="1.98651">
        <ele>25</ele>
        <time>2020-06-21T14:15:40Z</time>
      </trkpt>
      <trkpt lat="48.97402" lon="1.98696">
        <ele>24</ele>
        <time>2020-06-21T14:16:06Z</time>
      </trkpt>
      <trkpt lat="48.97408" lon="1.98703">
        <ele>24</ele>
        <time>2020-06-21T14:16:26Z</time>
      </trkpt>
      <trkpt lat="48.97424" lon="1.98742">
        <ele>24</ele>
        <time>2020-06-21T14:16:51Z</time>
      </trkpt>
      <trkpt lat="48.97433" lon="1.98756">
        <ele>24</ele>
        <time>2020-06-21T14:17:00Z</time>
      </trkpt>
      <trkpt lat="48.97442" lon="1.98783">
        <ele>24</ele>
        <time>2020-06-21T14:17:16Z</time>
      </trkpt>
      <trkpt lat="48.97447" lon="1.98783">
        <ele>24</ele>
        <time>2020-06-21T14:17:21Z</time>
      </trkpt>
      <trkpt lat="48.97451" lon="1.98786">
        <ele>24</ele>
        <time>2020-06-21T14:17:25Z</time>
      </trkpt>
      <trkpt lat="48.97455" lon="1.98807">
        <ele>24</ele>
        <time>2020-06-21T14:17:35Z</time>
      </trkpt>
      <trkpt lat="48.97465" lon="1.98829">
        <ele>24</ele>
        <time>2020-06-21T14:17:48Z</time>
      </trkpt>
      <trkpt lat="48.97472" lon="1.9884">
        <ele>24</ele>
        <time>2020-06-21T14:17:57Z</time>
      </trkpt>
      <trkpt lat="48.97477" lon="1.98864">
        <ele>24</ele>
        <time>2020-06-21T14:18:09Z</time>
      </trkpt>
      <trkpt lat="48.97487" lon="1.98883">
        <ele>24</ele>
        <time>2020-06-21T14:18:21Z</time>
      </trkpt>
      <trkpt lat="48.97491" lon="1.98889">
        <ele>24</ele>
        <time>2020-06-21T14:18:25Z</time>
      </trkpt>
      <trkpt lat="48.97496" lon="1.98904">
        <ele>24</ele>
        <time>2020-06-21T14:18:33Z</time>
      </trkpt>
      <trkpt lat="48.97499" lon="1.98908">
        <ele>24</ele>
        <time>2020-06-21T14:18:37Z</time>
      </trkpt>
      <trkpt lat="48.97511" lon="1.98934">
        <ele>24</ele>
        <time>2020-06-21T14:18:54Z</time>
      </trkpt>
      <trkpt lat="48.97516" lon="1.98939">
        <ele>24</ele>
        <time>2020-06-21T14:18:58Z</time>
      </trkpt>
      <trkpt lat="48.97534" lon="1.98986">
        <ele>23</ele>
        <time>2020-06-21T14:19:25Z</time>
      </trkpt>
      <trkpt lat="48.97557" lon="1.9903">
        <ele>23</ele>
        <time>2020-06-21T14:19:55Z</time>
      </trkpt>
      <trkpt lat="48.97558" lon="1.99042">
        <ele>23</ele>
        <time>2020-06-21T14:20:05Z</time>
      </trkpt>
      <trkpt lat="48.9756" lon="1.99048">
        <ele>23</ele>
        <time>2020-06-21T14:20:09Z</time>
      </trkpt>
      <trkpt lat="48.97578" lon="1.99078">
        <ele>24</ele>
        <time>2020-06-21T14:20:26Z</time>
      </trkpt>
      <trkpt lat="48.97583" lon="1.99098">
        <ele>24</ele>
        <time>2020-06-21T14:20:38Z</time>
      </trkpt>
      <trkpt lat="48.97594" lon="1.99113">
        <ele>24</ele>
        <time>2020-06-21T14:20:50Z</time>
      </trkpt>
      <trkpt lat="48.97609" lon="1.99138">
        <ele>25</ele>
        <time>2020-06-21T14:21:08Z</time>
      </trkpt>
      <trkpt lat="48.97619" lon="1.99172">
        <ele>25</ele>
        <time>2020-06-21T14:21:28Z</time>
      </trkpt>
      <trkpt lat="48.97626" lon="1.99184">
        <ele>25</ele>
        <time>2020-06-21T14:21:36Z</time>
      </trkpt>
      <trkpt lat="48.97629" lon="1.99188">
        <ele>25</ele>
        <time>2020-06-21T14:21:40Z</time>
      </trkpt>
      <trkpt lat="48.97632" lon="1.99196">
        <ele>25</ele>
        <time>2020-06-21T14:21:44Z</time>
      </trkpt>
      <trkpt lat="48.97636" lon="1.99212">
        <ele>25</ele>
        <time>2020-06-21T14:21:52Z</time>
      </trkpt>
      <trkpt lat="48.97662" lon="1.99266">
        <ele>25</ele>
        <time>2020-06-21T14:22:24Z</time>
      </trkpt>
      <trkpt lat="48.97673" lon="1.99295">
        <ele>25</ele>
        <time>2020-06-21T14:22:42Z</time>
      </trkpt>
      <trkpt lat="48.97679" lon="1.99299">
        <ele>25</ele>
        <time>2020-06-21T14:22:50Z</time>
      </trkpt>
      <trkpt lat="48.97683" lon="1.99293">
        <ele>25</ele>
        <time>2020-06-21T14:22:54Z</time>
      </trkpt>
      <trkpt lat="48.97687" lon="1.9929">
        <ele>25</ele>
        <time>2020-06-21T14:22:58Z</time>
      </trkpt>
      <trkpt lat="48.97692" lon="1.99294">
        <ele>25</ele>
        <time>2020-06-21T14:23:17Z</time>
      </trkpt>
      <trkpt lat="48.97697" lon="1.99293">
        <ele>25</ele>
        <time>2020-06-21T14:23:21Z</time>
      </trkpt>
      <trkpt lat="48.97738" lon="1.99268">
        <ele>26</ele>
        <time>2020-06-21T14:23:54Z</time>
      </trkpt>
      <trkpt lat="48.97758" lon="1.99255">
        <ele>26</ele>
        <time>2020-06-21T14:24:10Z</time>
      </trkpt>
      <trkpt lat="48.97763" lon="1.99252">
        <ele>26</ele>
        <time>2020-06-21T14:24:14Z</time>
      </trkpt>
      <trkpt lat="48.97772" lon="1.99246">
        <ele>26</ele>
        <time>2020-06-21T14:24:23Z</time>
      </trkpt>
      <trkpt lat="48.97777" lon="1.99243">
        <ele>26</ele>
        <time>2020-06-21T14:24:27Z</time>
      </trkpt>
      <trkpt lat="48.97786" lon="1.99238">
        <ele>26</ele>
        <time>2020-06-21T14:24:35Z</time>
      </trkpt>
      <trkpt lat="48.97792" lon="1.99237">
        <ele>26</ele>
        <time>2020-06-21T14:24:39Z</time>
      </trkpt>
      <trkpt lat="48.97831" lon="1.99208">
        <ele>26</ele>
        <time>2020-06-21T14:25:11Z</time>
      </trkpt>
      <trkpt lat="48.97867" lon="1.99184">
        <ele>26</ele>
        <time>2020-06-21T14:25:39Z</time>
      </trkpt>
      <trkpt lat="48.97876" lon="1.9918">
        <ele>26</ele>
        <time>2020-06-21T14:25:47Z</time>
      </trkpt>
      <trkpt lat="48.97881" lon="1.99179">
        <ele>26</ele>
        <time>2020-06-21T14:25:51Z</time>
      </trkpt>
      <trkpt lat="48.97886" lon="1.9918">
        <ele>26</ele>
        <time>2020-06-21T14:25:55Z</time>
      </trkpt>
      <trkpt lat="48.97905" lon="1.99184">
        <ele>26</ele>
        <time>2020-06-21T14:26:11Z</time>
      </trkpt>
      <trkpt lat="48.97909" lon="1.99189">
        <ele>27</ele>
        <time>2020-06-21T14:26:15Z</time>
      </trkpt>
      <trkpt lat="48.97916" lon="1.99201">
        <ele>26</ele>
        <time>2020-06-21T14:26:23Z</time>
      </trkpt>
      <trkpt lat="48.97921" lon="1.99202">
        <ele>26</ele>
        <time>2020-06-21T14:26:27Z</time>
      </trkpt>
      <trkpt lat="48.97926" lon="1.99212">
        <ele>25</ele>
        <time>2020-06-21T14:26:40Z</time>
      </trkpt>
      <trkpt lat="48.9793" lon="1.99223">
        <ele>25</ele>
        <time>2020-06-21T14:26:50Z</time>
      </trkpt>
      <trkpt lat="48.97931" lon="1.9923">
        <ele>25</ele>
        <time>2020-06-21T14:26:55Z</time>
      </trkpt>
      <trkpt lat="48.97933" lon="1.99239">
        <ele>24</ele>
        <time>2020-06-21T14:27:30Z</time>
      </trkpt>
      <trkpt lat="48.97935" lon="1.99255">
        <ele>24</ele>
        <time>2020-06-21T14:27:38Z</time>
      </trkpt>
      <trkpt lat="48.9794" lon="1.99271">
        <ele>24</ele>
        <time>2020-06-21T14:27:50Z</time>
      </trkpt>
      <trkpt lat="48.97942" lon="1.99293">
        <ele>24</ele>
        <time>2020-06-21T14:28:02Z</time>
      </trkpt>
      <trkpt lat="48.97944" lon="1.99307">
        <ele>23</ele>
        <time>2020-06-21T14:28:10Z</time>
      </trkpt>
      <trkpt lat="48.97957" lon="1.99366">
        <ele>23</ele>
        <time>2020-06-21T14:28:41Z</time>
      </trkpt>
      <trkpt lat="48.97974" lon="1.99421">
        <ele>22</ele>
        <time>2020-06-21T14:29:13Z</time>
      </trkpt>
      <trkpt lat="48.97978" lon="1.99434">
        <ele>22</ele>
        <time>2020-06-21T14:29:22Z</time>
      </trkpt>
      <trkpt lat="48.97987" lon="1.99445">
        <ele>22</ele>
        <time>2020-06-21T14:29:33Z</time>
      </trkpt>
      <trkpt lat="48.97993" lon="1.99449">
        <ele>21</ele>
        <time>2020-06-21T14:29:41Z</time>
      </trkpt>
      <trkpt lat="48.97991" lon="1.99456">
        <ele>19</ele>
        <time>2020-06-21T14:32:35Z</time>
      </trkpt>
      <trkpt lat="48.97986" lon="1.9945">
        <ele>20</ele>
        <time>2020-06-21T14:37:44Z</time>
      </trkpt>
      <trkpt lat="48.97985" lon="1.99458">
        <ele>21</ele>
        <time>2020-06-21T14:37:50Z</time>
      </trkpt>
      <trkpt lat="48.97986" lon="1.99465">
        <ele>21</ele>
        <time>2020-06-21T14:37:55Z</time>
      </trkpt>
      <trkpt lat="48.97987" lon="1.99472">
        <ele>21</ele>
        <time>2020-06-21T14:38:00Z</time>
      </trkpt>
      <trkpt lat="48.9799" lon="1.99481">
        <ele>22</ele>
        <time>2020-06-21T14:38:06Z</time>
      </trkpt>
      <trkpt lat="48.97993" lon="1.99497">
        <ele>23</ele>
        <time>2020-06-21T14:38:16Z</time>
      </trkpt>
      <trkpt lat="48.9799" lon="1.99507">
        <ele>23</ele>
        <time>2020-06-21T14:38:24Z</time>
      </trkpt>
      <trkpt lat="48.97989" lon="1.99522">
        <ele>23</ele>
        <time>2020-06-21T14:38:33Z</time>
      </trkpt>
      <trkpt lat="48.97988" lon="1.99529">
        <ele>23</ele>
        <time>2020-06-21T14:38:37Z</time>
      </trkpt>
      <trkpt lat="48.97987" lon="1.99536">
        <ele>23</ele>
        <time>2020-06-21T14:38:41Z</time>
      </trkpt>
      <trkpt lat="48.97993" lon="1.99566">
        <ele>23</ele>
        <time>2020-06-21T14:38:57Z</time>
      </trkpt>
      <trkpt lat="48.97995" lon="1.99574">
        <ele>23</ele>
        <time>2020-06-21T14:39:01Z</time>
      </trkpt>
      <trkpt lat="48.97996" lon="1.99599">
        <ele>23</ele>
        <time>2020-06-21T14:39:14Z</time>
      </trkpt>
      <trkpt lat="48.97995" lon="1.99606">
        <ele>23</ele>
        <time>2020-06-21T14:39:18Z</time>
      </trkpt>
      <trkpt lat="48.97996" lon="1.99613">
        <ele>24</ele>
        <time>2020-06-21T14:39:21Z</time>
      </trkpt>
      <trkpt lat="48.98" lon="1.99627">
        <ele>23</ele>
        <time>2020-06-21T14:39:29Z</time>
      </trkpt>
      <trkpt lat="48.98001" lon="1.99642">
        <ele>23</ele>
        <time>2020-06-21T14:39:37Z</time>
      </trkpt>
      <trkpt lat="48.98" lon="1.99649">
        <ele>24</ele>
        <time>2020-06-21T14:39:41Z</time>
      </trkpt>
      <trkpt lat="48.97999" lon="1.99681">
        <ele>24</ele>
        <time>2020-06-21T14:39:57Z</time>
      </trkpt>
      <trkpt lat="48.98" lon="1.99689">
        <ele>24</ele>
        <time>2020-06-21T14:40:01Z</time>
      </trkpt>
      <trkpt lat="48.97998" lon="1.99697">
        <ele>23</ele>
        <time>2020-06-21T14:40:05Z</time>
      </trkpt>
      <trkpt lat="48.97998" lon="1.99705">
        <ele>23</ele>
        <time>2020-06-21T14:40:09Z</time>
      </trkpt>
      <trkpt lat="48.97995" lon="1.99713">
        <ele>23</ele>
        <time>2020-06-21T14:40:13Z</time>
      </trkpt>
      <trkpt lat="48.97995" lon="1.99735">
        <ele>23</ele>
        <time>2020-06-21T14:40:26Z</time>
      </trkpt>
      <trkpt lat="48.97992" lon="1.99742">
        <ele>23</ele>
        <time>2020-06-21T14:40:30Z</time>
      </trkpt>
      <trkpt lat="48.97976" lon="1.99804">
        <ele>23</ele>
        <time>2020-06-21T14:41:03Z</time>
      </trkpt>
      <trkpt lat="48.9797" lon="1.99833">
        <ele>23</ele>
        <time>2020-06-21T14:41:19Z</time>
      </trkpt>
      <trkpt lat="48.97961" lon="1.99853">
        <ele>23</ele>
        <time>2020-06-21T14:41:31Z</time>
      </trkpt>
      <trkpt lat="48.97956" lon="1.99875">
        <ele>23</ele>
        <time>2020-06-21T14:41:43Z</time>
      </trkpt>
      <trkpt lat="48.97957" lon="1.99884">
        <ele>23</ele>
        <time>2020-06-21T14:41:47Z</time>
      </trkpt>
      <trkpt lat="48.97956" lon="1.99892">
        <ele>23</ele>
        <time>2020-06-21T14:41:52Z</time>
      </trkpt>
      <trkpt lat="48.97954" lon="1.99899">
        <ele>23</ele>
        <time>2020-06-21T14:41:56Z</time>
      </trkpt>
      <trkpt lat="48.97954" lon="1.99921">
        <ele>22</ele>
        <time>2020-06-21T14:42:07Z</time>
      </trkpt>
      <trkpt lat="48.9795" lon="1.99933">
        <ele>22</ele>
        <time>2020-06-21T14:42:15Z</time>
      </trkpt>
      <trkpt lat="48.97933" lon="1.99943">
        <ele>22</ele>
        <time>2020-06-21T14:42:29Z</time>
      </trkpt>
      <trkpt lat="48.97928" lon="1.99947">
        <ele>22</ele>
        <time>2020-06-21T14:42:33Z</time>
      </trkpt>
      <trkpt lat="48.9792" lon="1.99957">
        <ele>21</ele>
        <time>2020-06-21T14:42:40Z</time>
      </trkpt>
      <trkpt lat="48.9791" lon="1.99965">
        <ele>21</ele>
        <time>2020-06-21T14:42:48Z</time>
      </trkpt>
      <trkpt lat="48.97885" lon="1.99983">
        <ele>21</ele>
        <time>2020-06-21T14:43:08Z</time>
      </trkpt>
      <trkpt lat="48.97876" lon="1.99992">
        <ele>21</ele>
        <time>2020-06-21T14:43:16Z</time>
      </trkpt>
      <trkpt lat="48.97861" lon="2.00003">
        <ele>21</ele>
        <time>2020-06-21T14:43:28Z</time>
      </trkpt>
      <trkpt lat="48.97851" lon="2.00009">
        <ele>22</ele>
        <time>2020-06-21T14:43:36Z</time>
      </trkpt>
      <trkpt lat="48.9784" lon="2.00013">
        <ele>22</ele>
        <time>2020-06-21T14:43:44Z</time>
      </trkpt>
      <trkpt lat="48.97835" lon="2.00014">
        <ele>22</ele>
        <time>2020-06-21T14:43:49Z</time>
      </trkpt>
      <trkpt lat="48.9783" lon="2.00011">
        <ele>22</ele>
        <time>2020-06-21T14:43:53Z</time>
      </trkpt>
      <trkpt lat="48.97825" lon="2.00006">
        <ele>22</ele>
        <time>2020-06-21T14:43:57Z</time>
      </trkpt>
      <trkpt lat="48.97815" lon="1.99995">
        <ele>28</ele>
        <time>2020-06-21T14:44:25Z</time>
      </trkpt>
      <trkpt lat="48.97817" lon="2.00004">
        <ele>29</ele>
        <time>2020-06-21T14:44:30Z</time>
      </trkpt>
      <trkpt lat="48.97821" lon="2.00016">
        <ele>29</ele>
        <time>2020-06-21T14:44:37Z</time>
      </trkpt>
      <trkpt lat="48.97821" lon="2.00026">
        <ele>30</ele>
        <time>2020-06-21T14:44:58Z</time>
      </trkpt>
      <trkpt lat="48.97823" lon="2.00041">
        <ele>30</ele>
        <time>2020-06-21T14:45:06Z</time>
      </trkpt>
      <trkpt lat="48.97825" lon="2.00047">
        <ele>30</ele>
        <time>2020-06-21T14:45:10Z</time>
      </trkpt>
      <trkpt lat="48.97827" lon="2.00054">
        <ele>30</ele>
        <time>2020-06-21T14:45:15Z</time>
      </trkpt>
      <trkpt lat="48.97834" lon="2.00079">
        <ele>29</ele>
        <time>2020-06-21T14:45:35Z</time>
      </trkpt>
      <trkpt lat="48.9784" lon="2.00102">
        <ele>30</ele>
        <time>2020-06-21T14:45:47Z</time>
      </trkpt>
      <trkpt lat="48.97848" lon="2.00125">
        <ele>29</ele>
        <time>2020-06-21T14:45:59Z</time>
      </trkpt>
      <trkpt lat="48.97865" lon="2.00184">
        <ele>29</ele>
        <time>2020-06-21T14:46:33Z</time>
      </trkpt>
      <trkpt lat="48.97867" lon="2.00191">
        <ele>29</ele>
        <time>2020-06-21T14:46:37Z</time>
      </trkpt>
      <trkpt lat="48.97868" lon="2.002">
        <ele>29</ele>
        <time>2020-06-21T14:46:41Z</time>
      </trkpt>
      <trkpt lat="48.97883" lon="2.00261">
        <ele>28</ele>
        <time>2020-06-21T14:47:12Z</time>
      </trkpt>
      <trkpt lat="48.97884" lon="2.00269">
        <ele>28</ele>
        <time>2020-06-21T14:47:16Z</time>
      </trkpt>
      <trkpt lat="48.97886" lon="2.00276">
        <ele>28</ele>
        <time>2020-06-21T14:47:20Z</time>
      </trkpt>
      <trkpt lat="48.97887" lon="2.00283">
        <ele>27</ele>
        <time>2020-06-21T14:47:25Z</time>
      </trkpt>
      <trkpt lat="48.97895" lon="2.00305">
        <ele>27</ele>
        <time>2020-06-21T14:47:38Z</time>
      </trkpt>
      <trkpt lat="48.97899" lon="2.0031">
        <ele>27</ele>
        <time>2020-06-21T14:47:42Z</time>
      </trkpt>
      <trkpt lat="48.97905" lon="2.00332">
        <ele>27</ele>
        <time>2020-06-21T14:47:55Z</time>
      </trkpt>
      <trkpt lat="48.97907" lon="2.00338">
        <ele>27</ele>
        <time>2020-06-21T14:47:59Z</time>
      </trkpt>
      <trkpt lat="48.97907" lon="2.00354">
        <ele>27</ele>
        <time>2020-06-21T14:48:07Z</time>
      </trkpt>
      <trkpt lat="48.97913" lon="2.00366">
        <ele>27</ele>
        <time>2020-06-21T14:48:15Z</time>
      </trkpt>
      <trkpt lat="48.97914" lon="2.00373">
        <ele>27</ele>
        <time>2020-06-21T14:48:19Z</time>
      </trkpt>
      <trkpt lat="48.97922" lon="2.00388">
        <ele>26</ele>
        <time>2020-06-21T14:48:39Z</time>
      </trkpt>
      <trkpt lat="48.97921" lon="2.004">
        <ele>26</ele>
        <time>2020-06-21T14:48:59Z</time>
      </trkpt>
      <trkpt lat="48.97925" lon="2.00406">
        <ele>26</ele>
        <time>2020-06-21T14:49:03Z</time>
      </trkpt>
      <trkpt lat="48.9793" lon="2.00409">
        <ele>26</ele>
        <time>2020-06-21T14:49:07Z</time>
      </trkpt>
      <trkpt lat="48.97933" lon="2.00415">
        <ele>26</ele>
        <time>2020-06-21T14:49:11Z</time>
      </trkpt>
      <trkpt lat="48.97938" lon="2.00414">
        <ele>26</ele>
        <time>2020-06-21T14:49:15Z</time>
      </trkpt>
      <trkpt lat="48.97942" lon="2.0041">
        <ele>26</ele>
        <time>2020-06-21T14:49:20Z</time>
      </trkpt>
      <trkpt lat="48.97952" lon="2.00409">
        <ele>26</ele>
        <time>2020-06-21T14:49:26Z</time>
      </trkpt>
      <trkpt lat="48.97962" lon="2.00402">
        <ele>26</ele>
        <time>2020-06-21T14:49:34Z</time>
      </trkpt>
      <trkpt lat="48.97971" lon="2.00392">
        <ele>27</ele>
        <time>2020-06-21T14:49:43Z</time>
      </trkpt>
      <trkpt lat="48.97985" lon="2.00388">
        <ele>27</ele>
        <time>2020-06-21T14:49:55Z</time>
      </trkpt>
      <trkpt lat="48.97991" lon="2.00389">
        <ele>28</ele>
        <time>2020-06-21T14:49:59Z</time>
      </trkpt>
      <trkpt lat="48.97994" lon="2.00395">
        <ele>28</ele>
        <time>2020-06-21T14:50:03Z</time>
      </trkpt>
      <trkpt lat="48.97994" lon="2.00402">
        <ele>29</ele>
        <time>2020-06-21T14:50:08Z</time>
      </trkpt>
      <trkpt lat="48.97991" lon="2.0041">
        <ele>30</ele>
        <time>2020-06-21T14:50:15Z</time>
      </trkpt>
      <trkpt lat="48.97989" lon="2.00421">
        <ele>31</ele>
        <time>2020-06-21T14:50:22Z</time>
      </trkpt>
      <trkpt lat="48.97986" lon="2.00428">
        <ele>32</ele>
        <time>2020-06-21T14:50:27Z</time>
      </trkpt>
      <trkpt lat="48.97984" lon="2.00436">
        <ele>32</ele>
        <time>2020-06-21T14:50:32Z</time>
      </trkpt>
      <trkpt lat="48.9799" lon="2.00449">
        <ele>34</ele>
        <time>2020-06-21T14:50:40Z</time>
      </trkpt>
      <trkpt lat="48.97995" lon="2.00472">
        <ele>37</ele>
        <time>2020-06-21T14:50:54Z</time>
      </trkpt>
      <trkpt lat="48.98002" lon="2.00483">
        <ele>38</ele>
        <time>2020-06-21T14:51:02Z</time>
      </trkpt>
      <trkpt lat="48.98016" lon="2.00533">
        <ele>43</ele>
        <time>2020-06-21T14:51:31Z</time>
      </trkpt>
      <trkpt lat="48.98017" lon="2.00548">
        <ele>44</ele>
        <time>2020-06-21T14:51:40Z</time>
      </trkpt>
      <trkpt lat="48.9802" lon="2.00554">
        <ele>45</ele>
        <time>2020-06-21T14:51:45Z</time>
      </trkpt>
      <trkpt lat="48.98022" lon="2.0057">
        <ele>47</ele>
        <time>2020-06-21T14:51:57Z</time>
      </trkpt>
      <trkpt lat="48.9803" lon="2.00582">
        <ele>49</ele>
        <time>2020-06-21T14:52:07Z</time>
      </trkpt>
      <trkpt lat="48.98034" lon="2.00582">
        <ele>49</ele>
        <time>2020-06-21T14:52:11Z</time>
      </trkpt>
      <trkpt lat="48.98039" lon="2.00582">
        <ele>49</ele>
        <time>2020-06-21T14:52:15Z</time>
      </trkpt>
      <trkpt lat="48.98047" lon="2.0058">
        <ele>50</ele>
        <time>2020-06-21T14:52:29Z</time>
      </trkpt>
      <trkpt lat="48.98055" lon="2.00577">
        <ele>50</ele>
        <time>2020-06-21T14:52:37Z</time>
      </trkpt>
    </trkseg>
  </trk>
</gpx>